[[{"header":{"parameterUnit":"m.s-1","parameterCategory":1,"la1":31.0,"la2":29.5877,"lo1":-88.7671,"lo2":-86.6584,"dy":0.0162,"dx":0.0185,"nx":115,"ny":88,"refTime":"2023-11-14T06:00:00:Z","depth":0,"parameterNumber":2,"parameterNumberName":"U-component_of_WINDS"},"data":[0.0,0.0,0.0,0.0,0.0,0.0,0.0,0.0,0.0,0.0,0.0,0.0,0.0,0.0,0.0,0.0,0.0,0.0,0.0,0.0,0.0,0.0,0.0,0.0,0.0,0.0,0.0,0.0,0.0,0.0,0.0,0.0,0.0,0.0,0.0,0.0,0.0,0.0,0.0,0.0,0.0,0.0,0.0,0.0,0.0,0.0,0.0,0.0,0.0,0.0,0.0,0.0,0.0,0.0,0.0,0.0,0.0,0.0,0.0,0.0,0.0,0.0,0.0,0.0,0.0,0.0,0.0,0.0,0.0,0.0,0.0,0.0,0.0,0.0,0.0,0.0,0.0,0.0,0.0,0.0,0.0,0.0,0.0,0.0,0.0,0.0,0.0,0.0,0.0,0.0,0.0,0.0,0.0,0.0,0.0,0.0,0.0,0.0,0.0,0.0,0.0,0.0,0.0,0.0,0.0,0.0,0.0,0.0,0.0,0.0,0.0,0.0,0.0,0.0,0.0,0.0,0.0,0.0,0.0,0.0,0.0,0.0,0.0,0.0,0.0,0.0,0.0,0.0,0.0,0.0,0.0,0.0,0.0,0.0,0.0,0.0,0.0,0.0,0.0,0.0,0.0,0.0,0.0,0.0,0.0,0.0,0.0,0.0,0.0,0.0,0.0,0.0,0.0,0.0,0.0,0.0,0.0,0.0,0.0,0.0,0.0,0.0,0.0,0.0,0.0,0.0,0.0,0.0,0.0,0.0,0.0,0.0,0.0,0.0,0.0,0.0,0.0,0.0,0.0,0.0,0.0,0.0,0.0,0.0,0.0,0.0,0.0,0.0,0.0,0.0,0.0,0.0,0.0,0.0,0.0,0.0,0.0,0.0,0.0,0.0,0.0,0.0,0.0,0.0,0.0,0.0,0.0,0.0,0.0,0.0,0.0,0.0,0.0,0.0,0.0,0.0,0.0,0.0,0.0,0.0,0.0,0.0,0.0,0.0,0.0,0.0,0.0,0.0,0.0,0.0,0.0,0.0,0.0,0.0,0.0,0.0,0.0,0.0,0.0,0.0,0.0,0.0,0.0,0.0,0.0,0.0,0.0,0.0,0.0,0.0,0.0,0.0,0.0,0.0,0.0,0.0,0.0,0.0,0.0,0.0,0.0,0.0,0.0,0.0,0.0,0.0,0.0,0.0,0.0,0.0,0.0,0.0,0.0,0.0,0.0,0.0,0.0,0.0,0.0,0.0,0.0,0.0,0.0,0.0,0.0,0.0,0.0,0.0,0.0,0.0,0.0,0.0,0.0,0.0,0.0,0.0,0.0,0.0,0.0,0.0,0.0,0.0,0.0,0.0,0.0,0.0,0.0,0.0,0.0,0.0,0.0,0.0,0.0,0.0,0.0,0.0,0.0,0.0,0.0,0.0,0.0,0.0,0.0,0.0,0.0,0.0,0.0,0.0,0.0,0.0,0.0,0.0,0.0,0.0,0.0,0.0,0.0,0.0,0.0,0.0,0.0,0.0,0.0,0.0,0.0,0.0,0.0,0.0,0.0,0.0,0.0,0.0,0.0,0.0,0.0,0.0,0.0,0.0,0.0,0.0,0.0,0.0,0.0,0.0,0.0,0.0,0.0,0.0,0.0,0.0,0.0,0.0,0.0,0.0,0.0,0.0,0.0,0.0,0.0,0.0,0.0,0.0,0.0,0.0,0.0,0.0,0.0,0.0,0.0,0.0,0.0,0.0,0.0,0.0,0.0,0.0,0.0,0.0,0.0,0.0,0.0,0.0,0.0,0.0,0.0,0.0,0.0,0.0,0.0,0.0,0.0,0.0,0.0,0.0,0.0,0.0,0.0,0.0,0.0,0.0,0.0,0.0,0.0,0.0,0.0,0.0,0.0,0.0,0.0,0.0,0.0,0.0,0.0,0.0,0.0,0.0,0.0,0.0,0.0,0.0,0.0,0.0,0.0,0.0,0.0,0.0,0.0,0.0,0.0,0.0,0.0,0.0,0.0,0.0,0.0,0.0,0.0,0.0,0.0,0.0,0.0,0.0,0.0,0.0,0.0,0.0,0.0,0.0,0.0,0.0,0.0,0.0,0.0,0.0,0.0,0.0,0.0,0.0,0.0,0.0,0.0,0.0,0.0,0.0,0.0,0.0,0.0,0.0,0.0,0.0,0.0,0.0,0.0,0.0,0.0,0.0,0.0,0.0,0.0,0.0,0.0,0.0,0.0,0.0,0.0,0.0,0.0,0.0,0.0,0.0,0.0,0.0,0.0,0.0,0.0,0.0,0.0,0.0,0.0,0.0,0.0,0.0,0.0,0.0,0.0,0.0,0.0,0.0,0.0,0.0,0.0,0.0,0.0,0.0,0.0,0.0,0.0,0.0,0.0,0.0,0.0,0.0,0.0,0.0,0.0,0.0,0.0,0.0,0.0,0.0,0.0,0.0,0.0,0.0,0.0,0.0,0.0,0.0,0.0,0.0,0.0,0.0,0.0,0.0,0.0,0.0,0.0,0.0,0.0,0.0,0.0,0.0,0.0,0.0,0.0,0.0,0.0,0.0,0.0,0.0,0.0,0.0,0.0,0.0,0.0,0.0,0.0,0.0,0.0,0.0,0.0,0.0,0.0,0.0,0.0,0.0,0.0,0.0,0.0,0.0,0.0,0.0,0.0,0.0,0.0,0.0,0.0,0.0,0.0,0.0,0.0,0.0,0.0,0.0,0.0,0.0,0.0,0.0,0.0,0.0,0.0,0.0,0.0,0.0,0.0,0.0,0.0,0.0,0.0,0.0,0.0,0.0,0.0,0.0,0.0,0.0,0.0,0.0,0.0,0.0,0.0,0.0,0.0,0.0,0.0,0.0,0.0,0.0,0.0,0.0,0.0,0.0,0.0,0.0,0.0,0.0,0.0,0.0,0.0,0.0,0.0,0.0,0.0,0.0,0.0,0.0,0.0,0.0,0.0,0.0,0.0,0.0,0.0,0.0,0.0,0.0,0.0,0.0,0.0,0.0,0.0,0.0,0.0,0.0,0.0,0.0,0.0,0.0,0.0,0.0,0.0,0.0,0.0,0.0,0.0,0.0,0.0,0.0,0.0,0.0,0.0,0.0,0.0,0.0,0.0,0.0,0.0,0.0,0.0,0.0,0.0,0.0,0.0,0.0,0.0,0.0,0.0,0.0,0.0,0.0,0.0,0.0,0.0,0.0,0.0,0.0,0.0,0.0,0.0,0.0,0.0,0.0,0.0,0.0,0.0,0.0,0.0,0.0,0.0,0.0,0.0,0.0,0.0,0.0,0.0,0.0,0.0,0.0,0.0,0.0,0.0,0.0,0.0,0.0,0.0,0.0,0.0,0.0,0.0,0.0,0.0,0.0,0.0,0.0,0.0,0.0,0.0,0.0,0.0,0.0,0.0,0.0,0.0,0.0,0.0,0.0,0.0,0.0,0.0,0.0,0.0,0.0,0.0,0.0,0.0,0.0,0.0,0.0,0.0,0.0,0.0,0.0,0.0,0.0,0.0,0.0,0.0,0.0,0.0,0.0,0.0,0.0,0.0,0.0,0.0,0.0,0.0,0.0,0.0,0.0,0.0,0.0,0.0,0.0,0.0,0.0,0.0,0.0,0.0,0.0,0.0,0.0,0.0,0.0,0.0,0.0,0.0,0.0,0.0,0.0,0.0,0.0,0.0,0.0,0.0,0.0,0.0,0.0,0.0,0.0,0.0,0.0,0.0,0.0,0.0,0.0,0.0,0.0,0.0,0.0,0.0,0.0,0.0,0.0,0.0,0.0,0.0,0.0,0.0,0.0,0.0,0.0,0.0,0.0,0.0,0.0,0.0,0.0,0.0,0.0,0.0,0.0,0.0,0.0,0.0,0.0,0.0,0.0,0.0,0.0,0.0,0.0,0.0,0.0,0.0,0.0,0.0,0.0,0.0,0.0,0.0,0.0,0.0,0.0,0.0,0.0,0.0,0.0,0.0,0.0,0.0,0.0,0.0,0.0,0.0,0.0,0.0,0.0,0.0,0.0,0.0,0.0,0.0,0.0,0.0,0.0,0.0,0.0,0.0,0.0,0.0,0.0,0.0,0.0,0.0,0.0,0.0,0.0,0.0,0.0,0.0,0.0,0.0,0.0,0.0,0.0,0.0,0.0,0.0,0.0,0.0,0.0,0.0,0.0,0.0,0.0,0.0,0.0,0.0,0.0,0.0,0.0,0.0,0.0,0.0,0.0,0.0,0.0,0.0,0.0,0.0,0.0,0.0,0.0,0.0,0.0,2.307,0.0,0.0,0.0,0.0,0.0,0.0,0.0,0.0,0.0,0.0,0.0,0.0,0.0,0.0,0.0,0.0,0.0,0.0,0.0,0.0,0.0,0.0,0.0,0.0,0.0,0.0,0.0,0.0,0.0,0.0,0.0,0.0,0.0,0.0,0.0,0.0,0.0,0.0,0.0,0.0,0.0,0.0,0.0,0.0,0.0,0.0,0.0,0.0,0.0,0.0,0.0,0.0,0.0,0.0,0.0,0.0,0.0,0.0,0.0,0.0,0.0,0.0,0.0,0.0,0.0,0.0,0.0,0.0,0.0,0.0,0.0,0.0,0.0,0.0,0.0,0.0,0.0,0.0,0.0,0.0,0.0,0.0,0.0,0.0,0.0,0.0,0.0,0.0,0.0,0.0,0.0,0.0,0.0,0.0,0.0,0.0,0.0,0.0,0.0,0.0,0.0,0.0,0.0,0.0,0.0,0.0,0.0,0.0,0.0,0.0,2.608,2.5259,2.5259,2.4992,2.449,0.0,0.0,0.0,0.0,0.0,0.0,0.0,0.0,0.0,0.0,0.0,0.0,0.0,0.0,0.0,0.0,0.0,0.0,0.0,0.0,0.0,0.0,0.0,0.0,0.0,0.0,0.0,0.0,0.0,0.0,0.0,0.0,0.0,0.0,0.0,0.0,0.0,0.0,0.0,0.0,0.0,0.0,0.0,0.0,0.0,0.0,0.0,0.0,0.0,0.0,0.0,0.0,0.0,0.0,0.0,0.0,0.0,0.0,0.0,0.0,0.0,0.0,0.0,0.0,0.0,0.0,0.0,0.0,0.0,0.0,0.0,0.0,0.0,0.0,0.0,0.0,0.0,0.0,0.0,0.0,0.0,0.0,0.0,0.0,0.0,0.0,0.0,0.0,0.0,0.0,0.0,0.0,0.0,0.0,0.0,0.0,0.0,0.0,0.0,0.0,0.0,0.0,0.0,0.0,0.0,0.0,0.0,0.0,0.0,0.0,0.0,0.0,2.6306,2.6289,2.6189,0.0,0.0,0.0,0.0,0.0,0.0,0.0,0.0,0.0,0.0,0.0,0.0,0.0,0.0,0.0,0.0,0.0,0.0,0.0,0.0,0.0,0.0,0.0,0.0,0.0,0.0,0.0,0.0,0.0,0.0,0.0,0.0,0.0,0.0,0.0,0.0,0.0,0.0,0.0,0.0,0.0,0.0,0.0,0.0,0.0,0.0,0.0,0.0,0.0,0.0,0.0,0.0,0.0,0.0,0.0,0.0,0.0,0.0,0.0,0.0,0.0,0.0,0.0,0.0,0.0,0.0,0.0,0.0,0.0,0.0,0.0,0.0,0.0,0.0,0.0,0.0,0.0,0.0,0.0,0.0,0.0,0.0,0.0,0.0,0.0,0.0,0.0,0.0,0.0,0.0,0.0,0.0,0.0,0.0,0.0,0.0,0.0,0.0,0.0,0.0,0.0,0.0,0.0,0.0,0.0,0.0,0.0,0.0,0.0,0.0,2.7946,2.7896,2.8355,0.0,2.7878,0.0,0.0,0.0,0.0,0.0,0.0,0.0,0.0,0.0,0.0,0.0,0.0,0.0,0.0,0.0,0.0,0.0,0.0,0.0,0.0,0.0,0.0,0.0,0.0,0.0,0.0,0.0,0.0,0.0,0.0,0.0,0.0,0.0,0.0,0.0,0.0,0.0,0.0,0.0,0.0,0.0,0.0,0.0,0.0,0.0,0.0,0.0,0.0,0.0,0.0,0.0,0.0,0.0,0.0,0.0,0.0,0.0,0.0,0.0,0.0,0.0,0.0,0.0,0.0,0.0,0.0,0.0,0.0,0.0,0.0,0.0,0.0,0.0,0.0,0.0,0.0,0.0,0.0,0.0,0.0,0.0,0.0,0.0,0.0,0.0,0.0,0.0,0.0,0.0,0.0,0.0,0.0,0.0,0.0,0.0,0.0,0.0,0.0,0.0,0.0,0.0,0.0,0.0,0.0,0.0,0.0,0.0,0.0,0.0,0.0,2.8907,2.9559,3.0086,2.998,0.0,0.0,0.0,0.0,0.0,0.0,0.0,0.0,0.0,0.0,0.0,0.0,0.0,0.0,0.0,0.0,0.0,0.0,0.0,0.0,0.0,0.0,0.0,0.0,0.0,0.0,0.0,0.0,0.0,0.0,0.0,0.0,0.0,0.0,0.0,0.0,0.0,0.0,0.0,0.0,0.0,0.0,0.0,0.0,0.0,0.0,0.0,0.0,0.0,0.0,0.0,0.0,0.0,0.0,0.0,0.0,0.0,0.0,0.0,0.0,0.0,0.0,0.0,0.0,0.0,0.0,0.0,0.0,0.0,0.0,0.0,0.0,0.0,0.0,0.0,0.0,0.0,0.0,0.0,0.0,0.0,0.0,0.0,0.0,0.0,0.0,0.0,0.0,0.0,0.0,0.0,0.0,0.0,0.0,0.0,0.0,0.0,0.0,0.0,0.0,0.0,0.0,0.0,0.0,0.0,0.0,0.0,0.0,0.0,0.0,2.8781,2.9835,3.119,3.1381,3.0979,3.0055,0.0,0.0,0.0,0.0,0.0,0.0,0.0,0.0,0.0,0.0,0.0,0.0,0.0,0.0,0.0,0.0,0.0,0.0,0.0,0.0,0.0,0.0,0.0,0.0,0.0,0.0,0.0,0.0,0.0,0.0,0.0,0.0,0.0,0.0,0.0,0.0,0.0,0.0,0.0,0.0,0.0,0.0,0.0,0.0,0.0,0.0,0.0,0.0,0.0,0.0,0.0,0.0,0.0,0.0,0.0,0.0,0.0,0.0,0.0,0.0,0.0,0.0,0.0,0.0,0.0,0.0,0.0,0.0,0.0,0.0,0.0,0.0,0.0,0.0,0.0,0.0,0.0,0.0,0.0,0.0,0.0,0.0,0.0,0.0,0.0,0.0,0.0,0.0,0.0,0.0,0.0,0.0,0.0,0.0,0.0,0.0,0.0,0.0,0.0,0.0,0.0,0.0,0.0,0.0,0.0,0.0,0.0,0.0,2.8079,2.9227,3.0809,3.2839,3.1938,3.1135,0.0,0.0,0.0,0.0,0.0,0.0,0.0,0.0,0.0,0.0,0.0,0.0,0.0,0.0,0.0,0.0,0.0,0.0,0.0,0.0,0.0,0.0,0.0,0.0,0.0,0.0,0.0,0.0,0.0,0.0,0.0,0.0,0.0,0.0,0.0,0.0,0.0,0.0,0.0,0.0,0.0,0.0,0.0,0.0,0.0,0.0,0.0,0.0,0.0,0.0,0.0,0.0,0.0,0.0,0.0,0.0,0.0,0.0,0.0,0.0,0.0,0.0,0.0,0.0,0.0,0.0,0.0,0.0,0.0,0.0,0.0,0.0,0.0,0.0,0.0,0.0,0.0,0.0,0.0,0.0,0.0,0.0,0.0,0.0,0.0,0.0,0.0,0.0,0.0,0.0,0.0,0.0,0.0,0.0,0.0,0.0,0.0,0.0,0.0,0.0,0.0,0.0,0.0,0.0,0.0,0.0,0.0,0.0,0.0,2.8681,3.111,3.229,3.2014,3.1938,3.114,0.0,0.0,0.0,0.0,0.0,0.0,0.0,0.0,0.0,0.0,0.0,0.0,0.0,0.0,0.0,0.0,0.0,0.0,0.0,0.0,0.0,0.0,0.0,0.0,0.0,0.0,0.0,0.0,0.0,0.0,0.0,0.0,0.0,0.0,0.0,0.0,0.0,0.0,0.0,0.0,0.0,0.0,0.0,0.0,0.0,0.0,0.0,0.0,0.0,0.0,0.0,0.0,0.0,0.0,0.0,0.0,0.0,0.0,0.0,0.0,0.0,0.0,0.0,0.0,0.0,0.0,0.0,0.0,0.0,0.0,0.0,0.0,0.0,0.0,0.0,0.0,0.0,0.0,0.0,0.0,0.0,0.0,0.0,0.0,0.0,0.0,0.0,0.0,0.0,0.0,0.0,0.0,0.0,0.0,0.0,0.0,0.0,0.0,0.0,0.0,0.0,0.0,0.0,0.0,0.0,0.0,0.0,0.0,0.0,2.9735,0.0,3.3169,3.224,3.2014,3.0964,0.0,0.0,0.0,0.0,0.0,0.0,0.0,0.0,0.0,0.0,0.0,0.0,0.0,0.0,0.0,0.0,0.0,0.0,0.0,0.0,0.0,0.0,0.0,0.0,0.0,0.0,0.0,0.0,0.0,0.0,0.0,0.0,0.0,0.0,0.0,0.0,0.0,0.0,0.0,0.0,0.0,0.0,0.0,0.0,0.0,0.0,0.0,0.0,0.0,0.0,0.0,0.0,0.0,0.0,0.0,0.0,0.0,0.0,0.0,0.0,0.0,0.0,0.0,0.0,0.0,0.0,0.0,0.0,0.0,0.0,0.0,0.0,0.0,0.0,0.0,0.0,0.0,0.0,0.0,0.0,0.0,0.0,0.0,0.0,0.0,0.0,0.0,0.0,0.0,0.0,0.0,0.0,0.0,0.0,0.0,0.0,0.0,0.0,0.0,0.0,0.0,0.0,0.0,0.0,0.0,0.0,0.0,0.0,2.8743,3.1336,3.2612,3.3467,3.3822,3.2315,3.0638,0.0,0.0,0.0,0.0,0.0,0.0,0.0,0.0,0.0,0.0,0.0,0.0,0.0,0.0,0.0,0.0,0.0,0.0,0.0,0.0,0.0,0.0,0.0,0.0,0.0,0.0,0.0,0.0,0.0,0.0,0.0,0.0,0.0,0.0,0.0,0.0,0.0,0.0,0.0,0.0,0.0,0.0,0.0,0.0,0.0,0.0,0.0,0.0,0.0,0.0,0.0,0.0,0.0,0.0,0.0,0.0,0.0,0.0,0.0,0.0,0.0,0.0,0.0,0.0,0.0,0.0,0.0,0.0,0.0,0.0,0.0,0.0,0.0,0.0,0.0,0.0,0.0,0.0,0.0,0.0,0.0,0.0,0.0,0.0,0.0,0.0,0.0,0.0,0.0,0.0,0.0,0.0,0.0,0.0,0.0,0.0,0.0,0.0,0.0,0.0,0.0,0.0,0.0,0.0,0.0,0.0,0.0,0.0,0.0,3.3624,3.4798,3.5052,3.4427,3.3244,3.1235,0.0,0.0,0.0,0.0,0.0,0.0,0.0,0.0,0.0,0.0,0.0,0.0,0.0,0.0,0.0,0.0,0.0,0.0,0.0,0.0,0.0,0.0,0.0,0.0,0.0,0.0,0.0,0.0,0.0,0.0,0.0,0.0,0.0,0.0,0.0,0.0,0.0,0.0,0.0,0.0,0.0,0.0,0.0,0.0,0.0,0.0,0.0,0.0,0.0,0.0,0.0,0.0,0.0,0.0,0.0,0.0,0.0,0.0,0.0,0.0,0.0,0.0,0.0,0.0,0.0,0.0,0.0,0.0,0.0,0.0,0.0,0.0,0.0,0.0,0.0,0.0,0.0,0.0,0.0,0.0,0.0,0.0,0.0,0.0,0.0,0.0,0.0,0.0,0.0,0.0,0.0,0.0,0.0,0.0,0.0,0.0,0.0,0.0,0.0,0.0,0.0,0.0,0.0,0.0,0.0,0.0,0.0,0.0,0.0,3.8266,3.8291,3.7889,3.7187,3.5906,3.3492,2.9804,0.0,0.0,0.0,0.0,0.0,0.0,0.0,0.0,0.0,0.0,0.0,0.0,0.0,0.0,0.0,0.0,0.0,0.0,0.0,0.0,0.0,0.0,0.0,0.0,0.0,0.0,0.0,0.0,0.0,0.0,0.0,0.0,0.0,0.0,0.0,0.0,0.0,0.0,0.0,0.0,0.0,0.0,0.0,0.0,0.0,0.0,0.0,0.0,0.0,0.0,0.0,0.0,0.0,0.0,0.0,0.0,0.0,0.0,0.0,0.0,0.0,0.0,0.0,0.0,0.0,0.0,0.0,0.0,0.0,0.0,0.0,0.0,0.0,0.0,0.0,0.0,0.0,0.0,0.0,0.0,0.0,0.0,0.0,0.0,0.0,0.0,0.0,0.0,0.0,0.0,0.0,0.0,0.0,0.0,0.0,0.0,0.0,0.0,0.0,0.0,0.0,0.0,0.0,0.0,0.0,0.0,0.0,0.0,4.4815,4.3059,4.203,4.1729,4.0023,3.7034,0.0,0.0,0.0,0.0,0.0,0.0,0.0,0.0,0.0,0.0,0.0,0.0,0.0,0.0,0.0,0.0,0.0,0.0,0.0,0.0,0.0,0.0,0.0,0.0,0.0,0.0,0.0,0.0,0.0,0.0,0.0,0.0,0.0,0.0,0.0,0.0,0.0,0.0,0.0,0.0,0.0,0.0,0.0,0.0,0.0,0.0,0.0,0.0,0.0,0.0,0.0,0.0,0.0,0.0,0.0,0.0,0.0,0.0,0.0,0.0,0.0,0.0,0.0,0.0,0.0,0.0,0.0,0.0,0.0,0.0,0.0,0.0,0.0,0.0,0.0,0.0,0.0,0.0,0.0,0.0,0.0,0.0,0.0,0.0,0.0,0.0,0.0,0.0,0.0,0.0,0.0,0.0,0.0,0.0,0.0,0.0,0.0,0.0,0.0,0.0,0.0,0.0,0.0,0.0,0.0,0.0,0.0,0.0,0.0,4.8134,5.0519,5.0142,4.6903,4.3668,3.9848,0.0,0.0,0.0,0.0,0.0,0.0,0.0,0.0,0.0,0.0,0.0,0.0,0.0,0.0,0.0,0.0,0.0,0.0,0.0,0.0,0.0,0.0,0.0,0.0,0.0,0.0,0.0,0.0,0.0,0.0,0.0,0.0,0.0,0.0,0.0,0.0,0.0,0.0,0.0,0.0,0.0,0.0,0.0,0.0,0.0,0.0,0.0,0.0,0.0,0.0,0.0,0.0,0.0,0.0,0.0,0.0,0.0,0.0,0.0,0.0,0.0,0.0,0.0,0.0,0.0,0.0,0.0,0.0,0.0,0.0,0.0,0.0,0.0,0.0,0.0,0.0,0.0,0.0,0.0,0.0,0.0,0.0,0.0,0.0,0.0,0.0,0.0,0.0,0.0,0.0,0.0,0.0,0.0,0.0,0.0,0.0,0.0,0.0,0.0,0.0,0.0,0.0,0.0,0.0,0.0,0.0,0.0,0.0,4.7079,5.1272,5.534,5.6244,5.3683,4.8542,4.3592,0.0,0.0,0.0,0.0,0.0,0.0,0.0,0.0,0.0,0.0,0.0,0.0,0.0,0.0,0.0,0.0,0.0,0.0,0.0,0.0,0.0,0.0,0.0,0.0,0.0,0.0,0.0,0.0,0.0,0.0,0.0,0.0,0.0,0.0,0.0,0.0,0.0,0.0,0.0,0.0,0.0,0.0,0.0,0.0,0.0,0.0,0.0,0.0,0.0,0.0,0.0,0.0,0.0,0.0,0.0,0.0,0.0,0.0,0.0,0.0,0.0,0.0,0.0,0.0,0.0,0.0,0.0,0.0,0.0,0.0,0.0,0.0,0.0,0.0,0.0,0.0,0.0,0.0,0.0,0.0,0.0,0.0,0.0,0.0,0.0,0.0,0.0,0.0,0.0,0.0,0.0,0.0,0.0,0.0,0.0,0.0,0.0,0.0,0.0,0.0,0.0,0.0,0.0,0.0,0.0,0.0,0.0,0.0,5.0293,5.4084,5.8453,6.0688,6.0387,5.3683,4.7657,0.0,0.0,0.0,0.0,0.0,0.0,0.0,0.0,0.0,0.0,0.0,0.0,0.0,0.0,0.0,0.0,0.0,0.0,0.0,0.0,0.0,0.0,0.0,0.0,0.0,0.0,0.0,0.0,0.0,0.0,0.0,0.0,0.0,0.0,0.0,0.0,0.0,0.0,0.0,0.0,0.0,0.0,0.0,0.0,0.0,0.0,0.0,0.0,0.0,0.0,0.0,0.0,0.0,0.0,0.0,0.0,0.0,0.0,0.0,0.0,0.0,0.0,0.0,0.0,0.0,0.0,0.0,0.0,0.0,0.0,0.0,0.0,0.0,0.0,0.0,0.0,0.0,0.0,0.0,0.0,0.0,0.0,0.0,0.0,0.0,0.0,0.0,0.0,0.0,0.0,0.0,0.0,0.0,0.0,0.0,0.0,0.0,0.0,0.0,0.0,0.0,0.0,0.0,0.0,0.0,0.0,0.0,0.0,5.3497,5.6972,6.1316,6.3174,6.2255,5.5742,5.026,0.0,0.0,0.0,0.0,0.0,0.0,0.0,0.0,0.0,0.0,0.0,0.0,0.0,0.0,0.0,0.0,0.0,0.0,0.0,0.0,0.0,0.0,0.0,0.0,0.0,0.0,0.0,0.0,0.0,0.0,0.0,0.0,0.0,0.0,0.0,0.0,0.0,0.0,0.0,0.0,0.0,0.0,0.0,0.0,0.0,0.0,0.0,0.0,3.0965,0.0,0.0,0.0,0.0,0.0,0.0,0.0,0.0,0.0,0.0,0.0,0.0,0.0,0.0,0.0,0.0,0.0,0.0,0.0,0.0,0.0,0.0,0.0,0.0,0.0,0.0,0.0,0.0,0.0,0.0,0.0,0.0,0.0,0.0,0.0,0.0,0.0,0.0,0.0,0.0,0.0,0.0,0.0,0.0,0.0,0.0,0.0,0.0,0.0,0.0,0.0,0.0,0.0,0.0,0.0,0.0,0.0,0.0,0.0,5.5164,5.8956,6.2345,6.3827,6.3073,5.8052,5.308,0.0,0.0,0.0,0.0,0.0,0.0,0.0,0.0,0.0,0.0,0.0,0.0,0.0,0.0,0.0,0.0,0.0,0.0,0.0,0.0,0.0,0.0,0.0,0.0,0.0,0.0,0.0,0.0,0.0,0.0,0.0,0.0,0.0,0.0,0.0,0.0,0.0,0.0,0.0,0.0,0.0,0.0,0.0,0.0,0.0,0.0,0.0,0.0,0.0,0.0,0.0,0.0,0.0,0.0,0.0,0.0,0.0,0.0,0.0,0.0,0.0,0.0,0.0,0.0,0.0,0.0,0.0,0.0,0.0,0.0,0.0,0.0,0.0,0.0,0.0,0.0,0.0,0.0,0.0,0.0,0.0,0.0,0.0,0.0,0.0,0.0,0.0,0.0,0.0,0.0,0.0,0.0,0.0,0.0,0.0,0.0,0.0,0.0,0.0,0.0,0.0,0.0,0.0,0.0,0.0,0.0,0.0,5.0946,5.6244,6.0563,6.2898,6.3977,6.3751,6.0035,5.5415,4.9891,0.0,0.0,0.0,0.0,0.0,0.0,0.0,0.0,0.0,0.0,0.0,0.0,0.0,0.0,0.0,0.0,0.0,0.0,0.0,0.0,0.0,0.0,0.0,0.0,0.0,0.0,0.0,0.0,0.0,0.0,0.0,0.0,0.0,0.0,0.0,0.0,0.0,0.0,2.9684,3.2408,0.0,0.0,0.0,0.0,0.0,0.0,0.0,0.0,3.2658,0.0,0.0,0.0,0.0,0.0,0.0,0.0,0.0,0.0,0.0,0.0,0.0,0.0,0.0,0.0,0.0,0.0,0.0,0.0,0.0,0.0,0.0,0.0,0.0,0.0,0.0,0.0,0.0,0.0,0.0,0.0,0.0,0.0,0.0,0.0,0.0,0.0,0.0,0.0,0.0,0.0,0.0,0.0,0.0,0.0,0.0,0.0,0.0,0.0,0.0,0.0,0.0,0.0,0.0,0.0,0.0,4.5999,5.2477,5.7951,6.228,6.458,6.5283,6.4304,6.0613,5.5931,5.0419,0.0,0.0,0.0,0.0,0.0,0.0,0.0,0.0,0.0,0.0,0.0,0.0,0.0,0.0,0.0,0.0,0.0,0.0,0.0,0.0,0.0,0.0,0.0,0.0,0.0,0.0,0.0,0.0,0.0,0.0,0.0,0.0,0.0,0.0,0.0,0.0,0.0,0.0,0.0,3.6147,3.7171,0.0,0.0,0.0,0.0,0.0,0.0,0.0,0.0,3.4126,0.0,0.0,0.0,0.0,0.0,0.0,0.0,0.0,0.0,0.0,0.0,0.0,0.0,0.0,0.0,0.0,0.0,0.0,0.0,0.0,0.0,0.0,0.0,0.0,0.0,0.0,0.0,0.0,0.0,0.0,0.0,0.0,0.0,0.0,0.0,0.0,0.0,0.0,0.0,0.0,0.0,0.0,0.0,0.0,0.0,0.0,0.0,0.0,0.0,0.0,0.0,0.0,0.0,0.0,0.0,4.7506,5.3557,5.893,6.35,6.4454,6.4731,6.4421,6.0161,5.548,0.0,0.0,0.0,0.0,0.0,0.0,0.0,0.0,0.0,0.0,0.0,0.0,0.0,0.0,0.0,0.0,0.0,0.0,0.0,0.0,0.0,0.0,0.0,0.0,0.0,0.0,0.0,0.0,0.0,0.0,0.0,0.0,0.0,0.0,0.0,0.0,0.0,0.0,0.0,0.0,3.8558,3.9701,4.067,0.0,0.0,0.0,0.0,0.0,0.0,3.7805,3.6435,0.0,0.0,0.0,0.0,0.0,0.0,0.0,0.0,0.0,0.0,0.0,0.0,0.0,0.0,0.0,0.0,0.0,0.0,0.0,0.0,0.0,0.0,0.0,0.0,0.0,0.0,0.0,0.0,0.0,0.0,0.0,0.0,0.0,0.0,0.0,0.0,0.0,0.0,0.0,0.0,0.0,0.0,0.0,0.0,0.0,0.0,0.0,0.0,0.0,0.0,0.0,0.0,0.0,0.0,0.0,4.8894,5.4612,5.9784,6.4245,6.4279,6.4279,6.4396,5.9408,5.4576,0.0,0.0,0.0,0.0,0.0,0.0,0.0,0.0,0.0,0.0,0.0,0.0,0.0,0.0,0.0,0.0,0.0,0.0,0.0,0.0,0.0,0.0,0.0,0.0,0.0,0.0,0.0,0.0,0.0,0.0,0.0,0.0,0.0,0.0,0.0,0.0,0.0,0.0,0.0,0.0,0.0,4.2005,4.3129,4.1769,0.0,0.0,0.0,0.0,4.122,4.086,0.0,0.0,0.0,0.0,0.0,0.0,0.0,0.0,0.0,0.0,0.0,0.0,0.0,0.0,0.0,0.0,0.0,0.0,0.0,0.0,0.0,0.0,0.0,0.0,0.0,0.0,0.0,0.0,0.0,0.0,0.0,0.0,0.0,0.0,0.0,0.0,0.0,0.0,0.0,0.0,0.0,0.0,0.0,0.0,0.0,0.0,0.0,0.0,0.0,0.0,0.0,0.0,0.0,0.0,0.0,0.0,4.9439,5.5917,6.0914,6.4346,6.5358,6.5409,6.4471,5.8679,5.3507,0.0,0.0,0.0,0.0,0.0,0.0,0.0,0.0,0.0,0.0,0.0,0.0,0.0,0.0,0.0,0.0,0.0,0.0,0.0,0.0,0.0,0.0,0.0,0.0,0.0,0.0,0.0,0.0,0.0,0.0,0.0,0.0,0.0,0.0,0.0,0.0,0.0,0.0,0.0,0.0,0.0,4.3912,4.5785,4.4949,4.3602,0.0,0.0,4.4152,4.5116,4.7088,0.0,0.0,0.0,0.0,0.0,0.0,0.0,0.0,0.0,0.0,0.0,0.0,0.0,0.0,0.0,0.0,0.0,0.0,0.0,0.0,0.0,0.0,0.0,0.0,0.0,0.0,0.0,0.0,0.0,0.0,0.0,0.0,0.0,0.0,0.0,0.0,0.0,0.0,0.0,0.0,0.0,0.0,0.0,0.0,0.0,0.0,0.0,0.0,0.0,0.0,0.0,0.0,0.0,0.0,0.0,4.3915,5.0469,5.6445,6.1266,6.4823,6.5107,6.4806,6.4069,5.8428,5.3155,0.0,0.0,0.0,0.0,0.0,0.0,0.0,0.0,0.0,0.0,0.0,0.0,0.0,0.0,0.0,0.0,0.0,0.0,0.0,0.0,0.0,0.0,0.0,0.0,0.0,0.0,0.0,0.0,0.0,0.0,0.0,0.0,0.0,0.0,0.0,0.0,0.0,0.0,0.0,0.0,0.0,0.0,4.6004,4.702,0.0,0.0,0.0,4.7895,4.8507,0.0,0.0,0.0,0.0,0.0,0.0,0.0,0.0,0.0,0.0,0.0,0.0,0.0,0.0,0.0,0.0,0.0,0.0,0.0,0.0,0.0,0.0,0.0,0.0,0.0,0.0,0.0,0.0,0.0,0.0,0.0,0.0,0.0,0.0,0.0,0.0,0.0,0.0,0.0,0.0,0.0,0.0,0.0,0.0,0.0,0.0,0.0,0.0,0.0,0.0,0.0,0.0,0.0,0.0,0.0,0.0,0.0,5.1624,5.7248,6.1868,6.5333,6.5107,6.4505,6.3626,5.8428,0.0,0.0,0.0,0.0,0.0,0.0,0.0,0.0,0.0,0.0,0.0,0.0,0.0,0.0,0.0,0.0,0.0,0.0,0.0,0.0,0.0,0.0,0.0,0.0,0.0,0.0,0.0,2.2311,0.0,0.0,0.0,0.0,0.0,0.0,0.0,0.0,0.0,0.0,0.0,0.0,0.0,0.0,4.5969,4.699,4.9416,5.077,0.0,0.0,5.1645,5.2043,5.2524,5.1177,0.0,0.0,0.0,0.0,0.0,0.0,0.0,0.0,0.0,0.0,0.0,0.0,0.0,0.0,0.0,0.0,0.0,0.0,0.0,0.0,0.0,0.0,0.0,0.0,0.0,0.0,0.0,0.0,0.0,0.0,0.0,0.0,0.0,0.0,0.0,0.0,0.0,0.0,0.0,0.0,0.0,0.0,0.0,0.0,0.0,0.0,0.0,0.0,0.0,0.0,0.0,0.0,0.0,0.0,4.615,5.2719,5.8755,6.3174,6.5936,6.6036,6.5258,6.3651,5.8805,5.3322,0.0,0.0,0.0,0.0,0.0,0.0,0.0,0.0,0.0,0.0,0.0,0.0,0.0,0.0,0.0,0.0,0.0,0.0,0.0,0.0,0.0,0.0,0.0,0.0,0.0,0.0,0.0,0.0,0.0,0.0,0.0,0.0,0.0,0.0,0.0,0.0,0.0,0.0,0.0,0.0,0.0,4.7832,5.0246,5.2767,5.4652,0.0,5.5738,5.5858,5.5797,5.8704,5.7742,4.8171,0.0,0.0,0.0,0.0,0.0,0.0,0.0,0.0,0.0,0.0,0.0,0.0,0.0,0.0,0.0,0.0,0.0,0.0,0.0,0.0,0.0,0.0,0.0,0.0,0.0,0.0,0.0,0.0,0.0,0.0,0.0,0.0,0.0,0.0,0.0,0.0,0.0,0.0,0.0,0.0,0.0,0.0,0.0,0.0,0.0,0.0,0.0,0.0,0.0,0.0,0.0,0.0,0.0,4.625,5.2854,5.8579,6.2998,6.5961,6.6112,6.5183,6.3199,5.9307,5.421,0.0,0.0,0.0,0.0,0.0,0.0,0.0,0.0,0.0,0.0,0.0,0.0,0.0,0.0,0.0,0.0,0.0,0.0,0.0,0.0,0.0,0.0,0.0,0.0,0.0,0.0,0.0,0.0,3.1664,3.2287,3.1435,0.0,0.0,0.0,0.0,0.0,0.0,0.0,0.0,0.0,0.0,4.7482,4.9339,5.2025,0.0,0.0,5.5672,5.6233,5.589,5.6843,5.5407,4.8744,4.5287,0.0,0.0,0.0,0.0,0.0,0.0,0.0,0.0,0.0,0.0,0.0,0.0,0.0,0.0,0.0,0.0,0.0,0.0,0.0,0.0,0.0,0.0,0.0,0.0,0.0,0.0,0.0,0.0,0.0,0.0,0.0,0.0,0.0,0.0,0.0,0.0,0.0,0.0,0.0,0.0,0.0,0.0,0.0,0.0,0.0,0.0,0.0,0.0,0.0,0.0,0.0,0.0,4.5999,5.2594,5.8278,6.2697,6.581,6.586,6.4906,6.2807,5.9784,5.5103,0.0,0.0,0.0,0.0,0.0,0.0,0.0,0.0,0.0,0.0,0.0,0.0,0.0,0.0,0.0,0.0,0.0,0.0,0.0,0.0,0.0,0.0,0.0,0.0,0.0,0.0,0.0,0.0,3.3391,3.3138,3.0749,0.0,0.0,0.0,0.0,0.0,0.0,0.0,0.0,0.0,0.0,4.7765,4.9613,5.2043,5.3995,5.4898,5.5472,5.5912,5.5963,5.5319,5.3233,4.8687,0.0,0.0,0.0,0.0,0.0,0.0,0.0,0.0,0.0,0.0,0.0,0.0,0.0,0.0,0.0,0.0,0.0,0.0,0.0,0.0,0.0,0.0,0.0,0.0,0.0,0.0,0.0,2.4766,0.0,0.0,2.312,0.0,0.0,0.0,0.0,0.0,0.0,0.0,0.0,0.0,0.0,0.0,0.0,0.0,0.0,0.0,0.0,0.0,0.0,0.0,0.0,0.0,0.0,4.5502,5.2076,5.8127,6.2521,6.5208,6.5308,6.453,6.2807,6.0111,5.5897,4.9925,0.0,0.0,0.0,0.0,0.0,0.0,0.0,0.0,0.0,0.0,0.0,0.0,0.0,0.0,0.0,0.0,0.0,0.0,0.0,0.0,0.0,0.0,0.0,0.0,0.0,0.0,3.0834,3.2293,3.2324,0.0,0.0,0.0,0.0,0.0,0.0,0.0,0.0,0.0,4.1012,4.549,4.9223,5.1757,5.3474,5.5027,5.7078,5.5864,5.5182,5.6413,5.5164,5.2474,0.0,0.0,0.0,0.0,0.0,0.0,0.0,0.0,0.0,0.0,0.0,0.0,0.0,0.0,0.0,0.0,0.0,0.0,0.0,0.0,0.0,0.0,0.0,0.0,0.0,0.0,0.0,3.1356,3.0276,0.0,0.0,0.0,0.0,0.0,0.0,0.0,0.0,0.0,0.0,0.0,4.3489,4.2961,0.0,0.0,0.0,0.0,0.0,0.0,0.0,0.0,0.0,0.0,0.0,0.0,4.5999,5.2519,5.8278,6.2562,6.5183,6.566,6.4881,6.2832,6.0626,5.5594,4.7541,0.0,0.0,0.0,0.0,0.0,0.0,0.0,0.0,0.0,0.0,0.0,0.0,0.0,0.0,0.0,0.0,0.0,0.0,0.0,0.0,0.0,0.0,0.0,0.0,0.0,3.1582,0.0,0.0,0.0,0.0,0.0,0.0,0.0,0.0,0.0,0.0,0.0,3.8856,4.1799,4.5562,4.864,5.0309,5.1632,5.2872,0.0,0.0,0.0,0.0,0.0,0.0,0.0,0.0,0.0,0.0,0.0,0.0,0.0,0.0,3.7027,3.4102,3.3639,3.3648,3.3388,0.0,0.0,0.0,0.0,0.0,0.0,0.0,0.0,0.0,0.0,0.0,0.0,0.0,0.0,3.6158,0.0,3.4246,0.0,0.0,0.0,0.0,0.0,0.0,0.0,0.0,4.4823,4.7838,4.9163,4.9012,4.8736,0.0,4.5929,4.206,0.0,0.0,0.0,0.0,0.0,0.0,0.0,0.0,4.6351,5.2544,5.8278,6.232,6.463,6.5258,6.4596,6.2602,5.9578,5.4856,4.8338,4.3176,3.8956,0.0,0.0,0.0,0.0,0.0,0.0,0.0,0.0,0.0,0.0,0.0,0.0,0.0,0.0,0.0,0.0,0.0,0.0,0.0,0.0,0.0,0.0,0.0,3.2506,0.0,0.0,0.0,0.0,0.0,0.0,0.0,0.0,0.0,3.4712,3.7937,4.1038,4.3395,4.5901,4.8065,4.9431,0.0,0.0,0.0,0.0,0.0,0.0,0.0,4.9761,4.8073,4.6967,4.6106,4.549,4.5,4.4518,4.414,0.0,0.0,3.8667,3.7942,3.8023,3.8104,3.863,3.9273,3.9983,4.0528,4.1211,0.0,0.0,0.0,0.0,0.0,0.0,0.0,0.0,4.1503,4.0549,0.0,3.8994,0.0,0.0,0.0,0.0,0.0,4.0351,0.0,0.0,5.2494,5.5666,5.4823,5.5225,5.4913,5.3783,5.1147,4.9012,4.7124,4.1428,0.0,0.0,0.0,0.0,0.0,0.0,4.6702,5.2327,5.8252,6.2094,6.3726,6.4254,6.3744,6.2001,5.7172,5.3704,5.1931,4.6523,4.3281,4.2592,3.5308,0.0,0.0,0.0,0.0,0.0,0.0,0.0,0.0,0.0,0.0,0.0,0.0,0.0,0.0,0.0,0.0,0.0,0.0,0.0,0.0,3.1856,0.0,0.0,0.0,0.0,0.0,0.0,0.0,0.0,0.0,0.0,3.8319,4.0187,4.2583,4.5699,0.0,0.0,0.0,0.0,4.946,5.0793,4.9891,4.9527,5.0797,4.9893,4.8938,4.8533,0.0,0.0,4.7682,4.7977,4.8229,4.8245,4.8497,4.7399,4.2742,4.2072,4.2162,4.2203,4.283,4.3675,4.4523,4.5143,4.5797,4.9334,0.0,0.0,0.0,0.0,4.4844,4.6878,4.9357,4.9508,4.8554,4.6778,4.5372,0.0,0.0,0.0,0.0,0.0,0.0,4.7958,5.0637,5.4451,5.7072,5.8654,5.8428,5.8353,5.8315,5.6445,5.529,5.4662,5.1448,4.5853,3.8165,0.0,0.0,0.0,0.0,5.0469,5.553,6.0462,6.341,6.4341,6.4516,6.3117,6.0196,5.5649,5.2518,5.0993,4.762,4.4405,4.1397,3.8379,0.0,0.0,0.0,0.0,0.0,0.0,0.0,0.0,0.0,0.0,0.0,0.0,0.0,0.0,0.0,0.0,0.0,0.0,0.0,3.4127,3.411,3.3466,0.0,0.0,0.0,0.0,0.0,0.0,0.0,0.0,0.0,4.3197,4.4237,4.5297,0.0,0.0,4.862,4.9498,5.0251,5.0801,5.0929,5.1109,0.0,5.092,5.1107,5.1188,5.1113,5.1514,5.1573,5.0463,5.0883,5.1187,5.0572,5.0572,5.0169,4.8901,4.7622,4.7041,4.7273,4.7549,4.808,4.9138,4.9583,4.991,5.6972,5.1825,4.954,4.9088,4.9992,5.1071,5.277,5.4913,5.5103,5.416,5.2352,5.1415,4.8454,4.4062,4.3639,0.0,0.0,0.0,5.2352,5.5616,5.7575,5.9633,6.1542,6.1316,6.109,6.0939,6.001,5.9307,5.883,5.7072,5.298,4.6677,0.0,0.0,4.5552,4.9547,5.3738,5.8012,6.1627,6.3701,6.4302,6.3514,6.1377,5.7716,5.4452,5.1844,4.9898,4.752,4.5288,4.3092,4.0565,3.7234,0.0,0.0,0.0,0.0,0.0,0.0,0.0,0.0,0.0,0.0,0.0,2.4534,2.5187,0.0,0.0,0.0,3.1819,3.4507,3.736,3.6572,0.0,0.0,0.0,0.0,0.0,0.0,0.0,3.9922,4.2388,4.4695,4.6864,4.7691,4.8072,4.7955,4.8633,4.9456,5.018,0.0,5.1311,5.1547,5.1768,5.1833,5.1677,5.2062,5.2448,5.2626,5.3084,5.3142,5.2393,5.2773,5.3027,5.2548,5.2411,5.2411,5.2411,5.1601,5.0762,5.0586,5.0683,5.1172,5.2197,5.2528,5.293,6.3425,6.2019,5.7537,5.5778,5.6018,5.701,5.7763,5.8403,5.883,5.7826,5.5942,5.6784,5.4662,5.0268,4.9213,0.0,5.2829,5.4436,5.6858,5.9809,6.1391,6.2722,6.3726,6.3751,6.3199,6.2195,6.2119,6.1527,6.0563,5.9458,5.8365,5.7274,5.3337,5.118,5.103,5.3713,5.6725,5.995,6.2109,6.3387,6.3731,6.1734,5.8895,5.523,5.344,5.1305,4.8745,4.6727,4.5817,4.6095,4.2085,3.9135,3.7805,0.0,0.0,0.0,0.0,0.0,0.0,0.0,0.0,0.0,0.0,0.0,0.0,0.0,0.0,3.2113,3.4902,0.0,3.9778,3.9142,0.0,0.0,0.0,3.7889,3.8464,4.002,4.1769,4.366,0.0,0.0,4.9512,5.0455,5.0669,4.993,4.9738,5.0109,5.1328,5.123,5.1426,5.2589,5.2129,5.1943,5.2729,5.2945,5.3088,5.3421,5.3546,5.3566,5.3468,5.373,5.4043,5.3926,5.3953,5.3933,5.3953,5.3777,5.3602,5.2402,5.2539,5.3105,5.3887,5.4375,5.4785,6.6815,6.5735,6.4957,6.3023,6.0512,6.1125,6.1768,6.227,6.1969,6.1065,5.9784,5.9182,5.8001,5.6532,5.6244,5.6947,5.8428,5.9659,6.0889,6.2069,6.2898,6.3651,6.4295,6.432,6.417,6.3868,6.3023,6.2722,6.2797,6.1341,6.0491,6.0234,5.9636,5.787,5.5147,5.8168,6.0612,6.2295,6.402,6.4222,6.2836,6.0166,5.7647,5.5297,5.1432,4.879,4.7474,4.6609,4.5285,4.3497,4.3213,4.149,3.7903,3.3164,0.0,0.0,0.0,0.0,0.0,0.0,0.0,0.0,0.0,2.7672,2.8359,0.0,3.308,0.0,3.7137,3.9941,4.2142,4.1745,0.0,0.0,4.1278,4.2062,4.2213,4.4357,4.6157,4.6967,4.8717,5.0303,5.1365,5.1698,5.2002,5.2393,5.1875,5.1582,5.1894,5.2471,5.2901,5.3144,5.3301,5.3437,5.3636,5.4028,5.4199,5.4407,5.4609,5.4629,5.3984,5.4238,5.4414,5.4101,5.3972,5.3972,5.3972,5.3972,5.3894,5.3652,5.3926,5.4355,5.4902,5.5332,5.5762,6.8848,6.807,6.8145,6.6764,6.458,6.4655,6.4705,6.4731,6.4178,6.3299,6.222,6.0878,6.0124,5.9784,5.9823,6.0387,6.1426,6.2345,6.3174,6.3927,6.4254,6.468,6.5183,6.4957,6.4873,6.4806,6.3769,6.3519,6.3927,6.1621,6.0785,6.1401,6.0681,5.9247,5.7261,5.9952,6.1893,6.2817,6.2194,6.1028,5.9317,5.7313,5.4874,5.2047,4.9064,4.6475,4.4501,4.3976,4.2879,4.1132,4.2042,4.1133,3.7925,3.4851,3.1752,0.0,0.0,0.0,0.0,0.0,0.0,0.0,0.0,0.0,0.0,0.0,3.6456,3.7737,4.0132,4.2266,4.3837,4.3838,4.3719,4.3599,4.4615,4.5547,4.6108,4.749,4.8672,4.9544,5.0447,5.1484,5.2549,5.2656,5.2891,5.3574,5.3242,5.2949,5.2988,5.3379,5.373,5.3977,5.4004,5.3972,5.3972,5.4219,5.4394,5.4414,5.457,5.4629,5.4375,5.4512,5.4609,5.4375,5.4316,5.4258,5.4082,5.3972,5.3972,5.405,5.4531,5.5,5.5254,5.5488,5.582,7.0154,6.9582,6.908,6.8648,6.817,6.7543,6.6915,6.6287,6.581,6.5057,6.4028,6.2421,6.1692,6.1692,6.1758,6.227,6.3233,6.3852,6.4655,6.5584,6.5609,6.5835,6.6187,6.5692,6.5246,6.4908,6.3917,6.3601,6.3767,6.0761,5.9975,6.1085,5.9245,5.8207,5.8115,5.9886,6.128,6.2064,5.9026,5.6706,5.533,5.4127,5.1659,4.7963,4.6659,4.4541,4.1445,4.084,4.0177,3.9453,4.006,3.9786,3.832,3.6755,3.4693,0.0,2.9967,0.0,0.0,0.0,0.0,0.0,0.0,0.0,0.0,3.7869,3.9793,4.1782,4.3161,4.4291,4.5199,4.574,4.6331,4.7054,4.7667,4.8435,4.9519,4.9777,5.0391,5.1543,5.1738,5.2226,5.339,5.3527,5.3613,5.4004,5.4004,5.3855,5.3933,5.3933,5.4121,5.4551,5.4277,5.3972,5.3972,5.3992,5.4011,5.3992,5.4031,5.416,5.4512,5.4629,5.4668,5.4668,5.4648,5.4551,5.4128,5.4082,5.4011,5.4089,5.4707,5.5176,5.5312,5.5488,5.5723,7.1284,7.0782,7.0656,7.0556,7.038,6.9401,6.8396,6.7467,6.7367,6.6965,6.6305,6.5057,6.4505,6.4505,6.4505,6.4881,6.5509,6.6086,6.6714,6.7317,6.7317,6.7141,6.6815,6.6323,6.5016,6.3033,6.1935,6.0921,5.9884,5.8819,5.8616,5.9258,5.9215,5.9013,5.861,0.0,0.0,0.0,5.8341,5.6775,5.5287,5.266,5.0117,4.7859,4.5489,0.0,4.1797,4.1269,4.0801,4.0312,4.0391,0.0,0.0,0.0,0.0,0.0,0.0,0.0,0.0,0.0,0.0,0.0,3.949,3.98,3.8563,4.0737,4.2659,4.378,4.4758,4.5817,4.6959,4.7808,4.8332,4.8561,4.9515,5.031,5.0566,5.1465,5.2344,5.291,5.3301,5.375,5.4258,5.4121,5.4082,5.4433,5.4238,5.3992,5.3972,5.3972,5.4062,5.407,5.4082,5.3972,5.3972,5.3972,5.3972,5.3972,5.3972,5.4062,5.4199,5.4473,5.4668,5.4687,5.4687,5.4668,5.4551,5.4277,5.4089,5.4492,5.4707,5.4902,5.5234,5.5859,5.6406,7.1987,0.0,7.1485,7.1334,0.0,7.048,6.9777,6.8949,6.8145,6.7342,6.6538,6.6237,6.581,6.5333,6.5928,6.6262,6.6589,6.7417,6.7794,6.7819,6.7849,6.7416,6.6641,6.6135,6.4601,6.2182,6.1106,5.9856,5.8402,5.6503,5.5979,5.6902,5.6203,5.5828,5.5766,5.5033,5.4931,5.5503,5.4639,5.3499,5.2151,5.0184,4.8255,4.6478,4.464,0.0,0.0,0.0,0.0,0.0,0.0,0.0,0.0,3.957,0.0,3.8356,3.8223,3.8301,3.8611,4.0156,4.1582,4.2637,4.4101,4.4202,4.2426,4.4146,4.5707,4.6523,4.7207,4.793,4.8769,4.9433,4.9824,4.9863,5.0605,5.1191,5.1465,5.2187,5.2871,5.339,5.3996,5.4433,5.4648,5.4707,5.4648,5.4668,5.4492,5.4258,5.4011,5.3972,5.3972,5.3972,5.3972,5.3972,5.3972,5.3972,5.3972,5.3972,5.3972,5.407,5.4316,5.4531,5.4687,5.4687,5.4687,5.4687,5.4648,5.4336,5.4219,5.4805,5.5,5.5137,5.5527,5.6133,5.6582,7.2464,7.2062,7.2062,7.1786,7.1359,7.1259,7.0953,7.035,0.0,0.0,0.0,6.7091,6.6764,6.5961,6.6965,6.7467,6.7618,6.8308,6.8438,6.8113,6.7971,6.7146,6.5798,6.5262,6.3449,6.0678,5.9701,5.8455,5.6853,5.4075,5.331,5.4298,5.2964,5.2402,5.2793,5.2676,5.2207,5.1416,5.0957,5.0098,4.8933,4.7949,4.6719,4.5176,4.4199,4.3008,4.1562,4.1016,4.0625,4.0371,4.0684,4.0742,4.0508,4.1191,4.1387,4.0898,4.1933,4.293,4.3711,4.457,4.5586,4.6797,4.7598,4.7539,4.6372,4.731,4.8242,4.907,4.9433,4.9844,5.0351,5.0703,5.0976,5.1113,5.1445,5.1836,5.2246,5.2598,5.3008,5.3527,5.418,5.4648,5.457,5.4902,5.5039,5.4668,5.459,5.457,5.4219,5.4031,5.4062,5.4109,5.4121,5.3972,5.3972,5.3972,5.3972,5.3972,5.3972,5.4109,5.4473,5.4687,5.4785,5.4824,5.4805,5.4805,5.4765,5.4375,5.4284,5.5039,5.5273,5.543,5.5859,5.6348,5.668,7.2643,7.2568,7.2568,7.2517,7.2417,7.1987,7.1485,7.0878,6.9225,6.8628,6.8904,6.8572,6.8296,6.8196,6.8779,6.9351,6.9777,6.9024,6.8892,6.9215,6.8411,6.6507,6.3855,6.3329,6.0613,5.6264,5.5497,5.4242,5.2479,5.1918,5.1961,5.2473,5.259,5.2832,5.3214,5.2589,5.1914,5.1377,5.0664,4.9852,4.8913,4.7656,4.6562,4.5605,4.4394,4.3437,4.2872,4.207,4.1758,4.2011,4.2089,4.2305,4.2637,4.3086,4.3633,4.4235,4.5156,4.5879,4.6323,4.7187,4.8086,4.8938,4.9531,4.9461,4.8581,4.8926,4.9473,4.9941,5.0078,5.041,5.1133,5.1328,5.166,5.2285,5.248,5.2695,5.3136,5.3273,5.3437,5.3867,5.4355,5.4531,5.4297,5.4551,5.4687,5.4316,5.4492,5.4648,5.457,5.4277,5.4219,5.4433,5.4258,5.4011,5.3972,5.3972,5.3972,5.3972,5.3972,5.3992,5.4109,5.4668,5.5039,5.5176,5.5078,5.5117,5.5137,5.457,5.4375,5.4746,5.5098,5.543,5.5806,5.6523,5.6953,7.2693,7.2693,7.2693,7.2693,7.2643,7.2138,7.1937,7.1836,7.0531,6.9903,6.9853,6.9627,6.9501,6.9551,7.0079,7.048,7.0635,6.8742,6.7873,6.766,6.5637,6.3566,6.173,6.0919,5.8751,5.5535,5.4992,5.3757,5.1924,5.1777,5.1758,5.1758,5.2168,5.248,5.2617,5.2285,5.1758,5.1094,5.0488,4.9863,4.9219,4.8183,4.7324,4.6719,4.5859,4.5156,4.4554,4.4336,4.4219,4.4199,4.4414,4.4629,4.4824,4.5215,4.5742,4.6387,4.7207,4.7871,4.8275,4.8926,4.9453,4.9844,5.0058,5.0117,4.9941,5.0312,5.0644,5.0859,5.1269,5.1601,5.1797,5.2207,5.2558,5.2676,5.291,5.3195,5.339,5.3594,5.3808,5.4043,5.4609,5.4844,5.4433,5.4746,5.4863,5.4492,5.459,5.4765,5.4961,5.4668,5.4355,5.4316,5.416,5.3992,5.3972,5.3972,5.3972,5.3972,5.3972,5.3972,5.3972,5.4382,5.459,5.4558,5.4577,5.4726,5.4902,5.4473,5.4394,5.4883,5.5137,5.5469,5.5826,5.6445,5.6758,7.2693,7.2693,7.2693,7.2693,7.2643,7.2263,7.2339,7.2568,7.1592,7.0944,7.0694,7.0543,7.0493,7.0497,7.0416,7.0358,6.9981,6.744,6.5937,6.5276,6.2712,6.0748,5.9379,5.8603,5.7158,5.5229,5.4707,5.3757,5.2355,5.2226,5.2109,5.1894,5.2109,5.2266,5.2413,5.2168,5.1758,5.1094,5.0586,5.0058,4.9484,4.8848,4.8262,4.7734,4.7305,4.6758,4.6196,4.6328,4.6328,4.6196,4.6504,4.6738,4.6738,4.7129,4.7558,4.8027,4.8679,4.9199,4.9648,5.0078,5.0312,5.0379,5.041,5.0605,5.0937,5.1426,5.1631,5.168,5.2129,5.2441,5.251,5.296,5.3312,5.3047,5.3301,5.3566,5.3605,5.3828,5.3972,5.405,5.4707,5.498,5.4726,5.4902,5.5,5.4726,5.4746,5.4961,5.5195,5.5078,5.4785,5.4316,5.4101,5.4101,5.407,5.4031,5.3992,5.3972,5.3972,5.3972,5.4011,5.405,5.4199,5.4277,5.4187,5.4394,5.459,5.4336,5.4316,5.4785,5.5,5.5273,5.5631,5.5996,5.6387,7.2693,7.2693,7.2693,7.2693,7.2668,7.2618,7.2618,7.2545,7.1618,7.1454,7.1536,7.133,7.1034,7.0826,6.9117,6.8314,6.8024,6.4543,6.2932,6.2727,6.1193,5.9171,5.6961,5.6731,5.5393,5.3301,5.3054,5.2984,5.2706,5.2637,5.2812,5.3086,5.2832,5.2812,5.3136,5.2441,5.2031,5.1953,5.1152,5.0351,4.9523,4.9406,4.9004,4.8164,4.7754,4.75,4.7427,4.7051,4.7031,4.7402,4.7812,4.8027,4.8066,4.8483,4.8887,4.925,4.9433,4.9648,5.0098,5.0508,5.0762,5.0762,5.1094,5.1308,5.1406,5.2109,5.2402,5.2148,5.2109,5.2539,5.3125,5.3371,5.3516,5.3719,5.3816,5.3965,5.3894,5.3953,5.3972,5.3972,5.4453,5.459,5.4258,5.4492,5.4707,5.4759,5.498,5.5195,5.5293,5.5488,5.539,5.4746,5.4316,5.4238,5.4433,5.4277,5.405,5.3992,5.3972,5.3972,5.4031,5.4316,5.459,5.4355,5.4512,5.4531,5.4512,5.4336,5.4011,5.4297,5.459,5.4883,5.5254,5.5469,5.5762,7.2693,7.2693,7.2693,7.2693,7.2693,7.2693,7.2551,7.2217,7.1827,7.0923,6.9575,6.9043,6.972,7.1015,6.8872,6.7892,6.7576,6.283,6.0613,6.0348,5.7847,5.604,5.5105,5.4775,5.4214,5.3507,5.3223,5.3086,5.3047,5.2832,5.2812,5.291,5.2539,5.2558,5.2871,5.2129,5.1816,5.2051,5.1484,5.0879,5.0332,5.0039,4.9746,4.9375,4.8965,4.8594,4.8398,4.8398,4.8437,4.8444,4.9004,4.9375,4.9375,4.9597,4.9844,5.0254,5.0527,5.0675,5.0898,5.1094,5.1289,5.1543,5.1719,5.1816,5.1836,5.2363,5.2637,5.2558,5.291,5.3301,5.3429,5.3594,5.3848,5.3953,5.3972,5.3972,5.3972,5.3972,5.3972,5.3992,5.418,5.4238,5.4101,5.418,5.4394,5.4648,5.5039,5.5293,5.5312,5.5469,5.541,5.5078,5.4492,5.4277,5.4551,5.4316,5.4148,5.4297,5.418,5.3992,5.4011,5.4089,5.4297,5.4297,5.4265,5.4265,5.4258,5.4199,5.3972,5.405,5.4375,5.4805,5.5234,5.5312,5.5508,7.3044,7.2966,7.2743,7.2693,7.2693,7.2551,7.1931,7.1047,7.0831,6.921,6.6879,6.6305,6.7123,6.8502,6.6707,6.5688,6.5074,6.0612,5.8356,5.8069,5.5543,5.4316,5.418,5.3887,5.3828,5.3945,5.3691,5.3555,5.3516,5.3242,5.3066,5.3008,5.2637,5.2578,5.2773,5.2148,5.1933,5.2187,5.1836,5.1465,5.1133,5.0742,5.041,5.0176,4.9863,4.9512,4.9121,4.9492,4.9433,4.8952,4.9805,5.0293,5.0195,5.0391,5.0664,5.0957,5.1221,5.1397,5.1397,5.1397,5.1621,5.2012,5.209,5.2129,5.2305,5.2637,5.2871,5.2949,5.3691,5.4004,5.3672,5.3828,5.3953,5.3972,5.3972,5.3972,5.3972,5.3972,5.3972,5.3972,5.3992,5.3972,5.3972,5.3992,5.418,5.4453,5.4961,5.5234,5.5215,5.5312,5.5377,5.4967,5.4312,5.4299,5.4675,5.4531,5.4382,5.4267,5.4118,5.384,5.3653,5.3583,5.3736,5.368,5.3704,5.389,5.407,5.4011,5.3921,5.4031,5.4245,5.4538,5.4785,5.4922,5.4941,7.4046,7.3494,7.2919,7.2573,7.2621,7.2124,7.0734,6.87,6.7864,6.6156,6.4173,6.3513,6.3382,6.3361,6.1475,6.0334,5.999,5.7563,5.6261,5.6222,5.5515,5.5019,5.4668,5.4629,5.4433,5.416,5.405,5.4043,5.3953,5.3984,5.3965,5.3855,5.3457,5.3331,5.3312,5.2832,5.2637,5.2637,5.2266,5.2031,5.1953,5.1562,5.0976,5.0332,5.0176,4.9961,4.9629,4.9922,4.9813,4.8952,5.0098,5.0605,5.0332,5.0937,5.1367,5.1406,5.1377,5.1397,5.1397,5.1416,5.166,5.2031,5.2187,5.2285,5.2676,5.3086,5.3371,5.339,5.4101,5.4433,5.4121,5.4082,5.405,5.4031,5.4043,5.3972,5.4062,5.4011,5.3972,5.3972,5.3972,5.3972,5.3972,5.3972,5.3992,5.4187,5.4733,5.5052,5.4786,5.5266,5.5076,5.4265,5.3943,5.4124,5.4961,5.4468,5.4118,5.397,5.3686,5.3486,5.2914,5.2537,5.2845,5.3051,5.3185,5.339,5.3819,5.3921,5.3819,5.3839,5.389,5.4084,5.4169,5.4077,5.4167,7.3903,7.304,7.2491,7.1286,6.9672,6.9478,6.7965,6.5661,6.526,6.3666,6.1588,6.1144,6.0282,5.8909,5.8419,5.8803,5.9582,5.715,5.5937,5.5826,5.5508,5.5234,5.5098,5.5078,5.5019,5.4863,5.4844,5.4707,5.4453,5.4453,5.4297,5.3984,5.3594,5.3496,5.3613,5.3066,5.2832,5.3066,5.2695,5.2363,5.2109,5.1933,5.1562,5.0996,5.0723,5.0508,5.0351,5.0508,5.041,5.0117,5.082,5.1133,5.1055,5.1523,5.1855,5.1855,5.1836,5.1738,5.1504,5.165,5.2031,5.2441,5.2804,5.298,5.3164,5.3516,5.3789,5.3906,5.4316,5.4668,5.4805,5.4609,5.4453,5.4414,5.4199,5.416,5.4316,5.4199,5.3972,5.3972,5.3972,5.3972,5.3921,5.3972,5.387,5.3602,5.3996,5.4072,5.376,5.3919,5.3905,5.3448,5.3301,5.341,5.3681,5.3427,5.3145,5.3214,5.3058,5.2887,5.242,5.2279,5.2537,5.2588,5.2672,5.2775,5.3153,5.3153,5.3153,5.3153,5.3256,5.3461,5.3461,5.3666,5.3819,7.3907,7.2951,7.1682,6.9938,6.7916,6.7117,6.5295,6.2952,6.2646,6.1174,5.9172,5.8926,5.8099,5.6821,5.7031,5.7705,5.8613,5.7025,5.6294,5.6308,5.5918,5.5644,5.5527,5.5508,5.543,5.5312,5.5312,5.5156,5.4922,5.4883,5.4726,5.4433,5.4121,5.4062,5.4121,5.3633,5.3457,5.3496,5.3144,5.2773,5.25,5.2226,5.2031,5.1816,5.1426,5.1074,5.084,5.1074,5.0996,5.0762,5.1387,5.1787,5.1875,5.2129,5.2285,5.2285,5.2285,5.2168,5.1894,5.1992,5.2324,5.2851,5.3027,5.3223,5.3535,5.3867,5.3953,5.407,5.4414,5.4785,5.4844,5.4863,5.4883,5.4824,5.4512,5.4355,5.4609,5.4414,5.4097,5.3807,5.3717,5.3666,5.3512,5.3461,5.3307,5.2999,5.3293,5.3295,5.294,5.2931,5.2808,5.261,5.2501,5.2397,5.233,5.2072,5.2369,5.2468,5.2727,5.2411,5.1988,5.1969,5.2021,5.2073,5.2176,5.2227,5.233,5.2382,5.2382,5.2382,5.264,5.2948,5.3102,5.341,5.3512,7.4035,7.3009,7.0586,6.8657,6.7114,6.5199,6.3006,6.0782,6.0167,5.8865,5.7287,5.7207,5.7222,5.6777,5.7109,5.7139,5.7065,5.7026,5.7051,5.6992,5.666,5.6289,5.5904,5.5885,5.5762,5.5449,5.5371,5.5351,5.5312,5.5312,5.5273,5.5254,5.5117,5.4844,5.4668,5.4473,5.4336,5.3984,5.3555,5.339,5.3312,5.2628,5.2324,5.2539,5.2226,5.1699,5.0976,5.1641,5.1543,5.0723,5.1816,5.2656,5.2656,5.2715,5.2715,5.2754,5.2734,5.2715,5.2656,5.2363,5.2578,5.3105,5.3008,5.3223,5.3828,5.3953,5.3992,5.4109,5.4414,5.457,5.4414,5.4785,5.5195,5.5254,5.4902,5.4726,5.4765,5.4707,5.4305,5.3545,5.3314,5.2999,5.2588,5.2588,5.2537,5.249,5.2666,5.2747,5.2313,5.2411,5.2378,5.1842,5.1653,5.1679,5.1236,5.0814,5.1399,5.1865,5.2193,5.2155,5.1411,5.1192,5.133,5.1433,5.1537,5.1589,5.1814,5.1866,5.1969,5.2021,5.2227,5.2363,5.2518,5.2723,5.3051,7.2984,7.0644,6.9091,6.6395,6.3348,6.2146,6.0589,5.8746,5.8238,5.7637,5.7105,5.7148,5.7129,5.7148,5.7461,5.7578,5.7515,5.7305,5.7051,5.6816,5.666,5.6504,5.6406,5.6367,5.6308,5.6211,5.6191,5.6015,5.5781,5.5742,5.5605,5.5312,5.5039,5.4824,5.4687,5.4394,5.4089,5.3972,5.3906,5.3691,5.3449,5.3155,5.294,5.2715,5.2578,5.2363,5.2148,5.2383,5.2324,5.1894,5.2422,5.2851,5.3086,5.3214,5.3301,5.3484,5.332,5.3164,5.3195,5.3097,5.3077,5.339,5.3496,5.366,5.3933,5.3992,5.4128,5.4394,5.4609,5.4687,5.4883,5.4844,5.5039,5.5273,5.5195,5.5163,5.5233,5.4836,5.4298,5.3705,5.3317,5.2892,5.2528,5.2349,5.2176,5.1847,5.1927,5.1823,5.1404,5.146,5.1359,5.0985,5.1062,5.1188,5.0921,5.0835,5.1212,5.1458,5.1658,5.1769,5.1102,5.0725,5.081,5.0914,5.0966,5.107,5.1296,5.1344,5.1377,5.1466,5.1518,5.1673,5.1777,5.2105,5.2466,7.0932,6.7873,6.6517,6.4047,6.0855,5.9985,5.8766,5.7471,5.7109,5.707,5.7207,5.7383,5.7461,5.7539,5.791,5.8008,5.7832,5.7402,5.707,5.6816,5.664,5.6582,5.6582,5.6582,5.6582,5.6582,5.6582,5.6445,5.6191,5.6172,5.6055,5.5762,5.5508,5.5215,5.4941,5.4648,5.4343,5.405,5.3972,5.3887,5.3633,5.3488,5.3351,5.3183,5.3047,5.3125,5.3379,5.3437,5.3281,5.3066,5.3086,5.334,5.3594,5.3613,5.373,5.3887,5.3789,5.3613,5.3594,5.3437,5.3586,5.3808,5.3965,5.4148,5.4375,5.4394,5.4433,5.4629,5.4687,5.4707,5.4785,5.4909,5.4882,5.496,5.4927,5.5068,5.5148,5.46,5.3906,5.3391,5.2978,5.251,5.2114,5.1819,5.1678,5.1278,5.1226,5.1174,5.0758,5.0725,5.0725,5.0743,5.0887,5.0887,5.0798,5.0927,5.1094,5.1126,5.1034,5.1104,5.0817,5.0743,5.0758,5.0758,5.081,5.081,5.0966,5.0712,5.0638,5.0712,5.0963,5.0993,5.1181,5.1673,5.2054,6.817,6.517,6.3378,6.1878,6.0293,5.8767,5.7741,5.7007,5.6836,5.707,5.7383,5.7754,5.791,5.7988,5.8301,5.8242,5.7906,5.7422,5.7148,5.7031,5.6875,5.6758,5.6699,5.6621,5.6582,5.6582,5.6582,5.6562,5.6504,5.6523,5.6582,5.6465,5.6328,5.6113,5.5449,5.5312,5.4863,5.4265,5.4089,5.4101,5.3992,5.3652,5.3574,5.3875,5.3672,5.3859,5.4355,5.459,5.4316,5.3672,5.3906,5.4101,5.4121,5.405,5.4109,5.4226,5.4109,5.4128,5.4062,5.3906,5.3926,5.4531,5.4414,5.4414,5.5019,5.4883,5.4675,5.4681,5.4681,5.4493,5.4319,5.4472,5.4672,5.4432,5.4489,5.4522,5.4253,5.3973,5.3572,5.305,5.2435,5.1945,5.1577,5.123,5.1013,5.085,5.0869,5.0869,5.0706,5.0673,5.0673,5.0761,5.0798,5.078,5.0743,5.0982,5.1112,5.0929,5.0908,5.0927,5.0817,5.0743,5.0673,5.0673,5.0673,5.0673,5.0618,5.0453,5.0416,5.0667,5.0667,5.0468,5.0712,5.1222,5.1485,6.597,6.3318,6.2462,6.1087,5.9567,5.8622,5.8418,5.8437,5.8105,5.7969,5.8148,5.8301,5.834,5.8379,5.8402,5.8281,5.7871,5.7422,5.7012,5.6875,5.7398,5.7305,5.7031,5.6738,5.6621,5.6674,5.664,5.6582,5.6582,5.6582,5.6582,5.6562,5.6308,5.6055,5.5762,5.5469,5.5234,5.4941,5.4648,5.4512,5.4453,5.4101,5.3906,5.4023,5.4219,5.4485,5.4746,5.5293,5.5371,5.4863,5.4883,5.4961,5.4922,5.4922,5.5,5.5143,5.5045,5.5098,5.5182,5.498,5.4922,5.5078,5.5039,5.5078,5.5254,5.5215,5.4928,5.4615,5.4458,5.4378,5.4144,5.412,5.395,5.382,5.4298,5.4667,5.4509,5.424,5.3748,5.327,5.2729,5.2205,5.186,5.1642,5.1387,5.1202,5.1092,5.1037,5.0872,5.0725,5.0725,5.0725,5.0761,5.0743,5.0798,5.1037,5.1039,5.0856,5.0908,5.1018,5.0872,5.0725,5.0673,5.0673,5.0673,5.0673,5.0673,5.0599,5.0706,5.0706,5.0615,5.0505,5.0596,5.0914,5.0966,6.3556,6.1135,6.0872,6.0062,5.8942,5.8652,5.8574,5.8574,5.8379,5.8379,5.8441,5.848,5.8633,5.8789,5.8613,5.8343,5.8105,5.7676,5.7383,5.7305,5.7832,5.7969,5.7715,5.7344,5.7183,5.7144,5.6933,5.6855,5.6816,5.668,5.6601,5.6562,5.6348,5.608,5.5845,5.567,5.5488,5.5293,5.5058,5.4941,5.4922,5.4707,5.4609,5.4609,5.4824,5.5,5.5273,5.5859,5.6015,5.5664,5.5547,5.5488,5.5312,5.5312,5.543,5.5664,5.543,5.541,5.5566,5.5449,5.5508,5.5703,5.5703,5.5623,5.5639,5.547,5.4935,5.4407,5.4302,5.4276,5.42,5.41,5.3952,5.3946,5.4185,5.4311,5.4197,5.3816,5.356,5.3248,5.2829,5.2467,5.2192,5.201,5.1699,5.144,5.1275,5.1165,5.1037,5.0872,5.0798,5.0872,5.0817,5.0798,5.0798,5.0982,5.1094,5.0929,5.0817,5.0963,5.089,5.0673,5.0673,5.0673,5.0673,5.0743,5.078,5.078,5.0706,5.067,5.0615,5.0596,5.0651,5.0673,5.0673,6.1065,5.9199,5.918,5.8965,5.8672,5.8613,5.8476,5.816,5.8144,5.832,5.8574,5.8558,5.8828,5.916,5.8711,5.848,5.8421,5.8105,5.8086,5.8164,5.8457,5.8574,5.8613,5.8086,5.7812,5.775,5.7422,5.7265,5.7148,5.6855,5.668,5.664,5.6601,5.6406,5.6152,5.6015,5.5801,5.5586,5.543,5.5371,5.5351,5.5234,5.5137,5.5156,5.5293,5.5566,5.5918,5.6328,5.6367,5.6015,5.5996,5.584,5.5527,5.5469,5.5488,5.5605,5.5683,5.5683,5.5572,5.5695,5.5818,5.6363,5.612,5.6052,5.6106,5.5655,5.5023,5.4358,5.432,5.4326,5.413,5.433,5.4319,5.4082,5.3898,5.3567,5.3292,5.3146,5.3109,5.3091,5.2779,5.2632,5.2504,5.2212,5.1954,5.1843,5.1678,5.1587,5.144,5.1275,5.1202,5.1165,5.1055,5.0872,5.089,5.0945,5.1021,5.1021,5.0835,5.0817,5.0817,5.0673,5.0673,5.0673,5.0673,5.0817,5.0963,5.0908,5.0817,5.0761,5.078,5.0688,5.0633,5.0688,5.0673,5.9607,5.9199,5.9199,5.9121,5.9043,5.9043,5.8965,5.8867,5.8887,5.8887,5.9023,5.9043,5.9082,5.916,5.875,5.848,5.848,5.8437,5.8711,5.9336,5.9101,5.9258,5.9277,5.875,5.8223,5.7969,5.7847,5.7558,5.7344,5.7441,5.73,5.6738,5.6914,5.6875,5.6504,5.6406,5.6426,5.625,5.5976,5.5801,5.5742,5.5508,5.539,5.541,5.5592,5.6015,5.6348,5.6523,5.6543,5.6465,5.6445,5.6314,5.6289,5.6269,5.6289,5.6314,5.6548,5.6704,5.6728,5.6561,5.6692,5.6754,5.6369,5.6101,5.6105,5.5955,5.5379,5.4829,5.4777,5.4575,5.4116,5.4192,5.4247,5.4081,5.3879,5.3714,5.3549,5.3274,5.3127,5.3091,5.3035,5.298,5.2962,5.2834,5.2559,5.232,5.2155,5.2028,5.1845,5.1625,5.1605,5.155,5.1458,5.1312,5.1183,5.1257,5.1351,5.1277,5.1037,5.0835,5.0835,5.0743,5.0743,5.0743,5.0673,5.0908,5.1257,5.122,5.1183,5.1073,5.0963,5.089,5.0853,5.0817,5.0798,5.9414,5.9726,5.9355,5.9297,5.9433,5.9258,5.9199,5.9199,5.9199,5.9199,5.9199,5.9199,5.9199,5.916,5.875,5.848,5.848,5.848,5.8694,5.918,5.9277,5.9375,5.9258,5.918,5.8906,5.8515,5.8262,5.8125,5.8144,5.793,5.7734,5.7461,5.7344,5.7109,5.6855,5.6719,5.6582,5.6523,5.6367,5.625,5.6172,5.6035,5.5898,5.5918,5.6133,5.6367,5.6543,5.6582,5.6582,5.6587,5.6489,5.6606,5.6821,5.6894,5.6865,5.6828,5.6964,5.6921,5.6725,5.6621,5.6647,5.6821,5.6392,5.6135,5.5913,5.5783,5.53,5.4727,5.4617,5.4542,5.4301,5.4429,5.4447,5.4538,5.4337,5.4245,5.4117,5.3604,5.3109,5.3109,5.3091,5.2962,5.2925,5.2925,5.2669,5.221,5.21,5.1992,5.2157,5.1973,5.1937,5.1882,5.1845,5.1735,5.1605,5.1642,5.179,5.1607,5.1348,5.1165,5.1073,5.0945,5.0798,5.0817,5.089,5.1385,5.166,5.1605,5.1532,5.1477,5.1385,5.122,5.1055,5.089,5.0945,5.9629,6.0273,5.9492,5.9394,5.9629,5.9336,5.9199,5.9199,5.9199,5.9199,5.9199,5.9199,5.9199,5.9101,5.873,5.8555,5.8672,5.8733,5.8929,5.9062,5.9512,5.9355,5.9082,5.9238,5.9375,5.916,5.8808,5.8769,5.8594,5.8437,5.8183,5.8242,5.7812,5.748,5.7265,5.7012,5.6894,5.6914,5.6894,5.6758,5.6699,5.664,5.6621,5.6621,5.6523,5.6601,5.6626,5.6553,5.646,5.6538,5.6329,5.6541,5.6948,5.7018,5.7007,5.6827,5.6884,5.6741,5.6448,5.6321,5.6362,5.6646,5.6214,5.5935,5.5712,5.5507,5.5098,5.4652,5.4485,5.454,5.4795,5.4869,5.5034,5.5143,5.4996,5.4943,5.4741,5.3934,5.3476,5.3237,5.3164,5.3017,5.2815,5.2651,5.2358,5.2174,5.2082,5.21,5.2248,5.2358,5.2322,5.2303,5.2285,5.1334,5.0974,5.0188,5.0616,5.0097,5.0153,5.024,5.0238,5.0167,4.9954,5.0916,5.1238,5.1642,5.1935,5.1935,5.1845,5.1827,5.1662,5.1495,5.1238,5.0982,5.1021,5.9473,5.9883,5.9394,5.9238,5.9277,5.9219,5.9199,5.9199,5.9199,5.9199,5.9199,5.9199,5.9199,5.9082,5.873,5.873,5.9023,5.9219,5.9433,5.9453,5.9687,5.9414,5.918,5.9219,5.9258,5.9199,5.9043,5.8789,5.8574,5.8594,5.8594,5.8203,5.8164,5.8086,5.7812,5.7656,5.7574,5.748,5.7554,5.7383,5.7168,5.7109,5.7109,5.707,5.6821,5.6767,5.6811,5.6313,5.5986,5.626,5.5886,5.6141,5.6503,5.6446,5.6353,5.6505,5.666,5.6719,5.6571,5.6479,5.6478,5.6402,5.6026,5.5706,5.5553,5.5516,5.5258,5.4907,5.4575,5.4502,5.4888,5.4998,5.4961,5.5016,5.4996,5.4979,5.4851,5.4411,5.3952,5.3751,5.3439,5.3035,5.2743,5.2596,5.2522,5.2412,5.2322,5.2485,5.2742,5.2797,5.2779,5.2779,5.2779,5.1419,5.0177,4.9096,4.8475,4.7351,4.726,4.7579,4.7815,4.8473,4.9012,4.9902,5.0925,5.1605,5.1862,5.212,5.2028,5.1954,5.1825,5.1662,5.1373,5.1085,5.0957,5.9551,6.0058,5.9453,5.9316,5.9453,5.9277,5.9199,5.9199,5.9199,5.9199,5.9199,5.9199,5.9199,5.9121,5.8984,5.9004,5.9199,5.9355,5.9473,5.9492,5.9473,5.9394,5.9199,5.9199,5.9023,5.8984,5.9004,5.9121,5.8887,5.9043,5.9043,5.8926,5.873,5.8418,5.8203,5.7949,5.7965,5.7945,5.7926,5.7847,5.7558,5.7539,5.7539,5.7426,5.7092,5.6948,5.6878,5.635,5.6039,5.6084,5.5853,5.5896,5.6047,5.6067,5.6048,5.6516,5.6779,5.6853,5.6738,5.6506,5.6375,5.6318,5.6031,5.575,5.5619,5.5658,5.564,5.5308,5.5401,5.5346,5.5585,5.5383,5.5365,5.5475,5.5383,5.5198,5.507,5.4648,5.441,5.4209,5.3842,5.3347,5.2688,5.265,5.265,5.2632,5.2596,5.2852,5.3127,5.2782,5.2527,5.1872,5.1454,4.9696,4.8289,4.7313,4.6212,4.5083,4.4534,4.4947,4.59,4.6779,4.7792,4.884,4.9903,5.0866,5.2158,5.2561,5.2268,5.185,5.1654,5.1422,5.1312,5.122,5.0561,5.9746,6.0314,5.9531,5.9375,5.9609,5.9433,5.9277,5.9219,5.9394,5.9355,5.9199,5.9277,5.9277,5.9199,5.918,5.918,5.9199,5.9199,5.9219,5.9219,5.9238,5.9199,5.9199,5.914,5.9043,5.8906,5.9023,5.9297,5.9219,5.9238,5.9394,5.9277,5.8887,5.8672,5.8594,5.8398,5.8219,5.818,5.8125,5.816,5.8008,5.7855,5.7765,5.773,5.7217,5.6848,5.7023,5.6337,5.6098,5.6064,5.5992,5.5859,5.5784,5.5684,5.6033,5.673,5.69,5.6835,5.6752,5.6581,5.6397,5.6397,5.6247,5.5988,5.5823,5.5823,5.5841,5.5637,5.586,5.6101,5.6064,5.5933,5.597,5.6061,5.5915,5.5676,5.5621,5.5383,5.5034,5.4703,5.43,5.386,5.3366,5.3018,5.3164,5.3256,5.3219,5.3091,5.3201,5.2104,5.1592,5.0607,4.9471,4.7565,4.619,4.5197,4.403,4.2837,4.2492,4.2674,4.4045,4.5398,4.6331,4.716,4.8526,4.961,5.1254,5.1744,5.0187,4.9578,5.0628,5.0485,4.9172,4.8583,4.8104,6.0019,6.0314,5.9531,5.9219,5.9316,5.9551,5.9492,5.9277,5.9883,5.9844,5.9219,5.9512,5.9473,5.9258,5.9199,5.9199,5.9199,5.9199,5.9199,5.9199,5.9199,5.9199,5.9199,5.9199,5.916,5.9023,5.9121,5.8945,5.8984,5.9121,5.9199,5.9219,5.9199,5.9082,5.9004,5.8887,5.9043,5.9004,5.8984,5.8753,5.8291,5.7575,5.7448,5.7323,5.6878,5.6584,5.6946,5.6347,5.6048,5.6234,5.6207,5.5976,5.5678,5.5917,5.6119,5.625,5.6305,5.6434,5.6761,5.678,5.6743,5.6688,5.6504,5.6247,5.6153,5.5951,5.5802,5.5546,5.597,5.6302,5.6431,5.6504,5.6633,5.6541,5.6302,5.6302,5.6302,5.5713,5.542,5.5511,5.5199,5.4796,5.4338,5.3989,5.3677,5.3769,5.3805,5.3622,5.3127,5.2058,4.9491,4.8092,4.7209,4.5463,4.3694,4.2753,4.213,4.0843,4.0731,4.0775,4.1963,4.3265,4.4212,4.5241,4.6516,4.7439,4.8305,4.8122,4.6962,4.719,4.8192,4.7374,4.5971,4.5676,4.5723,6.0273,6.0314,5.9531,5.9199,5.9219,5.9394,5.9355,5.9297,5.9551,5.9531,5.9258,5.9355,5.9336,5.9199,5.9199,5.9199,5.9199,5.9199,5.9199,5.9199,5.9199,5.9199,5.9199,5.9199,5.9199,5.9199,5.918,5.914,5.9004,5.9043,5.9199,5.9199,5.9199,5.916,5.9219,5.9199,5.918,5.9104,5.8805,5.8392,5.7902,5.7506,5.7281,5.7415,5.6665,5.6591,5.6572,5.6417,5.5946,5.6092,5.6231,5.6358,5.6025,5.608,5.6302,5.6559,5.6559,5.6761,5.7092,5.7147,5.7165,5.7147,5.7,5.6945,5.6872,5.6648,5.6391,5.6263,5.663,5.6853,5.6798,5.6835,5.6798,5.6688,5.6449,5.6413,5.6394,5.6006,5.5713,5.5896,5.5852,5.5032,5.4312,5.373,5.3426,5.3726,5.3651,5.3505,5.2894,5.1947,4.8669,4.4834,4.4088,4.3256,4.1475,4.0101,4.0329,3.9535,3.9398,3.9548,3.9977,4.0988,4.2154,4.292,4.3757,4.4587,4.5215,4.5598,4.5453,4.5574,4.5694,4.499,4.4316,4.3742,4.384,6.0273,6.0215,5.9609,5.9277,5.9199,5.9297,5.9297,5.9199,5.9473,5.9394,5.9219,5.9199,5.9199,5.9199,5.9199,5.9199,5.9199,5.9199,5.9199,5.9199,5.9199,5.9199,5.9199,5.9199,5.9199,5.9199,5.9199,5.916,5.9199,5.9277,5.9336,5.9219,5.9355,5.9277,5.9277,5.9228,5.9271,5.8969,5.8496,5.8061,5.7665,5.7288,5.7174,5.6967,5.6646,5.6286,5.6378,5.6425,5.6156,5.6174,5.6725,5.6927,5.6504,5.6559,5.6725,5.6927,5.6963,5.7165,5.7441,5.7587,5.7528,5.7492,5.7382,5.7198,5.7147,5.7275,5.7184,5.6725,5.7052,5.7217,5.7198,5.7018,5.6982,5.6743,5.6449,5.6376,5.6032,5.5096,5.444,5.4291,5.424,5.4281,5.3607,5.3137,5.311,5.354,5.3507,5.3189,5.1783,5.0261,4.7026,4.2716,4.2004,4.1569,4.0483,3.9071,3.8856,3.8691,3.8557,3.865,3.9253,3.977,4.0659,4.1188,4.156,4.1532,4.2102,4.3171,4.4053,4.31,4.2573,4.3303,4.3063,4.2336,4.1949,5.9863,5.9844,5.9785,5.9512,5.9199,5.9609,5.9531,5.9258,5.9961,5.9785,5.9219,5.9199,5.9199,5.9199,5.9199,5.9199,5.9199,5.9199,5.9199,5.9199,5.9199,5.9199,5.9199,5.9199,5.9199,5.9199,5.9258,5.9277,5.9316,5.9648,5.9492,5.9277,5.946,5.9436,5.9325,5.9259,5.8978,5.8654,5.8197,5.8007,5.7551,5.7097,5.6646,5.6457,5.6002,5.577,5.6213,5.6541,5.6688,5.6615,5.7312,5.7441,5.6963,5.7037,5.7202,5.7257,5.7235,5.7459,5.7639,5.7863,5.7895,5.7804,5.7679,5.7404,5.722,5.6982,5.6853,5.6847,5.6882,5.6728,5.6832,5.6916,5.5783,5.5328,5.4686,5.4638,5.4188,5.3434,5.2844,5.2591,5.2524,5.2515,5.2362,5.1754,5.2319,5.2735,5.1532,5.1095,4.7864,4.6009,4.3841,4.1142,4.0447,4.002,3.9993,3.9386,3.9212,3.9105,3.8998,3.8878,3.8972,3.9423,3.9955,3.9812,4.0157,3.9553,3.928,4.0766,4.1243,3.9801,3.957,4.1068,4.1498,4.0939,4.0477,5.9805,5.9805,5.9805,5.957,5.9199,5.9355,5.9336,5.9238,5.9531,5.9512,5.9199,5.9199,5.9199,5.9199,5.9199,5.9199,5.9199,5.9199,5.9199,5.9199,5.9199,5.9199,5.9199,5.9199,5.9199,5.9258,5.9414,5.957,5.9629,5.9943,5.9757,5.9604,5.9568,5.9529,5.9378,5.9035,5.8632,5.819,5.7904,5.7676,5.714,5.6728,5.6334,5.6259,5.6162,5.5988,5.6284,5.6872,5.6945,5.7092,5.7643,5.7551,5.7312,5.7422,5.7418,5.7437,5.7455,5.7528,5.7694,5.79,5.7969,5.801,5.7863,5.7679,5.7441,5.7514,5.7551,5.7138,5.5911,5.5306,5.506,5.3589,5.2101,5.2224,5.2447,5.2549,5.2176,5.1349,5.0822,5.0478,5.0569,5.067,5.05,5.0266,5.1091,5.1845,5.0336,4.8479,4.547,4.3335,4.1853,4.0775,4.0105,3.9786,3.9746,3.9666,3.9573,3.9493,3.9367,3.9292,3.9159,3.9338,3.9672,3.9324,3.9185,3.9249,3.9308,3.9257,3.9118,3.8905,3.9038,3.9672,3.9683,3.968,3.9786,5.9629,5.9629,5.9629,5.9531,5.9355,5.9238,5.9258,5.9336,5.9258,5.9199,5.9199,5.9199,5.9199,5.9199,5.9199,5.9199,5.9199,5.9199,5.9199,5.9199,5.9199,5.9199,5.9219,5.9316,5.9433,5.9473,5.9709,5.9943,5.9679,6.0067,5.9859,5.9533,5.9341,5.9264,5.9093,5.8726,5.826,5.7888,5.7602,5.7467,5.7003,5.6615,5.6394,5.6394,5.6394,5.6413,5.6596,5.696,5.7162,5.7312,5.7587,5.7808,5.7716,5.7624,5.762,5.7657,5.7639,5.7602,5.7767,5.7822,5.7987,5.795,5.795,5.7859,5.784,5.7818,5.7626,5.6119,5.4564,5.334,5.3017,5.1155,5.0246,5.0566,5.0381,5.0403,4.9759,4.9101,4.8685,4.8292,4.8187,4.7684,4.8633,4.8402,4.8429,4.8547,4.6479,4.5188,4.3809,4.2235,4.1837,4.087,4.0234,4.0054,3.992,3.996,3.9974,3.9786,3.9706,3.9626,3.9573,3.9653,3.9626,3.9479,3.9426,3.9452,3.9479,3.9519,3.9279,3.8972,3.9279,3.9666,3.9786,3.9947,4.0094,5.9219,5.9199,5.9219,5.9433,5.9687,5.9336,5.9375,5.959,5.9336,5.9199,5.9199,5.9199,5.9199,5.9199,5.9199,5.9199,5.9199,5.9199,5.9199,5.9199,5.9199,5.9199,5.9336,5.9492,5.9668,5.9883,6.0005,5.9953,5.9629,5.9918,5.9743,5.9332,5.9015,5.8823,5.863,5.8389,5.8195,5.7981,5.761,5.7459,5.733,5.7018,5.6835,5.6798,5.6798,5.6798,5.7055,5.7327,5.7565,5.773,5.795,5.8097,5.7987,5.795,5.8079,5.828,5.8101,5.8115,5.8427,5.8212,5.8065,5.7969,5.7969,5.768,5.7443,5.7261,5.6334,5.4207,5.2942,5.1853,5.0707,4.9238,4.8549,4.8184,4.7925,4.7528,4.6904,4.6596,4.6143,4.5966,4.4797,4.4137,4.5686,4.6499,4.6079,4.5042,4.2728,4.165,4.1542,4.1419,4.1311,4.0993,4.0388,4.0348,4.0267,4.0388,4.0361,4.0147,4.0,3.9947,3.9867,3.9853,3.9786,3.968,3.972,3.98,3.98,3.9813,3.9613,3.9479,3.968,3.996,4.008,4.0174,4.0294,5.9199,5.9199,5.9199,5.9433,5.9726,5.9355,5.9277,5.9355,5.9258,5.9199,5.9199,5.9199,5.9199,5.9199,5.9199,5.9199,5.9199,5.9199,5.9199,5.9199,5.9219,5.9199,5.9336,5.9648,5.9807,5.9849,6.0067,6.0149,5.9937,5.9914,5.952,5.9101,5.8737,5.8499,5.8322,5.8085,5.8037,5.7973,5.7881,5.7826,5.7771,5.7441,5.7162,5.7162,5.722,5.733,5.7532,5.7822,5.8079,5.828,5.8519,5.8482,5.8354,5.8299,5.8262,5.8262,5.7987,5.8083,5.8212,5.8065,5.7987,5.779,5.7635,5.6847,5.5605,5.5298,5.3742,5.166,5.0122,4.8849,4.7733,4.5486,4.454,4.4445,4.4277,4.3969,4.3539,4.3595,4.3447,4.3516,4.2834,4.2971,4.4054,4.4811,4.4523,4.3984,4.2158,4.1484,4.1323,4.114,4.1019,4.0898,4.0561,4.0561,4.0575,4.0561,4.0521,4.0334,4.0281,4.0308,4.0214,4.008,4.012,4.0094,4.012,4.0147,4.0067,4.0027,4.0067,4.0094,4.0161,4.0201,4.0281,4.0348,4.0401,5.9199,5.9199,5.9199,5.9336,5.9531,5.9297,5.9199,5.9199,5.9199,5.9199,5.9199,5.9199,5.9199,5.9199,5.9199,5.9199,5.9199,5.9199,5.9199,5.9219,5.9355,5.9414,5.959,5.9885,6.0141,6.0106,6.0091,6.0186,5.9602,5.9516,5.9192,5.8826,5.8519,5.8404,5.8235,5.829,5.8248,5.823,5.806,5.7932,5.7918,5.7789,5.7583,5.7583,5.7602,5.7694,5.801,5.8303,5.8482,5.8739,5.8776,5.8684,5.8482,5.8354,5.8244,5.8042,5.7969,5.7534,5.6818,5.6441,5.5866,5.4827,5.5986,5.5196,5.3181,5.2576,5.1007,4.8971,4.6979,4.603,4.5148,4.2782,4.2605,4.2626,4.2519,4.24,4.2252,4.2413,4.2538,4.2428,4.2629,4.2736,4.275,4.2837,4.3098,4.2521,4.1897,4.155,4.1203,4.1069,4.0935,4.0802,4.0655,4.0588,4.0575,4.0588,4.0535,4.0481,4.0481,4.0468,4.0454,4.0308,4.0414,4.0481,4.0374,4.0294,4.0241,4.0227,4.0281,4.0348,4.0428,4.0468,4.0481,4.0521,4.0561,5.9199,5.9199,5.9199,5.9199,5.9199,5.9199,5.9199,5.9199,5.9199,5.9199,5.9199,5.9199,5.9199,5.9199,5.9199,5.9199,5.9199,5.9199,5.9238,5.9336,5.957,5.9707,6.0002,6.0432,6.034,6.0323,6.0223,5.9751,5.8999,5.8899,5.8748,5.8593,5.8382,5.8372,5.856,5.8579,5.8445,5.8262,5.8157,5.7987,5.7932,5.7932,5.7859,5.7859,5.7877,5.7991,5.8157,5.8244,5.8244,5.828,5.8285,5.8193,5.806,5.7946,5.7927,5.7552,5.7236,5.5757,5.4405,5.3965,5.2554,5.1442,5.2311,5.1566,5.0589,4.9723,4.8387,4.6874,4.5207,4.4236,4.3175,4.279,4.2469,4.2432,4.2418,4.2268,4.2081,4.2174,4.2402,4.2539,4.2819,4.2899,4.2803,4.2672,4.2565,4.2325,4.2058,4.1964,4.163,4.1248,4.1163,4.0976,4.0802,4.0575,4.0575,4.0655,4.0561,4.0521,4.0481,4.0481,4.0481,4.0481,4.0481,4.0481,4.0481,4.0441,4.0361,4.0401,4.0495,4.0575,4.0695,4.0682,4.0695,4.0708,4.0748,5.9199,5.9199,5.9199,5.9199,5.9199,5.9199,5.9199,5.9199,5.9199,5.9199,5.9199,5.9199,5.9199,5.9199,5.9199,5.9199,5.9199,5.9238,5.9414,5.959,5.9765,6.0,6.018,6.0379,6.0265,5.9992,5.9715,5.9372,5.8899,5.8562,5.8468,5.8505,5.8354,5.8592,5.872,5.872,5.8445,5.8207,5.8083,5.7987,5.7969,5.7969,5.7969,5.7969,5.7969,5.812,5.8322,5.8537,5.8629,5.86,5.899,5.9051,5.8409,5.6653,5.5114,5.2621,5.2355,5.2042,5.1385,5.1197,5.0095,4.8015,4.8263,4.8062,4.7383,4.6872,4.5984,4.4736,4.3915,4.318,4.2988,4.2797,4.2579,4.2579,4.2499,4.2258,4.2084,4.2084,4.2298,4.2525,4.2819,4.2846,4.2763,4.2632,4.2512,4.2325,4.2178,4.2098,4.1964,4.1541,4.1368,4.1229,4.1002,4.0788,4.0762,4.0815,4.0668,4.0548,4.0548,4.0535,4.0535,4.0535,4.0495,4.0481,4.0481,4.0481,4.0468,4.0548,4.0682,4.0855,4.0962,4.0935,4.0909,4.0935,4.1016,5.9199,5.9199,5.9199,5.9199,5.9199,5.9199,5.9199,5.9199,5.9199,5.9199,5.9199,5.9199,5.9199,5.9199,5.9199,5.9199,5.9199,5.9199,5.9297,5.9473,5.9826,5.9948,6.0069,6.0168,6.0069,5.9677,5.9184,5.8859,5.8562,5.8303,5.823,5.8519,5.8464,5.861,5.8702,5.85,5.8225,5.806,5.7969,5.7969,5.7969,5.7969,5.7969,5.7969,5.7969,5.8014,5.8197,5.8545,5.8141,5.7398,5.7441,5.6672,5.5555,5.3404,5.2515,5.0556,5.0575,4.993,4.8958,4.8572,4.7023,4.5495,4.4696,4.4619,4.4682,4.4417,4.3691,4.2823,4.2719,4.2562,4.2696,4.2816,4.2779,4.2819,4.2552,4.2285,4.2178,4.2084,4.2245,4.2458,4.2592,4.2646,4.2619,4.2552,4.2392,4.2138,4.1951,4.1857,4.1817,4.167,4.159,4.1523,4.1269,4.1042,4.1016,4.0949,4.0842,4.0735,4.0722,4.0695,4.0642,4.0628,4.0642,4.0561,4.0481,4.0495,4.0508,4.0722,4.0882,4.1056,4.1256,4.135,4.1296,4.1229,4.1323,5.9199,5.9199,5.9199,5.9199,5.9199,5.9199,5.9199,5.9199,5.9199,5.9199,5.9199,5.9199,5.9199,5.9199,5.9199,5.9199,5.9199,5.9199,5.9277,5.9277,5.9656,5.9817,5.9879,6.007,5.9466,5.9007,5.8703,5.8503,5.8147,5.8005,5.817,5.8537,5.8207,5.828,5.8574,5.8262,5.8042,5.8005,5.7969,5.7969,5.7969,5.7969,5.7969,5.7909,5.7653,5.7451,5.7391,5.7033,5.6279,5.4621,5.3505,5.2643,5.0972,5.0115,4.9776,4.8942,4.837,4.7486,4.6336,4.587,4.4744,4.3327,4.2218,4.2661,4.2963,4.3121,4.2719,4.2569,4.2562,4.2686,4.2833,4.283,4.2803,4.2672,4.2472,4.2218,4.2058,4.2004,4.2071,4.2285,4.2432,4.2485,4.2418,4.2352,4.2258,4.1951,4.1804,4.1724,4.159,4.1577,4.159,4.163,4.1336,4.1082,4.1109,4.1056,4.1016,4.0949,4.0922,4.0935,4.0935,4.0882,4.0802,4.0695,4.0575,4.0548,4.0601,4.0842,4.1082,4.1243,4.1456,4.1724,4.1724,4.159,4.1644,5.9199,5.9199,5.9199,5.9199,5.9199,5.9199,5.9199,5.9199,5.9199,5.9199,5.9199,5.9199,5.9199,5.9199,5.9199,5.9199,5.9199,5.9199,5.9375,5.9306,5.9564,5.9397,5.9265,5.9105,5.8635,5.8265,5.8059,5.8169,5.8028,5.8024,5.8212,5.8482,5.8189,5.817,5.8482,5.8152,5.8042,5.8042,5.8042,5.8042,5.8024,5.7987,5.7969,5.7277,5.6662,5.5248,5.4655,5.337,5.2355,5.1172,5.1383,4.9917,4.7426,4.7387,4.6247,4.4718,4.4852,4.446,4.4075,4.367,4.3067,4.2724,4.2231,4.2218,4.2348,4.2445,4.2602,4.2565,4.2672,4.2859,4.2926,4.2843,4.2723,4.2539,4.2365,4.2138,4.1924,4.1924,4.1924,4.2084,4.2258,4.2271,4.2218,4.2138,4.2044,4.1937,4.1844,4.171,4.147,4.1376,4.1403,4.139,4.1203,4.1042,4.1109,4.1114,4.1136,4.1136,4.1122,4.1101,4.1141,4.1082,4.0949,4.0802,4.0695,4.0722,4.0842,4.1069,4.1283,4.1443,4.1684,4.1951,4.2044,4.1951,4.2018,5.9199,5.9199,5.9199,5.9199,5.9199,5.9199,5.9199,5.9199,5.9199,5.9199,5.9199,5.9199,5.9199,5.9199,5.9199,5.9199,5.9199,5.9199,5.9053,5.8986,5.907,5.8806,5.8556,5.8239,5.7928,5.7578,5.7694,5.7789,5.7932,5.7987,5.8115,5.8299,5.8138,5.8157,5.8354,5.8207,5.8267,5.8244,5.8207,5.8207,5.8152,5.8019,5.7116,5.6184,5.4887,5.3481,5.2101,5.0856,4.9807,4.8262,4.7437,4.6328,4.4676,4.4509,4.3843,4.2981,4.2628,4.2392,4.2298,4.2285,4.2312,4.2271,4.2365,4.2418,4.2271,4.2405,4.2472,4.2512,4.2806,4.302,4.2846,4.2763,4.2736,4.2592,4.2218,4.1884,4.1777,4.1737,4.179,4.1911,4.2044,4.2111,4.2058,4.2004,4.1884,4.1697,4.163,4.1456,4.1256,4.1208,4.1208,4.1283,4.1176,4.1136,4.1168,4.1221,4.1221,4.1234,4.1234,4.1181,4.1154,4.1163,4.1082,4.1002,4.0962,4.1016,4.1163,4.1336,4.1497,4.1644,4.1897,4.2178,4.2218,4.2218,4.2205,5.9023,5.9101,5.9082,5.914,5.918,5.9199,5.9199,5.9199,5.9199,5.9199,5.9199,5.9199,5.9199,5.9199,5.9199,5.9199,5.9143,5.8956,5.8714,5.8607,5.8729,5.8121,5.7737,5.7553,5.7297,5.7267,5.7367,5.7657,5.7969,5.7987,5.7987,5.8005,5.8042,5.806,5.8152,5.8377,5.8482,5.8409,5.839,5.8464,5.8294,5.7794,5.6117,5.4707,5.3178,5.1824,5.0279,4.8803,4.7659,4.6244,4.4173,4.3418,4.299,4.2877,4.2751,4.2245,4.2245,4.2258,4.2258,4.2378,4.2338,4.2352,4.2525,4.2512,4.2338,4.2365,4.2418,4.2579,4.2873,4.2993,4.2883,4.2605,4.2605,4.2629,4.2124,4.175,4.1697,4.1617,4.167,4.1764,4.1857,4.1951,4.1924,4.1884,4.1777,4.1563,4.1363,4.1109,4.1002,4.1189,4.1221,4.1376,4.1416,4.1403,4.1354,4.1368,4.1456,4.1403,4.139,4.1296,4.1168,4.1154,4.1181,4.1208,4.1208,4.1269,4.139,4.1563,4.171,4.1844,4.2018,4.2218,4.2218,4.2218,4.2218,5.832,5.8652,5.8652,5.8848,5.916,5.918,5.9199,5.9199,5.9199,5.9199,5.9199,5.9199,5.9199,5.9199,5.9199,5.9143,5.9012,5.8732,5.8507,5.8379,5.7798,5.7136,5.6773,5.6817,5.6991,5.711,5.7308,5.7661,5.795,5.8005,5.8134,5.8354,5.8487,5.8427,5.8427,5.8537,5.8555,5.8422,5.814,5.8074,5.7147,5.6248,5.4802,5.2615,4.9865,4.8201,4.6541,4.4759,4.3705,4.29,4.2597,4.2308,4.2218,4.2218,4.2218,4.2218,4.2218,4.2218,4.2271,4.2365,4.2325,4.2271,4.2378,4.2378,4.2338,4.2432,4.2499,4.2643,4.2897,4.3033,4.2886,4.2485,4.2365,4.2392,4.2151,4.1911,4.175,4.1603,4.1523,4.1644,4.1777,4.1831,4.1857,4.1871,4.1951,4.179,4.171,4.1456,4.1189,4.1194,4.1274,4.1456,4.159,4.167,4.171,4.1657,4.1644,4.1577,4.151,4.1443,4.1376,4.1261,4.1288,4.1448,4.1434,4.147,4.1617,4.1804,4.1897,4.2018,4.2111,4.2218,4.2218,4.2218,4.2218]},{"header":{"parameterUnit":"m.s-1","parameterCategory":1,"la1":31.0,"la2":29.5877,"lo1":-88.7671,"lo2":-86.6584,"dy":0.0162,"dx":0.0185,"nx":115,"ny":88,"refTime":"2023-11-14T06:00:00:Z","depth":0,"parameterNumber":3,"parameterNumberName":"V-component_of_WINDS"},"data":[0.0,0.0,0.0,0.0,0.0,0.0,0.0,0.0,0.0,0.0,0.0,0.0,0.0,0.0,0.0,0.0,0.0,0.0,0.0,0.0,0.0,0.0,0.0,0.0,0.0,0.0,0.0,0.0,0.0,0.0,0.0,0.0,0.0,0.0,0.0,0.0,0.0,0.0,0.0,0.0,0.0,0.0,0.0,0.0,0.0,0.0,0.0,0.0,0.0,0.0,0.0,0.0,0.0,0.0,0.0,0.0,0.0,0.0,0.0,0.0,0.0,0.0,0.0,0.0,0.0,0.0,0.0,0.0,0.0,0.0,0.0,0.0,0.0,0.0,0.0,0.0,0.0,0.0,0.0,0.0,0.0,0.0,0.0,0.0,0.0,0.0,0.0,0.0,0.0,0.0,0.0,0.0,0.0,0.0,0.0,0.0,0.0,0.0,0.0,0.0,0.0,0.0,0.0,0.0,0.0,0.0,0.0,0.0,0.0,0.0,0.0,0.0,0.0,0.0,0.0,0.0,0.0,0.0,0.0,0.0,0.0,0.0,0.0,0.0,0.0,0.0,0.0,0.0,0.0,0.0,0.0,0.0,0.0,0.0,0.0,0.0,0.0,0.0,0.0,0.0,0.0,0.0,0.0,0.0,0.0,0.0,0.0,0.0,0.0,0.0,0.0,0.0,0.0,0.0,0.0,0.0,0.0,0.0,0.0,0.0,0.0,0.0,0.0,0.0,0.0,0.0,0.0,0.0,0.0,0.0,0.0,0.0,0.0,0.0,0.0,0.0,0.0,0.0,0.0,0.0,0.0,0.0,0.0,0.0,0.0,0.0,0.0,0.0,0.0,0.0,0.0,0.0,0.0,0.0,0.0,0.0,0.0,0.0,0.0,0.0,0.0,0.0,0.0,0.0,0.0,0.0,0.0,0.0,0.0,0.0,0.0,0.0,0.0,0.0,0.0,0.0,0.0,0.0,0.0,0.0,0.0,0.0,0.0,0.0,0.0,0.0,0.0,0.0,0.0,0.0,0.0,0.0,0.0,0.0,0.0,0.0,0.0,0.0,0.0,0.0,0.0,0.0,0.0,0.0,0.0,0.0,0.0,0.0,0.0,0.0,0.0,0.0,0.0,0.0,0.0,0.0,0.0,0.0,0.0,0.0,0.0,0.0,0.0,0.0,0.0,0.0,0.0,0.0,0.0,0.0,0.0,0.0,0.0,0.0,0.0,0.0,0.0,0.0,0.0,0.0,0.0,0.0,0.0,0.0,0.0,0.0,0.0,0.0,0.0,0.0,0.0,0.0,0.0,0.0,0.0,0.0,0.0,0.0,0.0,0.0,0.0,0.0,0.0,0.0,0.0,0.0,0.0,0.0,0.0,0.0,0.0,0.0,0.0,0.0,0.0,0.0,0.0,0.0,0.0,0.0,0.0,0.0,0.0,0.0,0.0,0.0,0.0,0.0,0.0,0.0,0.0,0.0,0.0,0.0,0.0,0.0,0.0,0.0,0.0,0.0,0.0,0.0,0.0,0.0,0.0,0.0,0.0,0.0,0.0,0.0,0.0,0.0,0.0,0.0,0.0,0.0,0.0,0.0,0.0,0.0,0.0,0.0,0.0,0.0,0.0,0.0,0.0,0.0,0.0,0.0,0.0,0.0,0.0,0.0,0.0,0.0,0.0,0.0,0.0,0.0,0.0,0.0,0.0,0.0,0.0,0.0,0.0,0.0,0.0,0.0,0.0,0.0,0.0,0.0,0.0,0.0,0.0,0.0,0.0,0.0,0.0,0.0,0.0,0.0,0.0,0.0,0.0,0.0,0.0,0.0,0.0,0.0,0.0,0.0,0.0,0.0,0.0,0.0,0.0,0.0,0.0,0.0,0.0,0.0,0.0,0.0,0.0,0.0,0.0,0.0,0.0,0.0,0.0,0.0,0.0,0.0,0.0,0.0,0.0,0.0,0.0,0.0,0.0,0.0,0.0,0.0,0.0,0.0,0.0,0.0,0.0,0.0,0.0,0.0,0.0,0.0,0.0,0.0,0.0,0.0,0.0,0.0,0.0,0.0,0.0,0.0,0.0,0.0,0.0,0.0,0.0,0.0,0.0,0.0,0.0,0.0,0.0,0.0,0.0,0.0,0.0,0.0,0.0,0.0,0.0,0.0,0.0,0.0,0.0,0.0,0.0,0.0,0.0,0.0,0.0,0.0,0.0,0.0,0.0,0.0,0.0,0.0,0.0,0.0,0.0,0.0,0.0,0.0,0.0,0.0,0.0,0.0,0.0,0.0,0.0,0.0,0.0,0.0,0.0,0.0,0.0,0.0,0.0,0.0,0.0,0.0,0.0,0.0,0.0,0.0,0.0,0.0,0.0,0.0,0.0,0.0,0.0,0.0,0.0,0.0,0.0,0.0,0.0,0.0,0.0,0.0,0.0,0.0,0.0,0.0,0.0,0.0,0.0,0.0,0.0,0.0,0.0,0.0,0.0,0.0,0.0,0.0,0.0,0.0,0.0,0.0,0.0,0.0,0.0,0.0,0.0,0.0,0.0,0.0,0.0,0.0,0.0,0.0,0.0,0.0,0.0,0.0,0.0,0.0,0.0,0.0,0.0,0.0,0.0,0.0,0.0,0.0,0.0,0.0,0.0,0.0,0.0,0.0,0.0,0.0,0.0,0.0,0.0,0.0,0.0,0.0,0.0,0.0,0.0,0.0,0.0,0.0,0.0,0.0,0.0,0.0,0.0,0.0,0.0,0.0,0.0,0.0,0.0,0.0,0.0,0.0,0.0,0.0,0.0,0.0,0.0,0.0,0.0,0.0,0.0,0.0,0.0,0.0,0.0,0.0,0.0,0.0,0.0,0.0,0.0,0.0,0.0,0.0,0.0,0.0,0.0,0.0,0.0,0.0,0.0,0.0,0.0,0.0,0.0,0.0,0.0,0.0,0.0,0.0,0.0,0.0,0.0,0.0,0.0,0.0,0.0,0.0,0.0,0.0,0.0,0.0,0.0,0.0,0.0,0.0,0.0,0.0,0.0,0.0,0.0,0.0,0.0,0.0,0.0,0.0,0.0,0.0,0.0,0.0,0.0,0.0,0.0,0.0,0.0,0.0,0.0,0.0,0.0,0.0,0.0,0.0,0.0,0.0,0.0,0.0,0.0,0.0,0.0,0.0,0.0,0.0,0.0,0.0,0.0,0.0,0.0,0.0,0.0,0.0,0.0,0.0,0.0,0.0,0.0,0.0,0.0,0.0,0.0,0.0,0.0,0.0,0.0,0.0,0.0,0.0,0.0,0.0,0.0,0.0,0.0,0.0,0.0,0.0,0.0,0.0,0.0,0.0,0.0,0.0,0.0,0.0,0.0,0.0,0.0,0.0,0.0,0.0,0.0,0.0,0.0,0.0,0.0,0.0,0.0,0.0,0.0,0.0,0.0,0.0,0.0,0.0,0.0,0.0,0.0,0.0,0.0,0.0,0.0,0.0,0.0,0.0,0.0,0.0,0.0,0.0,0.0,0.0,0.0,0.0,0.0,0.0,0.0,0.0,0.0,0.0,0.0,0.0,0.0,0.0,0.0,0.0,0.0,0.0,0.0,0.0,0.0,0.0,0.0,0.0,0.0,0.0,0.0,0.0,0.0,0.0,0.0,0.0,0.0,0.0,0.0,0.0,0.0,0.0,0.0,0.0,0.0,0.0,0.0,0.0,0.0,0.0,0.0,0.0,0.0,0.0,0.0,0.0,0.0,0.0,0.0,0.0,0.0,0.0,0.0,0.0,0.0,0.0,0.0,0.0,0.0,0.0,0.0,0.0,0.0,0.0,0.0,0.0,0.0,0.0,0.0,0.0,0.0,0.0,0.0,0.0,0.0,0.0,0.0,0.0,0.0,0.0,0.0,0.0,0.0,0.0,0.0,0.0,0.0,0.0,0.0,0.0,0.0,0.0,0.0,0.0,0.0,0.0,0.0,0.0,0.0,0.0,0.0,0.0,0.0,0.0,0.0,0.0,0.0,0.0,0.0,0.0,0.0,0.0,0.0,0.0,0.0,0.0,0.0,0.0,0.0,0.0,0.0,0.0,0.0,0.0,0.0,0.0,0.0,0.0,0.0,0.0,0.0,0.0,0.0,0.0,0.0,0.0,0.0,0.0,0.0,0.0,0.0,0.0,0.0,0.0,0.0,0.0,0.0,0.0,0.0,0.0,0.0,0.0,0.0,0.0,0.0,0.0,0.0,0.0,0.0,0.0,0.0,0.0,0.0,0.0,0.0,0.0,0.0,0.0,0.0,0.0,2.7555,0.0,0.0,0.0,0.0,0.0,0.0,0.0,0.0,0.0,0.0,0.0,0.0,0.0,0.0,0.0,0.0,0.0,0.0,0.0,0.0,0.0,0.0,0.0,0.0,0.0,0.0,0.0,0.0,0.0,0.0,0.0,0.0,0.0,0.0,0.0,0.0,0.0,0.0,0.0,0.0,0.0,0.0,0.0,0.0,0.0,0.0,0.0,0.0,0.0,0.0,0.0,0.0,0.0,0.0,0.0,0.0,0.0,0.0,0.0,0.0,0.0,0.0,0.0,0.0,0.0,0.0,0.0,0.0,0.0,0.0,0.0,0.0,0.0,0.0,0.0,0.0,0.0,0.0,0.0,0.0,0.0,0.0,0.0,0.0,0.0,0.0,0.0,0.0,0.0,0.0,0.0,0.0,0.0,0.0,0.0,0.0,0.0,0.0,0.0,0.0,0.0,0.0,0.0,0.0,0.0,0.0,0.0,0.0,0.0,0.0,3.1046,3.0103,3.0103,2.9817,2.9219,0.0,0.0,0.0,0.0,0.0,0.0,0.0,0.0,0.0,0.0,0.0,0.0,0.0,0.0,0.0,0.0,0.0,0.0,0.0,0.0,0.0,0.0,0.0,0.0,0.0,0.0,0.0,0.0,0.0,0.0,0.0,0.0,0.0,0.0,0.0,0.0,0.0,0.0,0.0,0.0,0.0,0.0,0.0,0.0,0.0,0.0,0.0,0.0,0.0,0.0,0.0,0.0,0.0,0.0,0.0,0.0,0.0,0.0,0.0,0.0,0.0,0.0,0.0,0.0,0.0,0.0,0.0,0.0,0.0,0.0,0.0,0.0,0.0,0.0,0.0,0.0,0.0,0.0,0.0,0.0,0.0,0.0,0.0,0.0,0.0,0.0,0.0,0.0,0.0,0.0,0.0,0.0,0.0,0.0,0.0,0.0,0.0,0.0,0.0,0.0,0.0,0.0,0.0,0.0,0.0,0.0,0.0,0.0,0.0,0.0,0.0,0.0,3.1316,3.133,3.121,0.0,0.0,0.0,0.0,0.0,0.0,0.0,0.0,0.0,0.0,0.0,0.0,0.0,0.0,0.0,0.0,0.0,0.0,0.0,0.0,0.0,0.0,0.0,0.0,0.0,0.0,0.0,0.0,0.0,0.0,0.0,0.0,0.0,0.0,0.0,0.0,0.0,0.0,0.0,0.0,0.0,0.0,0.0,0.0,0.0,0.0,0.0,0.0,0.0,0.0,0.0,0.0,0.0,0.0,0.0,0.0,0.0,0.0,0.0,0.0,0.0,0.0,0.0,0.0,0.0,0.0,0.0,0.0,0.0,0.0,0.0,0.0,0.0,0.0,0.0,0.0,0.0,0.0,0.0,0.0,0.0,0.0,0.0,0.0,0.0,0.0,0.0,0.0,0.0,0.0,0.0,0.0,0.0,0.0,0.0,0.0,0.0,0.0,0.0,0.0,0.0,0.0,0.0,0.0,0.0,0.0,0.0,0.0,0.0,0.0,3.3305,3.3245,3.3829,0.0,3.326,0.0,0.0,0.0,0.0,0.0,0.0,0.0,0.0,0.0,0.0,0.0,0.0,0.0,0.0,0.0,0.0,0.0,0.0,0.0,0.0,0.0,0.0,0.0,0.0,0.0,0.0,0.0,0.0,0.0,0.0,0.0,0.0,0.0,0.0,0.0,0.0,0.0,0.0,0.0,0.0,0.0,0.0,0.0,0.0,0.0,0.0,0.0,0.0,0.0,0.0,0.0,0.0,0.0,0.0,0.0,0.0,0.0,0.0,0.0,0.0,0.0,0.0,0.0,0.0,0.0,0.0,0.0,0.0,0.0,0.0,0.0,0.0,0.0,0.0,0.0,0.0,0.0,0.0,0.0,0.0,0.0,0.0,0.0,0.0,0.0,0.0,0.0,0.0,0.0,0.0,0.0,0.0,0.0,0.0,0.0,0.0,0.0,0.0,0.0,0.0,0.0,0.0,0.0,0.0,0.0,0.0,0.0,0.0,0.0,0.0,3.4488,3.5266,3.5895,3.5729,0.0,0.0,0.0,0.0,0.0,0.0,0.0,0.0,0.0,0.0,0.0,0.0,0.0,0.0,0.0,0.0,0.0,0.0,0.0,0.0,0.0,0.0,0.0,0.0,0.0,0.0,0.0,0.0,0.0,0.0,0.0,0.0,0.0,0.0,0.0,0.0,0.0,0.0,0.0,0.0,0.0,0.0,0.0,0.0,0.0,0.0,0.0,0.0,0.0,0.0,0.0,0.0,0.0,0.0,0.0,0.0,0.0,0.0,0.0,0.0,0.0,0.0,0.0,0.0,0.0,0.0,0.0,0.0,0.0,0.0,0.0,0.0,0.0,0.0,0.0,0.0,0.0,0.0,0.0,0.0,0.0,0.0,0.0,0.0,0.0,0.0,0.0,0.0,0.0,0.0,0.0,0.0,0.0,0.0,0.0,0.0,0.0,0.0,0.0,0.0,0.0,0.0,0.0,0.0,0.0,0.0,0.0,0.0,0.0,0.0,3.4338,3.5595,3.7212,3.7357,3.6879,3.5818,0.0,0.0,0.0,0.0,0.0,0.0,0.0,0.0,0.0,0.0,0.0,0.0,0.0,0.0,0.0,0.0,0.0,0.0,0.0,0.0,0.0,0.0,0.0,0.0,0.0,0.0,0.0,0.0,0.0,0.0,0.0,0.0,0.0,0.0,0.0,0.0,0.0,0.0,0.0,0.0,0.0,0.0,0.0,0.0,0.0,0.0,0.0,0.0,0.0,0.0,0.0,0.0,0.0,0.0,0.0,0.0,0.0,0.0,0.0,0.0,0.0,0.0,0.0,0.0,0.0,0.0,0.0,0.0,0.0,0.0,0.0,0.0,0.0,0.0,0.0,0.0,0.0,0.0,0.0,0.0,0.0,0.0,0.0,0.0,0.0,0.0,0.0,0.0,0.0,0.0,0.0,0.0,0.0,0.0,0.0,0.0,0.0,0.0,0.0,0.0,0.0,0.0,0.0,0.0,0.0,0.0,0.0,0.0,3.35,3.4831,3.6716,3.9092,3.8063,3.7105,0.0,0.0,0.0,0.0,0.0,0.0,0.0,0.0,0.0,0.0,0.0,0.0,0.0,0.0,0.0,0.0,0.0,0.0,0.0,0.0,0.0,0.0,0.0,0.0,0.0,0.0,0.0,0.0,0.0,0.0,0.0,0.0,0.0,0.0,0.0,0.0,0.0,0.0,0.0,0.0,0.0,0.0,0.0,0.0,0.0,0.0,0.0,0.0,0.0,0.0,0.0,0.0,0.0,0.0,0.0,0.0,0.0,0.0,0.0,0.0,0.0,0.0,0.0,0.0,0.0,0.0,0.0,0.0,0.0,0.0,0.0,0.0,0.0,0.0,0.0,0.0,0.0,0.0,0.0,0.0,0.0,0.0,0.0,0.0,0.0,0.0,0.0,0.0,0.0,0.0,0.0,0.0,0.0,0.0,0.0,0.0,0.0,0.0,0.0,0.0,0.0,0.0,0.0,0.0,0.0,0.0,0.0,0.0,0.0,3.4218,3.7075,3.8482,3.8153,3.8063,3.7152,0.0,0.0,0.0,0.0,0.0,0.0,0.0,0.0,0.0,0.0,0.0,0.0,0.0,0.0,0.0,0.0,0.0,0.0,0.0,0.0,0.0,0.0,0.0,0.0,0.0,0.0,0.0,0.0,0.0,0.0,0.0,0.0,0.0,0.0,0.0,0.0,0.0,0.0,0.0,0.0,0.0,0.0,0.0,0.0,0.0,0.0,0.0,0.0,0.0,0.0,0.0,0.0,0.0,0.0,0.0,0.0,0.0,0.0,0.0,0.0,0.0,0.0,0.0,0.0,0.0,0.0,0.0,0.0,0.0,0.0,0.0,0.0,0.0,0.0,0.0,0.0,0.0,0.0,0.0,0.0,0.0,0.0,0.0,0.0,0.0,0.0,0.0,0.0,0.0,0.0,0.0,0.0,0.0,0.0,0.0,0.0,0.0,0.0,0.0,0.0,0.0,0.0,0.0,0.0,0.0,0.0,0.0,0.0,0.0,3.5476,0.0,3.9529,3.8422,3.8153,3.6943,0.0,0.0,0.0,0.0,0.0,0.0,0.0,0.0,0.0,0.0,0.0,0.0,0.0,0.0,0.0,0.0,0.0,0.0,0.0,0.0,0.0,0.0,0.0,0.0,0.0,0.0,0.0,0.0,0.0,0.0,0.0,0.0,0.0,0.0,0.0,0.0,0.0,0.0,0.0,0.0,0.0,0.0,0.0,0.0,0.0,0.0,0.0,0.0,0.0,0.0,0.0,0.0,0.0,0.0,0.0,0.0,0.0,0.0,0.0,0.0,0.0,0.0,0.0,0.0,0.0,0.0,0.0,0.0,0.0,0.0,0.0,0.0,0.0,0.0,0.0,0.0,0.0,0.0,0.0,0.0,0.0,0.0,0.0,0.0,0.0,0.0,0.0,0.0,0.0,0.0,0.0,0.0,0.0,0.0,0.0,0.0,0.0,0.0,0.0,0.0,0.0,0.0,0.0,0.0,0.0,0.0,0.0,0.0,3.4217,3.7345,3.8823,3.984,4.0307,3.8512,3.6553,0.0,0.0,0.0,0.0,0.0,0.0,0.0,0.0,0.0,0.0,0.0,0.0,0.0,0.0,0.0,0.0,0.0,0.0,0.0,0.0,0.0,0.0,0.0,0.0,0.0,0.0,0.0,0.0,0.0,0.0,0.0,0.0,0.0,0.0,0.0,0.0,0.0,0.0,0.0,0.0,0.0,0.0,0.0,0.0,0.0,0.0,0.0,0.0,0.0,0.0,0.0,0.0,0.0,0.0,0.0,0.0,0.0,0.0,0.0,0.0,0.0,0.0,0.0,0.0,0.0,0.0,0.0,0.0,0.0,0.0,0.0,0.0,0.0,0.0,0.0,0.0,0.0,0.0,0.0,0.0,0.0,0.0,0.0,0.0,0.0,0.0,0.0,0.0,0.0,0.0,0.0,0.0,0.0,0.0,0.0,0.0,0.0,0.0,0.0,0.0,0.0,0.0,0.0,0.0,0.0,0.0,0.0,0.0,0.0,4.0116,4.1425,4.1773,4.1074,3.9619,3.7225,0.0,0.0,0.0,0.0,0.0,0.0,0.0,0.0,0.0,0.0,0.0,0.0,0.0,0.0,0.0,0.0,0.0,0.0,0.0,0.0,0.0,0.0,0.0,0.0,0.0,0.0,0.0,0.0,0.0,0.0,0.0,0.0,0.0,0.0,0.0,0.0,0.0,0.0,0.0,0.0,0.0,0.0,0.0,0.0,0.0,0.0,0.0,0.0,0.0,0.0,0.0,0.0,0.0,0.0,0.0,0.0,0.0,0.0,0.0,0.0,0.0,0.0,0.0,0.0,0.0,0.0,0.0,0.0,0.0,0.0,0.0,0.0,0.0,0.0,0.0,0.0,0.0,0.0,0.0,0.0,0.0,0.0,0.0,0.0,0.0,0.0,0.0,0.0,0.0,0.0,0.0,0.0,0.0,0.0,0.0,0.0,0.0,0.0,0.0,0.0,0.0,0.0,0.0,0.0,0.0,0.0,0.0,0.0,0.0,4.5654,4.5633,4.5155,4.4367,4.2791,3.987,3.5519,0.0,0.0,0.0,0.0,0.0,0.0,0.0,0.0,0.0,0.0,0.0,0.0,0.0,0.0,0.0,0.0,0.0,0.0,0.0,0.0,0.0,0.0,0.0,0.0,0.0,0.0,0.0,0.0,0.0,0.0,0.0,0.0,0.0,0.0,0.0,0.0,0.0,0.0,0.0,0.0,0.0,0.0,0.0,0.0,0.0,0.0,0.0,0.0,0.0,0.0,0.0,0.0,0.0,0.0,0.0,0.0,0.0,0.0,0.0,0.0,0.0,0.0,0.0,0.0,0.0,0.0,0.0,0.0,0.0,0.0,0.0,0.0,0.0,0.0,0.0,0.0,0.0,0.0,0.0,0.0,0.0,0.0,0.0,0.0,0.0,0.0,0.0,0.0,0.0,0.0,0.0,0.0,0.0,0.0,0.0,0.0,0.0,0.0,0.0,0.0,0.0,0.0,0.0,0.0,0.0,0.0,0.0,0.0,5.3468,5.1372,5.0145,4.9786,4.7698,4.4087,0.0,0.0,0.0,0.0,0.0,0.0,0.0,0.0,0.0,0.0,0.0,0.0,0.0,0.0,0.0,0.0,0.0,0.0,0.0,0.0,0.0,0.0,0.0,0.0,0.0,0.0,0.0,0.0,0.0,0.0,0.0,0.0,0.0,0.0,0.0,0.0,0.0,0.0,0.0,0.0,0.0,0.0,0.0,0.0,0.0,0.0,0.0,0.0,0.0,0.0,0.0,0.0,0.0,0.0,0.0,0.0,0.0,0.0,0.0,0.0,0.0,0.0,0.0,0.0,0.0,0.0,0.0,0.0,0.0,0.0,0.0,0.0,0.0,0.0,0.0,0.0,0.0,0.0,0.0,0.0,0.0,0.0,0.0,0.0,0.0,0.0,0.0,0.0,0.0,0.0,0.0,0.0,0.0,0.0,0.0,0.0,0.0,0.0,0.0,0.0,0.0,0.0,0.0,0.0,0.0,0.0,0.0,0.0,0.0,5.7363,6.0206,5.9757,5.5897,5.1983,4.7437,0.0,0.0,0.0,0.0,0.0,0.0,0.0,0.0,0.0,0.0,0.0,0.0,0.0,0.0,0.0,0.0,0.0,0.0,0.0,0.0,0.0,0.0,0.0,0.0,0.0,0.0,0.0,0.0,0.0,0.0,0.0,0.0,0.0,0.0,0.0,0.0,0.0,0.0,0.0,0.0,0.0,0.0,0.0,0.0,0.0,0.0,0.0,0.0,0.0,0.0,0.0,0.0,0.0,0.0,0.0,0.0,0.0,0.0,0.0,0.0,0.0,0.0,0.0,0.0,0.0,0.0,0.0,0.0,0.0,0.0,0.0,0.0,0.0,0.0,0.0,0.0,0.0,0.0,0.0,0.0,0.0,0.0,0.0,0.0,0.0,0.0,0.0,0.0,0.0,0.0,0.0,0.0,0.0,0.0,0.0,0.0,0.0,0.0,0.0,0.0,0.0,0.0,0.0,0.0,0.0,0.0,0.0,0.0,5.6107,6.1104,6.5951,6.7029,6.3977,5.7786,5.1894,0.0,0.0,0.0,0.0,0.0,0.0,0.0,0.0,0.0,0.0,0.0,0.0,0.0,0.0,0.0,0.0,0.0,0.0,0.0,0.0,0.0,0.0,0.0,0.0,0.0,0.0,0.0,0.0,0.0,0.0,0.0,0.0,0.0,0.0,0.0,0.0,0.0,0.0,0.0,0.0,0.0,0.0,0.0,0.0,0.0,0.0,0.0,0.0,0.0,0.0,0.0,0.0,0.0,0.0,0.0,0.0,0.0,0.0,0.0,0.0,0.0,0.0,0.0,0.0,0.0,0.0,0.0,0.0,0.0,0.0,0.0,0.0,0.0,0.0,0.0,0.0,0.0,0.0,0.0,0.0,0.0,0.0,0.0,0.0,0.0,0.0,0.0,0.0,0.0,0.0,0.0,0.0,0.0,0.0,0.0,0.0,0.0,0.0,0.0,0.0,0.0,0.0,0.0,0.0,0.0,0.0,0.0,0.0,5.9937,6.4455,6.9662,7.2325,7.1966,6.3977,5.6795,0.0,0.0,0.0,0.0,0.0,0.0,0.0,0.0,0.0,0.0,0.0,0.0,0.0,0.0,0.0,0.0,0.0,0.0,0.0,0.0,0.0,0.0,0.0,0.0,0.0,0.0,0.0,0.0,0.0,0.0,0.0,0.0,0.0,0.0,0.0,0.0,0.0,0.0,0.0,0.0,0.0,0.0,0.0,0.0,0.0,0.0,0.0,0.0,0.0,0.0,0.0,0.0,0.0,0.0,0.0,0.0,0.0,0.0,0.0,0.0,0.0,0.0,0.0,0.0,0.0,0.0,0.0,0.0,0.0,0.0,0.0,0.0,0.0,0.0,0.0,0.0,0.0,0.0,0.0,0.0,0.0,0.0,0.0,0.0,0.0,0.0,0.0,0.0,0.0,0.0,0.0,0.0,0.0,0.0,0.0,0.0,0.0,0.0,0.0,0.0,0.0,0.0,0.0,0.0,0.0,0.0,0.0,0.0,6.3826,6.7897,7.3073,7.5288,7.4274,6.643,5.9964,0.0,0.0,0.0,0.0,0.0,0.0,0.0,0.0,0.0,0.0,0.0,0.0,0.0,0.0,0.0,0.0,0.0,0.0,0.0,0.0,0.0,0.0,0.0,0.0,0.0,0.0,0.0,0.0,0.0,0.0,0.0,0.0,0.0,0.0,0.0,0.0,0.0,0.0,0.0,0.0,0.0,0.0,0.0,0.0,0.0,0.0,0.0,0.0,3.9902,0.0,0.0,0.0,0.0,0.0,0.0,0.0,0.0,0.0,0.0,0.0,0.0,0.0,0.0,0.0,0.0,0.0,0.0,0.0,0.0,0.0,0.0,0.0,0.0,0.0,0.0,0.0,0.0,0.0,0.0,0.0,0.0,0.0,0.0,0.0,0.0,0.0,0.0,0.0,0.0,0.0,0.0,0.0,0.0,0.0,0.0,0.0,0.0,0.0,0.0,0.0,0.0,0.0,0.0,0.0,0.0,0.0,0.0,0.0,6.5742,7.026,7.43,7.6066,7.5168,6.9183,6.3258,0.0,0.0,0.0,0.0,0.0,0.0,0.0,0.0,0.0,0.0,0.0,0.0,0.0,0.0,0.0,0.0,0.0,0.0,0.0,0.0,0.0,0.0,0.0,0.0,0.0,0.0,0.0,0.0,0.0,0.0,0.0,0.0,0.0,0.0,0.0,0.0,0.0,0.0,0.0,0.0,0.0,0.0,0.0,0.0,0.0,0.0,0.0,0.0,0.0,0.0,0.0,0.0,0.0,0.0,0.0,0.0,0.0,0.0,0.0,0.0,0.0,0.0,0.0,0.0,0.0,0.0,0.0,0.0,0.0,0.0,0.0,0.0,0.0,0.0,0.0,0.0,0.0,0.0,0.0,0.0,0.0,0.0,0.0,0.0,0.0,0.0,0.0,0.0,0.0,0.0,0.0,0.0,0.0,0.0,0.0,0.0,0.0,0.0,0.0,0.0,0.0,0.0,0.0,0.0,0.0,0.0,0.0,6.0715,6.7029,7.2176,7.4958,7.6245,7.5976,7.1547,6.6041,5.9458,0.0,0.0,0.0,0.0,0.0,0.0,0.0,0.0,0.0,0.0,0.0,0.0,0.0,0.0,0.0,0.0,0.0,0.0,0.0,0.0,0.0,0.0,0.0,0.0,0.0,0.0,0.0,0.0,0.0,0.0,0.0,0.0,0.0,0.0,0.0,0.0,0.0,0.0,3.5416,3.9096,0.0,0.0,0.0,0.0,0.0,0.0,0.0,0.0,4.1753,0.0,0.0,0.0,0.0,0.0,0.0,0.0,0.0,0.0,0.0,0.0,0.0,0.0,0.0,0.0,0.0,0.0,0.0,0.0,0.0,0.0,0.0,0.0,0.0,0.0,0.0,0.0,0.0,0.0,0.0,0.0,0.0,0.0,0.0,0.0,0.0,0.0,0.0,0.0,0.0,0.0,0.0,0.0,0.0,0.0,0.0,0.0,0.0,0.0,0.0,0.0,0.0,0.0,0.0,0.0,0.0,5.482,6.254,6.9064,7.4304,7.6963,7.7801,7.6634,7.2235,6.673,6.0086,0.0,0.0,0.0,0.0,0.0,0.0,0.0,0.0,0.0,0.0,0.0,0.0,0.0,0.0,0.0,0.0,0.0,0.0,0.0,0.0,0.0,0.0,0.0,0.0,0.0,0.0,0.0,0.0,0.0,0.0,0.0,0.0,0.0,0.0,0.0,0.0,0.0,0.0,0.0,4.3607,4.5394,0.0,0.0,0.0,0.0,0.0,0.0,0.0,0.0,4.3728,0.0,0.0,0.0,0.0,0.0,0.0,0.0,0.0,0.0,0.0,0.0,0.0,0.0,0.0,0.0,0.0,0.0,0.0,0.0,0.0,0.0,0.0,0.0,0.0,0.0,0.0,0.0,0.0,0.0,0.0,0.0,0.0,0.0,0.0,0.0,0.0,0.0,0.0,0.0,0.0,0.0,0.0,0.0,0.0,0.0,0.0,0.0,0.0,0.0,0.0,0.0,0.0,0.0,0.0,0.0,5.6615,6.3827,7.0231,7.5677,7.6814,7.7143,7.6689,7.1697,6.6191,0.0,0.0,0.0,0.0,0.0,0.0,0.0,0.0,0.0,0.0,0.0,0.0,0.0,0.0,0.0,0.0,0.0,0.0,0.0,0.0,0.0,0.0,0.0,0.0,0.0,0.0,0.0,0.0,0.0,0.0,0.0,0.0,0.0,0.0,0.0,0.0,0.0,0.0,0.0,0.0,4.7036,4.9027,5.0504,0.0,0.0,0.0,0.0,0.0,0.0,4.8389,4.6634,0.0,0.0,0.0,0.0,0.0,0.0,0.0,0.0,0.0,0.0,0.0,0.0,0.0,0.0,0.0,0.0,0.0,0.0,0.0,0.0,0.0,0.0,0.0,0.0,0.0,0.0,0.0,0.0,0.0,0.0,0.0,0.0,0.0,0.0,0.0,0.0,0.0,0.0,0.0,0.0,0.0,0.0,0.0,0.0,0.0,0.0,0.0,0.0,0.0,0.0,0.0,0.0,0.0,0.0,0.0,5.8205,6.5084,7.1248,7.6479,7.6604,7.6604,7.6659,7.0799,6.5113,0.0,0.0,0.0,0.0,0.0,0.0,0.0,0.0,0.0,0.0,0.0,0.0,0.0,0.0,0.0,0.0,0.0,0.0,0.0,0.0,0.0,0.0,0.0,0.0,0.0,0.0,0.0,0.0,0.0,0.0,0.0,0.0,0.0,0.0,0.0,0.0,0.0,0.0,0.0,0.0,0.0,5.2337,5.4039,5.2925,0.0,0.0,0.0,0.0,5.276,5.2298,0.0,0.0,0.0,0.0,0.0,0.0,0.0,0.0,0.0,0.0,0.0,0.0,0.0,0.0,0.0,0.0,0.0,0.0,0.0,0.0,0.0,0.0,0.0,0.0,0.0,0.0,0.0,0.0,0.0,0.0,0.0,0.0,0.0,0.0,0.0,0.0,0.0,0.0,0.0,0.0,0.0,0.0,0.0,0.0,0.0,0.0,0.0,0.0,0.0,0.0,0.0,0.0,0.0,0.0,0.0,0.0,5.8919,6.664,7.2595,7.6599,7.7891,7.7951,7.6749,6.9931,6.3767,0.0,0.0,0.0,0.0,0.0,0.0,0.0,0.0,0.0,0.0,0.0,0.0,0.0,0.0,0.0,0.0,0.0,0.0,0.0,0.0,0.0,0.0,0.0,0.0,0.0,0.0,0.0,0.0,0.0,0.0,0.0,0.0,0.0,0.0,0.0,0.0,0.0,0.0,0.0,0.0,0.0,5.4714,5.7367,5.6635,5.5309,0.0,0.0,5.607,5.7746,6.027,0.0,0.0,0.0,0.0,0.0,0.0,0.0,0.0,0.0,0.0,0.0,0.0,0.0,0.0,0.0,0.0,0.0,0.0,0.0,0.0,0.0,0.0,0.0,0.0,0.0,0.0,0.0,0.0,0.0,0.0,0.0,0.0,0.0,0.0,0.0,0.0,0.0,0.0,0.0,0.0,0.0,0.0,0.0,0.0,0.0,0.0,0.0,0.0,0.0,0.0,0.0,0.0,0.0,0.0,0.0,5.2336,6.0146,6.7268,7.3013,7.7167,7.7592,7.7233,7.627,6.9632,6.3348,0.0,0.0,0.0,0.0,0.0,0.0,0.0,0.0,0.0,0.0,0.0,0.0,0.0,0.0,0.0,0.0,0.0,0.0,0.0,0.0,0.0,0.0,0.0,0.0,0.0,0.0,0.0,0.0,0.0,0.0,0.0,0.0,0.0,0.0,0.0,0.0,0.0,0.0,0.0,0.0,0.0,0.0,5.8291,5.9778,0.0,0.0,0.0,6.1028,6.2086,0.0,0.0,0.0,0.0,0.0,0.0,0.0,0.0,0.0,0.0,0.0,0.0,0.0,0.0,0.0,0.0,0.0,0.0,0.0,0.0,0.0,0.0,0.0,0.0,0.0,0.0,0.0,0.0,0.0,0.0,0.0,0.0,0.0,0.0,0.0,0.0,0.0,0.0,0.0,0.0,0.0,0.0,0.0,0.0,0.0,0.0,0.0,0.0,0.0,0.0,0.0,0.0,0.0,0.0,0.0,0.0,0.0,6.1523,6.8226,7.3732,7.7861,7.7592,7.6874,7.5826,6.9632,0.0,0.0,0.0,0.0,0.0,0.0,0.0,0.0,0.0,0.0,0.0,0.0,0.0,0.0,0.0,0.0,0.0,0.0,0.0,0.0,0.0,0.0,0.0,0.0,0.0,0.0,0.0,2.656,0.0,0.0,0.0,0.0,0.0,0.0,0.0,0.0,0.0,0.0,0.0,0.0,0.0,0.0,5.792,6.0347,6.3607,6.5276,0.0,0.0,6.6327,6.6611,6.7227,6.5503,0.0,0.0,0.0,0.0,0.0,0.0,0.0,0.0,0.0,0.0,0.0,0.0,0.0,0.0,0.0,0.0,0.0,0.0,0.0,0.0,0.0,0.0,0.0,0.0,0.0,0.0,0.0,0.0,0.0,0.0,0.0,0.0,0.0,0.0,0.0,0.0,0.0,0.0,0.0,0.0,0.0,0.0,0.0,0.0,0.0,0.0,0.0,0.0,0.0,0.0,0.0,0.0,0.0,0.0,5.4999,6.2898,7.0021,7.5288,7.8579,7.8699,7.7771,7.5856,7.0081,6.3617,0.0,0.0,0.0,0.0,0.0,0.0,0.0,0.0,0.0,0.0,0.0,0.0,0.0,0.0,0.0,0.0,0.0,0.0,0.0,0.0,0.0,0.0,0.0,0.0,0.0,0.0,0.0,0.0,0.0,0.0,0.0,0.0,0.0,0.0,0.0,0.0,0.0,0.0,0.0,0.0,0.0,6.0879,6.5187,6.8767,7.1063,0.0,7.2149,7.255,7.1659,7.5138,7.3907,6.1656,0.0,0.0,0.0,0.0,0.0,0.0,0.0,0.0,0.0,0.0,0.0,0.0,0.0,0.0,0.0,0.0,0.0,0.0,0.0,0.0,0.0,0.0,0.0,0.0,0.0,0.0,0.0,0.0,0.0,0.0,0.0,0.0,0.0,0.0,0.0,0.0,0.0,0.0,0.0,0.0,0.0,0.0,0.0,0.0,0.0,0.0,0.0,0.0,0.0,0.0,0.0,0.0,0.0,5.5119,6.2989,6.9812,7.5078,7.8609,7.8789,7.7682,7.5318,7.0679,6.4605,0.0,0.0,0.0,0.0,0.0,0.0,0.0,0.0,0.0,0.0,0.0,0.0,0.0,0.0,0.0,0.0,0.0,0.0,0.0,0.0,0.0,0.0,0.0,0.0,0.0,0.0,0.0,0.0,3.7987,3.8993,3.8176,0.0,0.0,0.0,0.0,0.0,0.0,0.0,0.0,0.0,0.0,6.5353,7.0219,7.4299,0.0,0.0,7.5236,7.5305,7.2673,7.3912,7.2453,6.432,6.0371,0.0,0.0,0.0,0.0,0.0,0.0,0.0,0.0,0.0,0.0,0.0,0.0,0.0,0.0,0.0,0.0,0.0,0.0,0.0,0.0,0.0,0.0,0.0,0.0,0.0,0.0,0.0,0.0,0.0,0.0,0.0,0.0,0.0,0.0,0.0,0.0,0.0,0.0,0.0,0.0,0.0,0.0,0.0,0.0,0.0,0.0,0.0,0.0,0.0,0.0,0.0,0.0,5.482,6.2748,6.9453,7.4719,7.843,7.8489,7.7352,7.4933,7.1248,6.5742,0.0,0.0,0.0,0.0,0.0,0.0,0.0,0.0,0.0,0.0,0.0,0.0,0.0,0.0,0.0,0.0,0.0,0.0,0.0,0.0,0.0,0.0,0.0,0.0,0.0,0.0,0.0,0.0,4.0462,4.0468,3.793,0.0,0.0,0.0,0.0,0.0,0.0,0.0,0.0,0.0,0.0,6.9743,7.4339,7.8072,7.9489,7.7053,7.7411,7.7045,7.4434,7.3745,7.1695,6.6553,0.0,0.0,0.0,0.0,0.0,0.0,0.0,0.0,0.0,0.0,0.0,0.0,0.0,0.0,0.0,0.0,0.0,0.0,0.0,0.0,0.0,0.0,0.0,0.0,0.0,0.0,0.0,2.9548,0.0,0.0,2.7615,0.0,0.0,0.0,0.0,0.0,0.0,0.0,0.0,0.0,0.0,0.0,0.0,0.0,0.0,0.0,0.0,0.0,0.0,0.0,0.0,0.0,0.0,5.4167,6.2061,6.9273,7.451,7.7711,7.7831,7.6904,7.4933,7.1637,6.6911,6.0497,0.0,0.0,0.0,0.0,0.0,0.0,0.0,0.0,0.0,0.0,0.0,0.0,0.0,0.0,0.0,0.0,0.0,0.0,0.0,0.0,0.0,0.0,0.0,0.0,0.0,0.0,3.8162,3.9745,3.9872,0.0,0.0,0.0,0.0,0.0,0.0,0.0,0.0,0.0,6.0447,6.784,7.3755,7.7277,7.9558,8.0913,8.0391,7.8954,7.781,7.7646,7.6188,7.3312,0.0,0.0,0.0,0.0,0.0,0.0,0.0,0.0,0.0,0.0,0.0,0.0,0.0,0.0,0.0,0.0,0.0,0.0,0.0,0.0,0.0,0.0,0.0,0.0,0.0,0.0,0.0,3.7327,3.6041,0.0,0.0,0.0,0.0,0.0,0.0,0.0,0.0,0.0,0.0,0.0,5.1828,5.1199,0.0,0.0,0.0,0.0,0.0,0.0,0.0,0.0,0.0,0.0,0.0,0.0,5.482,6.2659,6.9453,7.4476,7.7682,7.825,7.7322,7.4963,7.2733,6.7366,5.8512,0.0,0.0,0.0,0.0,0.0,0.0,0.0,0.0,0.0,0.0,0.0,0.0,0.0,0.0,0.0,0.0,0.0,0.0,0.0,0.0,0.0,0.0,0.0,0.0,0.0,4.056,0.0,0.0,0.0,0.0,0.0,0.0,0.0,0.0,0.0,0.0,0.0,6.0048,6.6649,7.3003,7.8219,8.1596,8.3947,8.4511,0.0,0.0,0.0,0.0,0.0,0.0,0.0,0.0,0.0,0.0,0.0,0.0,0.0,0.0,5.8898,5.3723,5.2675,5.2437,5.1908,0.0,0.0,0.0,0.0,0.0,0.0,0.0,0.0,0.0,0.0,0.0,0.0,0.0,0.0,4.314,0.0,4.0767,0.0,0.0,0.0,0.0,0.0,0.0,0.0,0.0,5.3359,5.6948,5.859,5.8411,5.8082,0.0,5.4675,5.0069,0.0,0.0,0.0,0.0,0.0,0.0,0.0,0.0,5.5239,6.2689,6.9453,7.427,7.7023,7.7771,7.7154,7.5104,7.2435,6.7516,6.0228,5.6972,5.2228,0.0,0.0,0.0,0.0,0.0,0.0,0.0,0.0,0.0,0.0,0.0,0.0,0.0,0.0,0.0,0.0,0.0,0.0,0.0,0.0,0.0,0.0,0.0,4.3929,0.0,0.0,0.0,0.0,0.0,0.0,0.0,0.0,0.0,5.2631,5.9478,6.6478,7.2132,7.6961,8.0991,8.3813,0.0,0.0,0.0,0.0,0.0,0.0,0.0,7.6534,7.4649,7.4889,7.4872,7.36,7.3076,7.3005,7.3644,0.0,0.0,6.3487,6.1916,6.1821,6.1725,6.2502,6.362,6.5247,6.6379,6.7747,0.0,0.0,0.0,0.0,0.0,0.0,0.0,0.0,4.9516,4.8379,0.0,4.642,0.0,0.0,0.0,0.0,0.0,4.8035,0.0,0.0,6.2629,6.634,6.5263,6.5742,6.5443,6.4096,6.0954,5.8411,5.6222,4.9426,0.0,0.0,0.0,0.0,0.0,0.0,5.5658,6.2361,6.9423,7.4001,7.5946,7.6574,7.6389,7.5297,7.0918,6.759,6.5506,6.2373,5.8892,5.5008,4.933,0.0,0.0,0.0,0.0,0.0,0.0,0.0,0.0,0.0,0.0,0.0,0.0,0.0,0.0,0.0,0.0,0.0,0.0,0.0,0.0,4.6028,0.0,0.0,0.0,0.0,0.0,0.0,0.0,0.0,0.0,0.0,6.0439,6.5901,7.1753,7.6717,0.0,0.0,0.0,0.0,8.3342,8.3499,8.1715,8.0426,8.0509,8.043,8.0055,7.9295,0.0,0.0,8.1353,8.1043,8.1166,8.2109,8.2641,8.0568,7.1931,7.0193,6.9911,6.9978,7.1105,7.2419,7.3915,7.5502,7.6977,5.8599,0.0,0.0,0.0,0.0,5.3443,5.5867,5.8887,5.9066,5.7929,5.5748,5.4072,0.0,0.0,0.0,0.0,0.0,0.0,5.7154,6.0413,6.4964,6.8016,6.9901,6.9632,6.9542,6.9574,6.7268,6.5892,6.5144,6.1313,5.4585,4.5484,0.0,0.0,0.0,0.0,6.0146,6.6251,7.2056,7.5905,7.762,7.7831,7.6908,7.4752,7.1872,6.9693,6.8444,6.7225,6.461,6.0374,5.6899,0.0,0.0,0.0,0.0,0.0,0.0,0.0,0.0,0.0,0.0,0.0,0.0,0.0,0.0,0.0,0.0,0.0,0.0,0.0,4.8682,5.1718,5.1904,0.0,0.0,0.0,0.0,0.0,0.0,0.0,0.0,0.0,7.2069,7.4541,7.7091,0.0,0.0,8.379,8.4137,8.5416,8.6135,8.5605,8.527,0.0,8.4746,8.4952,8.5086,8.4857,8.6802,8.7992,8.6966,8.758,8.7991,8.7264,8.7264,8.6459,8.4169,8.1659,8.0461,8.0959,8.1431,8.2342,8.4258,8.5128,8.5797,6.7897,6.1762,5.9039,5.8501,5.9578,6.0864,6.2958,6.5443,6.5742,6.4545,6.2391,6.1341,5.7809,5.257,5.2007,0.0,0.0,0.0,6.2391,6.6281,6.8615,7.1068,7.3343,7.3073,7.2804,7.2624,7.1517,7.0679,7.0111,6.8016,6.3139,5.5628,0.0,0.0,5.4227,5.8982,6.4185,6.9675,7.3934,7.6933,7.8614,7.7997,7.6559,7.4373,7.2589,7.1358,7.0686,7.0617,6.8911,6.5259,6.299,5.8305,0.0,0.0,0.0,0.0,0.0,0.0,0.0,0.0,0.0,0.0,0.0,3.6459,3.6819,0.0,0.0,0.0,4.7565,5.1218,5.678,5.7615,0.0,0.0,0.0,0.0,0.0,0.0,0.0,6.5147,7.0459,7.5405,7.9659,8.1166,8.2121,8.2956,8.4234,8.5338,8.6046,0.0,8.7874,8.8279,8.8104,8.7885,8.784,8.8384,8.8928,8.923,9.0457,9.1238,9.0633,9.1406,9.1846,9.113,9.0893,9.0893,9.0893,8.9376,8.7922,8.7617,8.7786,8.8632,9.0521,9.1096,9.1677,7.5587,7.3911,6.8494,6.64,6.6759,6.8017,6.8916,6.9602,7.0111,6.8914,6.667,6.7748,6.5144,5.9907,5.865,0.0,6.2959,6.4874,6.7686,7.1278,7.3163,7.4749,7.5946,7.5976,7.5318,7.4121,7.4031,7.3406,7.2176,7.0859,6.9634,6.8408,6.3706,6.113,6.095,6.4155,6.8205,7.2887,7.5512,7.7495,7.8877,7.7524,7.5979,7.4299,7.3385,7.2848,7.2523,7.282,7.1919,6.9642,6.776,6.4255,5.8774,0.0,0.0,0.0,0.0,0.0,0.0,0.0,0.0,0.0,0.0,0.0,0.0,0.0,0.0,5.1329,5.6678,0.0,6.5875,6.3563,0.0,0.0,0.0,6.0709,6.3154,6.6276,6.9601,7.3203,0.0,0.0,8.4265,8.5976,8.6666,8.6372,8.6257,8.69,8.8903,8.8734,8.9072,9.0971,9.029,8.963,9.0076,9.09,9.172,9.2295,9.2629,9.2662,9.2493,9.3064,9.3605,9.3402,9.3567,9.3533,9.3567,9.3262,9.2958,9.0763,9.1,9.1981,9.3334,9.418,9.489,7.9627,7.834,7.7412,7.5108,7.2116,7.2927,7.3612,7.421,7.3851,7.2774,7.1248,7.053,6.9123,6.7297,6.7029,6.7867,6.9632,7.1098,7.2565,7.3971,7.4958,7.5856,7.6539,7.6569,7.639,7.6031,7.5108,7.4749,7.4839,7.3103,7.249,7.2907,7.2184,7.0046,6.6824,7.1115,7.4516,7.6672,7.8794,7.9485,7.8643,7.8944,7.7905,7.5415,7.5894,7.5581,7.443,7.396,7.3359,7.2481,7.069,6.7622,6.3082,5.5675,0.0,0.0,0.0,0.0,0.0,0.0,0.0,0.0,0.0,4.4016,4.4784,0.0,5.4313,0.0,6.2811,6.7052,6.777,6.8794,0.0,0.0,6.8528,6.9743,7.0427,7.4743,7.8262,7.9734,8.3327,8.6472,8.852,8.9095,8.9731,9.0633,8.985,8.9342,8.9884,9.0769,9.1513,9.2049,9.2319,9.2556,9.2667,9.3343,9.3876,9.4117,9.4586,9.462,9.3503,9.3943,9.4248,9.3706,9.3601,9.3601,9.3601,9.3601,9.3465,9.2928,9.3402,9.4146,9.5093,9.5838,9.6582,8.205,8.1123,8.1212,7.9567,7.6963,7.7053,7.7113,7.7143,7.6485,7.5437,7.4151,7.2472,7.1574,7.1248,7.1215,7.1966,7.3286,7.43,7.5288,7.6185,7.6574,7.7083,7.7682,7.7412,7.7227,7.7233,7.6419,7.6373,7.6949,7.6011,7.6332,7.7887,7.8992,7.8268,7.5901,7.7779,7.9487,8.0946,8.2161,8.1913,8.0071,7.9888,7.8551,7.5995,7.5823,7.5011,7.3426,7.2649,7.1895,7.1064,7.0666,6.8797,6.5112,5.976,5.4241,0.0,0.0,0.0,0.0,0.0,0.0,0.0,0.0,0.0,0.0,0.0,6.1126,6.3273,6.8301,7.1396,7.1361,7.2869,7.3759,7.3557,7.5271,7.7034,7.8472,8.133,8.367,8.5061,8.7156,8.9173,9.0904,9.1203,9.1609,9.2793,9.2218,9.1711,9.1778,9.2455,9.3064,9.3373,9.3537,9.3601,9.3601,9.3909,9.4214,9.4248,9.4518,9.462,9.418,9.4417,9.4586,9.418,9.4079,9.3977,9.3673,9.3601,9.3601,9.3736,9.4451,9.5263,9.5702,9.6108,9.6683,8.3606,8.3016,8.2417,8.1811,8.1242,8.0494,7.9746,7.8998,7.843,7.7532,7.6305,7.439,7.3522,7.3522,7.3518,7.421,7.5442,7.6096,7.7053,7.816,7.819,7.846,7.8878,7.8376,7.8189,7.8216,7.797,7.8278,7.9098,7.9275,8.0408,8.2552,8.4122,8.489,8.4954,8.3763,8.3767,8.5033,8.5085,8.4069,8.1934,8.0531,7.8607,7.6201,7.4851,7.3311,7.1515,7.0737,6.9676,6.8335,6.9473,6.8999,6.6373,6.3262,5.949,0.0,5.1257,0.0,0.0,0.0,0.0,0.0,0.0,0.0,0.0,6.4692,6.7639,7.0229,7.3181,7.519,7.5878,7.6692,7.8068,8.0182,8.1226,8.2949,8.5662,8.6325,8.7279,8.9275,8.9613,9.0459,9.2358,9.2595,9.2861,9.3537,9.3537,9.3398,9.3533,9.3533,9.374,9.4485,9.4011,9.3601,9.3601,9.3634,9.3668,9.3634,9.3702,9.3808,9.4417,9.462,9.4687,9.4687,9.4654,9.4485,9.3871,9.3673,9.3668,9.3804,9.4755,9.5567,9.5804,9.6108,9.6514,8.4953,8.4354,8.4205,8.4085,8.3876,8.2709,8.1512,8.0405,8.0285,7.9806,7.8932,7.7532,7.6874,7.6874,7.6874,7.7322,7.8071,7.8759,7.9507,8.0225,8.0225,8.0016,7.9627,7.9833,8.0199,8.0679,8.0443,8.1213,8.2898,8.2461,8.3132,8.4924,8.5857,8.6469,8.679,0.0,0.0,0.0,8.5887,8.3975,8.187,8.08,7.8952,7.622,7.5613,0.0,7.2304,7.1481,7.0669,6.9823,7.0048,0.0,0.0,0.0,0.0,0.0,0.0,0.0,0.0,0.0,0.0,0.0,6.8313,6.8676,6.596,7.0028,7.361,7.5353,7.7134,7.8959,8.0825,8.2184,8.3189,8.3689,8.5439,8.692,8.7583,8.914,9.0662,9.1643,9.2319,9.3098,9.3977,9.374,9.3673,9.4282,9.3943,9.3634,9.3601,9.3601,9.3639,9.377,9.3673,9.3601,9.3601,9.3601,9.3601,9.3601,9.3601,9.3639,9.3876,9.4349,9.4687,9.4721,9.4721,9.4687,9.4485,9.4011,9.3804,9.4383,9.4755,9.5093,9.5669,9.6751,9.7698,8.5791,0.0,8.5192,8.5013,0.0,8.3995,8.3158,8.217,8.1212,8.0255,7.9297,7.8938,7.843,7.7861,7.8483,7.8968,7.9357,8.0345,8.0794,8.0823,8.1308,8.1059,8.0128,8.0496,8.1033,8.168,8.1367,8.2291,8.4187,8.4065,8.4977,8.6894,8.7904,8.8697,8.9244,9.0247,9.008,8.8716,8.723,8.5409,8.3257,8.1994,8.0013,7.7161,7.6163,0.0,0.0,0.0,0.0,0.0,0.0,0.0,0.0,6.8538,0.0,6.6352,6.6203,6.6339,6.6791,6.9553,7.2022,7.3849,7.6386,7.6463,7.3023,7.627,7.9067,8.0581,8.1765,8.3016,8.4471,8.5621,8.6298,8.6366,8.7651,8.8666,8.914,9.0391,9.1575,9.2358,9.3406,9.4282,9.4654,9.4755,9.4654,9.4687,9.4383,9.3977,9.3668,9.3601,9.3601,9.3601,9.3601,9.3601,9.3601,9.3601,9.3601,9.3601,9.3601,9.377,9.4079,9.4451,9.4721,9.4721,9.4721,9.4721,9.4654,9.4112,9.3909,9.4924,9.5263,9.5499,9.6176,9.7225,9.8003,8.6359,8.5881,8.5881,8.5551,8.5043,8.4923,8.4465,8.3748,0.0,0.0,0.0,7.9956,7.9567,7.8609,7.9806,8.0405,8.0584,8.1586,8.1833,8.1444,8.2273,8.2091,8.1073,8.1405,8.2038,8.2755,8.2549,8.3483,8.5288,8.56,8.6675,8.8498,8.9802,9.0763,9.144,9.1237,9.0425,8.9168,8.826,8.6771,8.4647,8.305,8.0919,7.8247,7.6555,7.4492,7.1988,7.1041,7.0364,6.9925,7.0466,7.0567,7.0161,7.1345,7.1684,7.0838,7.2631,7.4356,7.5709,7.7198,7.8957,8.1054,8.2441,8.234,8.0217,8.184,8.3558,8.4884,8.5621,8.6332,8.7211,8.782,8.8294,8.8531,8.9106,8.9782,9.0493,9.1102,9.1812,9.2595,9.3842,9.4654,9.4518,9.5093,9.533,9.4687,9.4552,9.4518,9.3909,9.3702,9.3639,9.3837,9.374,9.3601,9.3601,9.3601,9.3601,9.3601,9.3601,9.3837,9.4349,9.4721,9.489,9.4958,9.4924,9.4924,9.4857,9.418,9.4142,9.533,9.5736,9.6007,9.6751,9.7597,9.8172,8.6668,8.6578,8.6578,8.6519,8.6399,8.5791,8.5192,8.4376,8.2499,8.1878,8.2208,8.1721,8.1392,8.1272,8.2058,8.2649,8.3158,8.3176,8.3387,8.3778,8.3731,8.361,8.3499,8.385,8.4683,8.5817,8.6176,8.7017,8.8319,8.8469,8.8987,8.9864,9.0745,9.1508,9.2054,9.0971,8.9918,8.91,8.7753,8.6237,8.4614,8.2543,8.0648,7.8991,7.6893,7.5236,7.4164,7.2868,7.2326,7.2857,7.2992,7.3274,7.3849,7.4627,7.5574,7.6715,7.8213,7.9464,8.0335,8.1731,8.3287,8.487,8.579,8.5561,8.4039,8.4742,8.5689,8.6501,8.6738,8.7313,8.8564,8.8903,8.9478,9.056,9.0899,9.1271,9.1918,9.2155,9.2556,9.33,9.4146,9.4451,9.4045,9.4485,9.4721,9.4079,9.4383,9.4654,9.4518,9.4011,9.3909,9.4282,9.3977,9.3668,9.3601,9.3601,9.3601,9.3601,9.3601,9.3634,9.3837,9.4687,9.533,9.5567,9.5398,9.5466,9.5499,9.4518,9.418,9.4823,9.5432,9.6007,9.6781,9.7901,9.8645,8.6728,8.6728,8.6728,8.6728,8.6668,8.597,8.5731,8.5611,8.4055,8.3307,8.3247,8.2978,8.2828,8.2888,8.3517,8.3995,8.4273,8.5173,8.5519,8.5538,8.6512,8.6693,8.6045,8.6,8.6694,8.7912,8.7792,8.8371,8.9596,8.9681,8.9647,8.9647,9.0357,9.0899,9.1135,9.056,8.9647,8.8497,8.7448,8.6366,8.5249,8.3456,8.1968,8.0919,7.9431,7.8213,7.7072,7.6792,7.6589,7.6555,7.6927,7.7299,7.7638,7.8314,7.9228,8.0344,8.1765,8.2915,8.3719,8.4742,8.5655,8.6332,8.6704,8.6805,8.6501,8.7144,8.7719,8.8091,8.8801,8.9376,8.9715,9.0425,9.1034,9.1237,9.1643,9.202,9.2358,9.2827,9.3199,9.3605,9.4586,9.4992,9.4282,9.4823,9.5026,9.4383,9.4552,9.4857,9.5195,9.4687,9.4146,9.4079,9.3808,9.3634,9.3601,9.3601,9.3601,9.3601,9.3601,9.3601,9.3601,9.4311,9.4552,9.4616,9.465,9.4789,9.5093,9.4349,9.4214,9.506,9.5499,9.6074,9.6815,9.7766,9.8307,8.6728,8.6728,8.6728,8.6728,8.6668,8.612,8.621,8.6578,8.551,8.483,8.453,8.435,8.429,8.4389,8.5421,8.5923,8.613,8.7494,8.79,8.7614,8.8942,8.9116,8.8344,8.8017,8.8544,8.9577,8.9164,8.9467,9.0339,9.0459,9.0256,8.9884,9.0256,9.0527,9.0667,9.0357,8.9647,8.8497,8.7617,8.6704,8.5817,8.4606,8.3592,8.2678,8.1934,8.0987,7.9913,8.0242,8.0242,7.9913,8.0547,8.0953,8.0953,8.1629,8.2374,8.3186,8.4208,8.5215,8.5993,8.6738,8.7144,8.715,8.7313,8.7651,8.8226,8.9072,8.954,8.9512,9.029,9.0831,9.0836,9.1614,9.2223,9.188,9.2319,9.2662,9.273,9.3233,9.3601,9.3736,9.4755,9.5229,9.4789,9.5093,9.5263,9.4789,9.4823,9.5195,9.5601,9.5398,9.489,9.4079,9.3706,9.3706,9.377,9.3702,9.3634,9.3601,9.3601,9.3601,9.3668,9.3736,9.3876,9.4011,9.3973,9.4214,9.4552,9.4112,9.4079,9.489,9.5263,9.5736,9.6477,9.6988,9.7664,8.6728,8.6728,8.6728,8.6728,8.6698,8.6638,8.6638,8.6648,8.6302,8.6489,8.6877,8.6338,8.6076,8.6398,8.8466,8.9432,8.9457,9.0277,9.0505,9.0315,8.9663,8.9609,9.0061,9.0021,9.0393,9.1054,9.0972,9.0968,9.1174,9.1169,9.1474,9.1947,9.1508,9.1474,9.1918,9.0831,9.0121,8.9985,8.8598,8.7211,8.5885,8.5682,8.4877,8.3422,8.2712,8.2272,8.2043,8.1494,8.146,8.2103,8.2813,8.3186,8.3253,8.387,8.4674,8.5411,8.5621,8.5993,8.6771,8.7482,8.7922,8.7922,8.8497,8.8869,8.9038,9.0256,9.0763,9.0324,9.0256,9.1,9.2015,9.2324,9.2692,9.3161,9.333,9.347,9.3465,9.3567,9.3601,9.3601,9.4315,9.4552,9.3977,9.4383,9.4755,9.4725,9.5229,9.5601,9.577,9.6108,9.5939,9.4823,9.4079,9.3943,9.4282,9.4011,9.3736,9.3634,9.3601,9.3601,9.3702,9.4079,9.4552,9.4146,9.4417,9.4451,9.4417,9.4112,9.3668,9.4045,9.4552,9.506,9.5702,9.6074,9.6582,8.6728,8.6728,8.6728,8.6728,8.6728,8.6728,8.6847,8.7024,8.694,8.768,8.8952,8.897,8.8341,8.7404,8.925,9.0096,9.0187,9.1525,9.2121,9.2155,9.1904,9.2012,9.2165,9.1726,9.1922,9.2561,9.2184,9.1947,9.188,9.1508,9.1474,9.1643,9.1,9.1034,9.1575,9.029,8.9748,9.0154,8.9173,8.8125,8.7177,8.667,8.6163,8.552,8.4809,8.4167,8.3828,8.3828,8.3896,8.3802,8.4877,8.552,8.552,8.5797,8.6332,8.7042,8.7516,8.7882,8.8158,8.8497,8.8835,8.9275,8.9579,8.9748,8.9782,9.0696,9.1169,9.1034,9.1643,9.2319,9.2426,9.2827,9.3267,9.3567,9.3601,9.3601,9.3601,9.3601,9.3601,9.3634,9.3842,9.3943,9.3706,9.3842,9.4214,9.4654,9.533,9.577,9.5804,9.6074,9.5973,9.5398,9.4383,9.4011,9.4485,9.4079,9.3905,9.4045,9.3842,9.3634,9.3668,9.3804,9.4045,9.4045,9.4108,9.4108,9.3977,9.3876,9.3601,9.3736,9.418,9.4924,9.5669,9.5804,9.6142,8.7147,8.6958,8.6788,8.6728,8.6728,8.6847,8.726,8.7931,8.8155,8.9285,9.0899,9.1366,9.0816,8.978,9.0977,9.1667,9.1865,9.3335,9.4073,9.4067,9.4177,9.4079,9.3842,9.3334,9.3233,9.3436,9.2996,9.2759,9.2692,9.2218,9.1913,9.1812,9.1169,9.1068,9.1406,9.0324,8.9951,9.0391,8.9782,8.914,8.8564,8.7888,8.7313,8.6907,8.6366,8.5757,8.508,8.5723,8.5621,8.4681,8.6264,8.711,8.6941,8.7279,8.7753,8.826,8.8829,8.9134,8.9134,8.9134,8.941,9.0087,9.0222,9.029,9.0594,9.1169,9.1575,9.1711,9.2996,9.3537,9.2962,9.3233,9.3567,9.3601,9.3601,9.3601,9.3601,9.3601,9.3601,9.3601,9.3634,9.3601,9.3601,9.3634,9.3842,9.4315,9.5195,9.5669,9.5635,9.5804,9.6037,9.5687,9.4667,9.4404,9.4819,9.4451,9.4311,9.4468,9.4328,9.4082,9.3874,9.3869,9.3781,9.4039,9.3845,9.3693,9.377,9.3668,9.363,9.3702,9.4074,9.4582,9.489,9.5127,9.5161,8.8245,8.7586,8.6998,8.6777,8.6738,8.7202,8.8133,8.9531,9.0264,9.1475,9.2829,9.3282,9.3418,9.3386,9.4777,9.5508,9.554,9.6157,9.6473,9.6405,9.5912,9.5296,9.4687,9.462,9.4282,9.3808,9.3736,9.3605,9.3567,9.3503,9.347,9.3398,9.259,9.2257,9.2223,9.1508,9.1169,9.1169,9.0527,9.0121,8.9985,8.9309,8.8294,8.7177,8.6907,8.6535,8.596,8.6467,8.6169,8.4681,8.6771,8.7651,8.7177,8.8226,8.897,8.9038,8.91,8.9134,8.9134,8.9168,8.9478,9.0121,9.0391,9.056,9.1237,9.1947,9.2324,9.2358,9.3706,9.4282,9.374,9.3673,9.3736,9.3702,9.3605,9.3601,9.3639,9.3668,9.3601,9.3601,9.3601,9.3601,9.3601,9.3601,9.3634,9.3973,9.492,9.5593,9.5251,9.5966,9.612,9.5548,9.5102,9.5179,9.5556,9.4938,9.4688,9.4907,9.4889,9.4777,9.4606,9.4414,9.4241,9.4126,9.4005,9.3889,9.3689,9.363,9.3689,9.3723,9.3693,9.4032,9.4298,9.3901,9.3939,8.8466,8.8016,8.7354,8.7737,8.8876,8.9028,9.009,9.1735,9.2021,9.3178,9.4611,9.4945,9.5541,9.6485,9.7466,9.7143,9.5932,9.6539,9.6886,9.6815,9.6142,9.5669,9.5432,9.5398,9.5296,9.5026,9.4992,9.4755,9.4315,9.4315,9.4045,9.3503,9.2827,9.2658,9.2861,9.1913,9.1508,9.1913,9.1271,9.0696,9.0256,8.9951,8.9309,8.8328,8.7854,8.7482,8.7211,8.7482,8.7313,8.6805,8.8023,8.8564,8.8429,8.9241,8.9816,8.9816,8.9782,8.9613,8.9207,8.9574,9.0121,9.0831,9.1343,9.1648,9.2083,9.2692,9.3165,9.3368,9.4079,9.4687,9.4924,9.4586,9.4315,9.4248,9.3876,9.3808,9.4079,9.3876,9.3601,9.3601,9.3601,9.3601,9.363,9.3601,9.3659,9.3903,9.4713,9.5209,9.5385,9.5789,9.5886,9.556,9.5419,9.5492,9.5609,9.5035,9.4655,9.502,9.5107,9.48,9.4568,9.4557,9.4414,9.4385,9.4294,9.4236,9.4068,9.4068,9.4068,9.4068,9.401,9.3894,9.3894,9.3777,9.3689,8.8666,8.8596,8.8422,8.9015,9.0127,9.1015,9.2283,9.3661,9.3867,9.4879,9.6324,9.6749,9.7293,9.8045,9.8781,9.8208,9.671,9.7293,9.7627,9.7529,9.6853,9.6379,9.6176,9.6142,9.6007,9.5804,9.5804,9.5533,9.5127,9.506,9.4789,9.4282,9.374,9.3639,9.374,9.2895,9.259,9.2658,9.2049,9.1406,9.0932,9.0459,9.0121,8.9748,8.9072,8.8463,8.8057,8.8463,8.8328,8.7922,8.9004,8.9811,8.985,9.029,9.056,9.056,9.056,9.0357,8.9884,9.0053,9.0628,9.1541,9.1846,9.2184,9.2725,9.33,9.3567,9.377,9.4248,9.489,9.4992,9.5026,9.506,9.4958,9.4417,9.4146,9.4586,9.4248,9.3935,9.3786,9.3747,9.3777,9.3864,9.3894,9.3981,9.4155,9.4797,9.5288,9.5262,9.549,9.5514,9.54,9.5327,9.5384,9.5509,9.5161,9.5087,9.5389,9.5737,9.5287,9.4762,9.4727,9.4699,9.4671,9.4614,9.4585,9.4528,9.45,9.45,9.45,9.4357,9.4184,9.4097,9.3923,9.3864,8.9017,8.9558,9.0244,9.0595,9.1114,9.3114,9.4518,9.5408,9.5705,9.6649,9.7864,9.8589,9.849,9.8341,9.8916,9.8719,9.822,9.8648,9.8815,9.8713,9.8138,9.7495,9.6951,9.6917,9.6582,9.6041,9.5905,9.5872,9.5804,9.5804,9.5736,9.5702,9.5466,9.4992,9.4687,9.4349,9.4112,9.3503,9.2759,9.2358,9.2223,9.1039,9.0628,9.1,9.0459,8.9545,8.8294,8.9444,8.9275,8.7854,8.9748,9.1203,9.1203,9.1305,9.1305,9.1372,9.1338,9.1305,9.1203,9.0696,9.1068,9.1981,9.1812,9.2184,9.3233,9.3567,9.3634,9.3837,9.4248,9.4518,9.4248,9.489,9.5601,9.5702,9.5093,9.4789,9.4857,9.4755,9.4536,9.416,9.4112,9.4155,9.4385,9.4385,9.4414,9.4574,9.5012,9.528,9.4984,9.5287,9.535,9.5109,9.5256,9.5553,9.5481,9.5441,9.5659,9.5896,9.6252,9.6183,9.5431,9.5149,9.5031,9.4975,9.4919,9.4891,9.4812,9.4784,9.4727,9.4699,9.4585,9.4466,9.438,9.4265,9.4126,9.0835,9.2273,9.1687,9.3082,9.537,9.5925,9.6962,9.8499,9.8256,9.8338,9.8783,9.8984,9.895,9.8984,9.9525,9.9728,9.9494,9.9254,9.8815,9.8409,9.8138,9.7867,9.7698,9.7631,9.7529,9.736,9.7326,9.7022,9.6616,9.6548,9.6311,9.5804,9.533,9.4958,9.4721,9.4214,9.3804,9.3601,9.3368,9.2996,9.2459,9.1952,9.158,9.1305,9.1068,9.0696,9.0324,9.0729,9.0628,8.9884,9.0797,9.1541,9.1947,9.2054,9.2319,9.2755,9.2353,9.2083,9.202,9.1851,9.1817,9.2358,9.2658,9.3059,9.3533,9.3634,9.3871,9.4214,9.4586,9.4721,9.506,9.4992,9.533,9.5736,9.5601,9.5665,9.603,9.5943,9.5485,9.4923,9.4962,9.4931,9.4642,9.4562,9.4614,9.475,9.5018,9.5075,9.5169,9.5272,9.5459,9.5261,9.553,9.564,9.5516,9.5606,9.5937,9.5894,9.6141,9.6347,9.573,9.54,9.531,9.5254,9.5226,9.5171,9.5093,9.4934,9.4872,9.4913,9.4885,9.48,9.4744,9.4608,9.4408,9.2545,9.4282,9.4337,9.5514,9.7625,9.7887,9.8532,9.9293,9.8916,9.8848,9.9085,9.939,9.9525,9.966,10.0303,10.0472,10.0168,9.9424,9.8848,9.8409,9.8104,9.8003,9.8003,9.8003,9.8003,9.8003,9.8003,9.7766,9.7326,9.7292,9.7089,9.6582,9.6142,9.5635,9.5161,9.4654,9.4244,9.3736,9.3601,9.3334,9.2895,9.2527,9.229,9.2116,9.188,9.2015,9.2455,9.2556,9.2286,9.1913,9.1947,9.2387,9.2827,9.2861,9.3064,9.3334,9.3165,9.2861,9.2827,9.2556,9.2696,9.3199,9.347,9.3905,9.418,9.4214,9.4282,9.462,9.4721,9.4755,9.489,9.5586,9.5781,9.5917,9.598,9.6349,9.6979,9.675,9.6379,9.595,9.5822,9.5589,9.5361,9.4943,9.4931,9.5059,9.5087,9.5115,9.5337,9.54,9.54,9.5434,9.5579,9.5579,9.5537,9.5779,9.6221,9.6027,9.5855,9.5861,9.5572,9.5434,9.5337,9.5337,9.531,9.531,9.5226,9.4875,9.4737,9.4875,9.5095,9.4902,9.4756,9.48,9.4636,9.426,9.5603,9.7594,9.7952,9.7789,9.9395,9.9634,9.8614,9.8442,9.8848,9.939,10.0032,10.0303,10.0438,10.098,10.0878,10.017,9.9457,9.8984,9.8781,9.851,9.8307,9.8206,9.807,9.8003,9.8003,9.8003,9.7969,9.7867,9.7901,9.8003,9.78,9.7563,9.7191,9.6041,9.5804,9.5026,9.4108,9.3804,9.3706,9.3634,9.2928,9.2793,9.3431,9.2962,9.317,9.4146,9.4552,9.4079,9.2962,9.3368,9.3706,9.374,9.3736,9.3837,9.404,9.3837,9.3871,9.3639,9.3368,9.3402,9.4451,9.4248,9.4248,9.5296,9.506,9.4819,9.495,9.495,9.4743,9.4798,9.579,9.6755,9.6576,9.6678,9.7108,9.775,9.737,9.7145,9.7075,9.6698,9.6297,9.6494,9.5971,9.5689,9.551,9.5544,9.5544,9.5365,9.5427,9.5427,9.5468,9.5537,9.5503,9.5434,9.5882,9.6255,9.591,9.5744,9.5779,9.5572,9.5434,9.5427,9.5427,9.5427,9.5427,9.5324,9.5013,9.4944,9.5165,9.5165,9.4917,9.4875,9.4956,9.4947,9.7232,9.8794,9.8876,9.9685,10.0873,10.1155,10.1183,10.1216,10.0641,10.0405,10.0842,10.098,10.1047,10.1115,10.1282,10.0946,10.0235,9.9457,9.8747,9.851,9.9291,9.9254,9.8781,9.8273,9.807,9.8039,9.8104,9.8003,9.8003,9.8003,9.8003,9.7969,9.7529,9.7089,9.6582,9.6074,9.5669,9.5161,9.4654,9.4417,9.4315,9.3706,9.3368,9.3571,9.3909,9.4252,9.4823,9.577,9.5905,9.5026,9.506,9.5195,9.5127,9.5127,9.5263,9.5631,9.5462,9.5432,9.5699,9.5229,9.5127,9.5398,9.533,9.5398,9.5702,9.5635,9.5619,9.5799,9.5888,9.6113,9.6558,9.6885,9.7203,9.7722,9.8082,9.8369,9.8591,9.8739,9.8607,9.8111,9.8005,9.7798,9.7406,9.7124,9.6773,9.6296,9.6089,9.5986,9.5675,9.54,9.54,9.54,9.5468,9.5434,9.5537,9.5986,9.6117,9.5772,9.5744,9.5951,9.5675,9.54,9.5427,9.5427,9.5427,9.5427,9.5427,9.5289,9.5365,9.5365,9.5193,9.4986,9.5158,9.5254,9.5226,9.9523,10.112,10.0685,10.108,10.1962,10.1589,10.1453,10.1453,10.1115,10.1115,10.135,10.1418,10.1555,10.1825,10.1521,10.1181,10.0641,9.9897,9.939,9.9254,10.0168,10.0405,9.9965,9.9322,9.8919,9.8851,9.8612,9.8476,9.8409,9.8172,9.8037,9.7969,9.7597,9.7255,9.6849,9.6545,9.6108,9.577,9.5364,9.5161,9.5127,9.4755,9.4586,9.4586,9.4958,9.5263,9.5736,9.6751,9.7022,9.6413,9.621,9.6108,9.5804,9.5804,9.6007,9.6413,9.6007,9.5973,9.6244,9.6041,9.6142,9.648,9.648,9.6707,9.7103,9.693,9.6605,9.6903,9.6963,9.729,9.778,9.8103,9.8852,9.9745,9.9926,9.9769,9.943,9.9504,9.942,9.91,9.8837,9.8676,9.8159,9.7946,9.7359,9.6745,9.6434,9.6227,9.5986,9.5675,9.5537,9.5675,9.5572,9.5537,9.5537,9.5882,9.6221,9.591,9.5572,9.5848,9.571,9.5427,9.5427,9.5427,9.5427,9.5434,9.5503,9.5503,9.5365,9.5296,9.5193,9.5158,9.5262,9.5427,9.5427,10.1253,10.2536,10.2502,10.213,10.1622,10.1521,10.1284,10.061,10.0709,10.1014,10.1453,10.1553,10.1893,10.2468,10.169,10.1418,10.1316,10.0641,10.0608,10.0743,10.125,10.1453,10.1521,10.0608,10.0134,9.9899,9.9457,9.9187,9.8984,9.8476,9.8172,9.8104,9.8037,9.7698,9.7258,9.7022,9.665,9.6277,9.6007,9.5905,9.5872,9.5669,9.5499,9.5533,9.577,9.6244,9.6853,9.7563,9.7631,9.7022,9.6988,9.6717,9.6176,9.6074,9.6108,9.6311,9.6447,9.6447,9.6375,9.671,9.7045,9.7994,9.7818,9.7947,9.904,9.8622,9.8126,9.8317,9.8249,9.8513,9.8666,9.9803,10.0697,10.1312,10.1233,10.0745,10.0228,9.9952,9.9883,9.9849,9.9262,9.8986,9.8745,9.8325,9.771,9.7503,9.7193,9.7021,9.6745,9.6434,9.6296,9.6227,9.602,9.5675,9.571,9.5813,9.6083,9.6083,9.5606,9.5572,9.5572,9.5427,9.5427,9.5427,9.5427,9.5572,9.5848,9.5744,9.5572,9.5468,9.5503,9.5331,9.5227,9.5331,9.5427,10.2209,10.2536,10.2536,10.2401,10.2265,10.2265,10.213,10.1961,10.1995,10.1995,10.2231,10.2265,10.2333,10.2468,10.1758,10.1418,10.1418,10.1216,10.169,10.2773,10.2367,10.2637,10.2671,10.1758,10.0844,10.0405,10.0069,9.9694,9.9322,9.9491,9.9122,9.8273,9.8578,9.851,9.7867,9.7698,9.7732,9.7428,9.6954,9.665,9.6548,9.6142,9.5939,9.5973,9.6409,9.7022,9.7597,9.7901,9.7935,9.78,9.7766,9.7661,9.7495,9.7461,9.7495,9.7661,9.8067,9.8338,9.8504,9.8961,9.9695,9.993,10.0013,10.0432,10.0698,10.0558,10.0163,10.0198,10.0494,10.0514,10.0452,10.1253,10.1756,10.1711,10.1465,10.1154,10.0844,10.0326,9.9918,9.9849,9.9745,9.9642,9.9607,9.9366,9.8849,9.84,9.809,9.798,9.7635,9.7221,9.7055,9.6952,9.6779,9.6503,9.6262,9.64,9.6704,9.6566,9.5986,9.5606,9.5606,9.5434,9.5434,9.5434,9.5427,9.5744,9.64,9.6331,9.6262,9.6055,9.5848,9.571,9.5641,9.5572,9.5537,10.2908,10.3449,10.2806,10.2705,10.2942,10.2637,10.2536,10.2536,10.2536,10.2536,10.2536,10.2536,10.2536,10.2468,10.1758,10.1418,10.1418,10.1418,10.179,10.2502,10.2671,10.284,10.2637,10.2502,10.2028,10.1352,10.0912,10.0675,10.0709,10.0337,9.9999,9.9525,9.9322,9.8916,9.8476,9.824,9.8003,9.7901,9.7631,9.7428,9.7292,9.7056,9.6819,9.6853,9.7225,9.7631,9.7935,9.8003,9.8003,9.8135,9.8462,9.8665,9.8541,9.8544,9.8741,9.9303,9.954,9.997,10.0261,10.0588,10.1022,10.1462,10.1343,10.1531,10.1653,10.168,10.1454,10.1454,10.1646,10.1908,10.2125,10.2366,10.2534,10.2707,10.2327,10.2155,10.1913,10.0814,9.9883,9.9883,9.9849,9.9607,9.9538,9.9538,9.9055,9.8193,9.7986,9.7911,9.8222,9.7877,9.7808,9.7704,9.7635,9.7428,9.7055,9.7124,9.7532,9.7187,9.6572,9.6227,9.6055,9.5813,9.5537,9.5572,9.571,9.6641,9.7158,9.7055,9.6917,9.6814,9.6641,9.6331,9.602,9.571,9.5813,10.328,10.4396,10.3043,10.2874,10.328,10.2773,10.2536,10.2536,10.2536,10.2536,10.2536,10.2536,10.2536,10.2367,10.1724,10.1419,10.1622,10.1857,10.2196,10.2299,10.3077,10.2806,10.2333,10.2603,10.284,10.2468,10.1859,10.1792,10.1487,10.1216,10.0777,10.0878,10.0134,9.9559,9.9187,9.8747,9.8544,9.8578,9.8544,9.8307,9.8206,9.8104,9.807,9.807,9.7901,9.8037,9.8203,9.82,9.8163,9.8298,9.9183,9.9556,9.9639,9.9509,9.9741,10.0697,10.0799,10.1059,10.1312,10.1606,10.2074,10.2587,10.22,10.222,10.2742,10.2631,10.2408,10.2248,10.2337,10.244,10.319,10.3194,10.3505,10.3845,10.3569,10.3332,10.2953,10.1435,10.0573,10.0125,9.9987,9.9711,9.9331,9.9153,9.8601,9.8124,9.7952,9.7986,9.8394,9.8601,9.8532,9.8498,9.8463,9.9006,9.884,9.8103,9.841,9.8719,9.7901,9.7285,9.7022,9.7015,9.6862,9.6138,9.6365,9.7124,9.7676,9.7676,9.7635,9.7601,9.729,9.6848,9.6365,9.5882,9.6083,10.3009,10.372,10.2874,10.2603,10.2671,10.257,10.2536,10.2536,10.2536,10.2536,10.2536,10.2536,10.2536,10.2333,10.1724,10.1724,10.2231,10.257,10.2942,10.2976,10.3382,10.2908,10.2502,10.257,10.2637,10.2536,10.2265,10.1825,10.1453,10.1487,10.1487,10.0811,10.0743,10.0608,10.0134,9.9863,9.9595,9.9559,9.9561,9.939,9.9018,9.8916,9.8916,9.8848,9.8541,9.8572,9.8772,9.8652,9.8704,9.9312,9.9791,10.0633,10.1281,10.1179,10.1142,10.1415,10.1954,10.2323,10.2584,10.308,10.3481,10.3745,10.3727,10.381,10.4069,10.4,10.3651,10.313,10.2776,10.2638,10.3229,10.3436,10.3367,10.347,10.3569,10.3401,10.316,10.2332,10.147,10.109,10.0504,9.9745,9.9326,9.905,9.878,9.8573,9.8532,9.8711,9.9193,9.9297,9.9262,9.9262,9.9262,10.0105,10.0777,9.983,9.9526,10.054,10.0065,9.8917,9.8717,9.87,9.8303,9.7152,9.6664,9.7055,9.7538,9.8153,9.798,9.771,9.7469,9.729,9.7001,9.6712,9.647,10.3145,10.4024,10.2976,10.2739,10.2976,10.2671,10.2536,10.2536,10.2536,10.2536,10.2536,10.2536,10.2536,10.2401,10.2164,10.2198,10.2536,10.2806,10.3009,10.3043,10.3009,10.2874,10.2536,10.2536,10.2231,10.2164,10.2198,10.2401,10.1995,10.2265,10.2265,10.2062,10.1724,10.1183,10.0811,10.0371,10.0272,10.0238,10.0204,10.0069,9.9694,9.966,9.966,9.959,9.9512,9.9639,9.9769,9.9979,10.0064,10.0531,10.1151,10.1885,10.2426,10.286,10.2959,10.3149,10.3495,10.4033,10.4363,10.4888,10.4781,10.4812,10.4965,10.485,10.4742,10.4677,10.4643,10.4156,10.4194,10.4091,10.4539,10.416,10.4125,10.4332,10.416,10.3949,10.3707,10.2914,10.2465,10.2086,10.1396,10.0464,9.9222,9.9021,9.9021,9.8986,9.905,9.94,9.9918,10.0056,10.0102,10.0179,10.0307,10.119,10.1955,10.1464,10.1112,10.2005,10.2117,10.0954,10.0138,10.0032,9.8945,9.7559,9.7415,9.7973,9.8354,9.9245,9.8561,9.8031,9.8178,9.8256,9.7916,9.7612,9.7515,10.3483,10.4598,10.3111,10.284,10.3246,10.2942,10.2671,10.257,10.2874,10.2806,10.2536,10.2671,10.2671,10.2536,10.2502,10.2502,10.2536,10.2536,10.257,10.257,10.2603,10.2536,10.2536,10.2434,10.2265,10.2028,10.2231,10.2705,10.257,10.2603,10.2874,10.2671,10.1995,10.1622,10.1487,10.1149,10.0711,10.0644,10.0675,10.061,10.0472,10.0335,10.0432,10.0497,10.0745,10.0864,10.1303,10.1374,10.1595,10.206,10.2723,10.3417,10.3413,10.4177,10.4831,10.5167,10.5208,10.5775,10.6175,10.6133,10.5789,10.5789,10.5647,10.5298,10.4988,10.4988,10.5022,10.4777,10.5057,10.5371,10.5302,10.5195,10.5264,10.5436,10.516,10.4712,10.4608,10.416,10.3505,10.3017,10.2258,10.143,10.0499,9.9843,9.9987,10.0159,10.0223,9.9981,10.0453,10.0895,10.0982,10.1087,10.143,10.2295,10.2837,10.3022,10.3101,10.3898,10.3702,10.2866,10.1904,10.1223,10.0068,9.9291,9.9631,10.0186,10.0321,10.0333,10.0248,9.9984,9.9632,9.9485,9.9575,9.9473,9.9315,10.3957,10.4598,10.3111,10.257,10.2739,10.3145,10.3043,10.2671,10.372,10.3652,10.257,10.3077,10.3009,10.2637,10.2536,10.2536,10.2536,10.2536,10.2536,10.2536,10.2536,10.2536,10.2536,10.2536,10.2468,10.2231,10.2401,10.2096,10.2164,10.2401,10.2536,10.257,10.2536,10.2333,10.2198,10.1995,10.2265,10.2198,10.2164,10.1891,10.1346,10.0991,10.1153,10.1448,10.1564,10.1818,10.2733,10.284,10.2959,10.357,10.4606,10.4862,10.4578,10.5026,10.5406,10.5513,10.5616,10.5857,10.6612,10.6647,10.6578,10.6474,10.613,10.5647,10.5609,10.5229,10.5087,10.4604,10.5264,10.575,10.5992,10.613,10.6371,10.6199,10.575,10.575,10.575,10.4781,10.4229,10.4401,10.3815,10.3056,10.2194,10.1539,10.1085,10.1258,10.1327,10.1114,10.1111,10.1621,10.2462,10.2695,10.2846,10.363,10.388,10.4017,10.444,10.5369,10.4909,10.4347,10.3538,10.2704,10.2598,10.2063,10.2218,10.1879,10.1558,10.1602,10.2014,10.1779,10.1179,10.1306,10.1608,10.1398,10.1205,10.4396,10.4598,10.3111,10.2536,10.257,10.2874,10.2806,10.2705,10.3145,10.3111,10.2637,10.2806,10.2773,10.2536,10.2536,10.2536,10.2536,10.2536,10.2536,10.2536,10.2536,10.2536,10.2536,10.2536,10.2536,10.2536,10.2502,10.2434,10.2198,10.2265,10.2536,10.2536,10.2536,10.2468,10.257,10.2536,10.2502,10.25,10.2627,10.2683,10.2602,10.2421,10.2413,10.2785,10.2755,10.3152,10.3653,10.4314,10.4258,10.4667,10.5478,10.5854,10.5367,10.5471,10.575,10.6233,10.6233,10.6612,10.7233,10.7336,10.7371,10.7336,10.7061,10.6957,10.6819,10.654,10.6057,10.5815,10.6505,10.6785,10.6681,10.675,10.6681,10.6474,10.6026,10.5957,10.5923,10.5333,10.4781,10.5126,10.5459,10.4876,10.4194,10.3352,10.263,10.2252,10.238,10.2236,10.2289,10.2642,10.3633,10.4669,10.4816,10.5077,10.5122,10.5152,10.5232,10.5741,10.5375,10.4902,10.4655,10.4222,10.4008,10.3779,10.3556,10.3159,10.2758,10.2716,10.2994,10.2813,10.2631,10.2856,10.3148,10.352,10.3437,10.4396,10.4295,10.3246,10.2671,10.2536,10.2705,10.2705,10.2536,10.3009,10.2874,10.257,10.2536,10.2536,10.2536,10.2536,10.2536,10.2536,10.2536,10.2536,10.2536,10.2536,10.2536,10.2536,10.2536,10.2536,10.2536,10.2536,10.2468,10.2536,10.2671,10.2773,10.257,10.2806,10.2671,10.2671,10.3105,10.3441,10.3568,10.3522,10.3543,10.363,10.3616,10.3545,10.3703,10.3923,10.4208,10.4513,10.5287,10.5474,10.5509,10.6543,10.6923,10.613,10.6233,10.6543,10.6923,10.6992,10.7371,10.7888,10.8164,10.8195,10.8126,10.7919,10.7574,10.7336,10.7578,10.7405,10.6543,10.7299,10.7609,10.7574,10.7095,10.7026,10.6578,10.6026,10.5888,10.5938,10.612,10.6414,10.6841,10.7173,10.7109,10.6355,10.528,10.4374,10.3538,10.3336,10.3412,10.3861,10.4346,10.5159,10.6393,10.6634,10.6721,10.6678,10.6621,10.6575,10.6302,10.5935,10.5652,10.5513,10.5319,10.5063,10.4898,10.4836,10.4763,10.4535,10.4225,10.394,10.4212,10.4386,10.4382,10.4608,10.5115,10.5648,10.3686,10.3652,10.3551,10.3077,10.2536,10.3246,10.3111,10.2637,10.3855,10.3551,10.257,10.2536,10.2536,10.2536,10.2536,10.2536,10.2536,10.2536,10.2536,10.2536,10.2536,10.2536,10.2536,10.2536,10.2536,10.2536,10.2637,10.2671,10.2739,10.3314,10.3043,10.2671,10.3377,10.3076,10.3274,10.4077,10.4775,10.4868,10.472,10.4513,10.4496,10.4345,10.4057,10.4115,10.4361,10.475,10.5444,10.6199,10.6474,10.6336,10.7647,10.7888,10.6992,10.713,10.744,10.7543,10.7643,10.7923,10.8402,10.8681,10.8885,10.8713,10.8336,10.7819,10.7474,10.7026,10.6785,10.7054,10.783,10.7823,10.7592,10.7326,10.7876,10.7715,10.7472,10.7234,10.7506,10.8057,10.8347,10.873,10.8893,10.9027,10.9014,10.8049,10.6385,10.5482,10.551,10.5635,10.641,10.6928,10.7329,10.8058,10.8361,10.8478,10.8405,10.8211,10.7734,10.744,10.7147,10.6816,10.6533,10.6325,10.6335,10.6305,10.6342,10.6318,10.6294,10.6026,10.5884,10.61,10.6187,10.6119,10.6539,10.7173,10.7724,10.3585,10.3585,10.3585,10.3179,10.2536,10.2806,10.2773,10.2603,10.3111,10.3077,10.2536,10.2536,10.2536,10.2536,10.2536,10.2536,10.2536,10.2536,10.2536,10.2536,10.2536,10.2536,10.2536,10.2536,10.2536,10.2637,10.2908,10.3179,10.328,10.3956,10.4288,10.4285,10.4486,10.4418,10.4684,10.5012,10.564,10.5929,10.5818,10.5676,10.5789,10.5301,10.498,10.4977,10.5072,10.5298,10.5716,10.6819,10.6957,10.7233,10.8267,10.8095,10.7647,10.7854,10.7988,10.8023,10.8057,10.8195,10.8506,10.875,10.9023,10.8957,10.8681,10.8336,10.7888,10.8026,10.8095,10.8314,10.8557,10.8691,10.9385,10.9722,11.0004,10.9643,10.919,10.8794,10.893,10.9495,11.0084,11.0286,11.0803,11.1186,11.1134,11.094,10.9098,10.7485,10.764,10.7933,10.8599,10.8965,10.9208,10.9239,10.9445,10.9312,10.9202,10.8982,10.8725,10.8505,10.8343,10.7954,10.7587,10.7896,10.7898,10.7859,10.7661,10.7471,10.745,10.7676,10.7477,10.689,10.7257,10.7898,10.8477,10.9019,10.9312,10.328,10.328,10.328,10.3111,10.2806,10.2603,10.2637,10.2773,10.2637,10.2536,10.2536,10.2536,10.2536,10.2536,10.2536,10.2536,10.2536,10.2536,10.2536,10.2536,10.2536,10.2536,10.257,10.2739,10.2942,10.3009,10.3549,10.3956,10.4152,10.483,10.5264,10.5628,10.596,10.5959,10.5383,10.5945,10.6469,10.6894,10.6782,10.6811,10.6926,10.6336,10.5923,10.5923,10.5923,10.5957,10.6302,10.7126,10.7506,10.7647,10.8164,10.8578,10.8405,10.8233,10.8368,10.8437,10.8402,10.8333,10.8644,10.8747,10.9058,10.8989,10.8989,10.8816,10.8782,10.8882,10.8807,10.9109,10.9589,11.0277,11.0996,11.0963,11.0735,11.016,11.0073,10.9805,11.0141,11.0607,11.1302,11.1899,11.2837,11.4236,11.3368,11.3169,11.1712,11.0168,10.9997,11.0112,11.0331,11.0567,11.0426,11.0413,11.0355,11.0047,10.9679,10.979,10.9826,10.9312,10.9092,10.8872,10.8725,10.8945,10.8872,10.8468,10.8321,10.8395,10.8468,10.8578,10.7918,10.7073,10.7918,10.8982,10.9312,10.9753,11.0157,10.257,10.2536,10.257,10.2942,10.3382,10.2773,10.284,10.3212,10.2773,10.2536,10.2536,10.2536,10.2536,10.2536,10.2536,10.2536,10.2536,10.2536,10.2536,10.2536,10.2536,10.2536,10.2773,10.3043,10.3348,10.372,10.4326,10.4896,10.5125,10.5904,10.6406,10.7038,10.757,10.7497,10.6043,10.6844,10.7883,10.8618,10.8064,10.7923,10.7681,10.7095,10.675,10.6681,10.6681,10.6681,10.7164,10.7816,10.8264,10.8575,10.8989,10.9265,10.9058,10.8989,10.923,10.9609,10.9129,10.9299,10.9885,10.9336,10.906,10.9023,10.9023,10.8911,10.8462,10.8691,10.9525,11.0071,11.0685,11.1199,11.1427,11.1571,11.1489,11.1647,11.1716,11.1461,11.1853,11.232,11.314,11.3591,11.5943,11.7658,11.6352,11.5271,11.4051,11.3078,11.2594,11.2331,11.2038,11.1709,11.1416,11.1117,11.0964,11.0854,11.0634,11.0964,11.0891,11.0304,10.99,10.9753,10.9533,10.9496,10.9312,10.9019,10.9129,10.9349,10.9349,10.9386,10.8835,10.8468,10.9019,10.979,11.012,11.0377,11.0707,10.2536,10.2536,10.2536,10.2942,10.3449,10.2806,10.2671,10.2806,10.2637,10.2536,10.2536,10.2536,10.2536,10.2536,10.2536,10.2536,10.2536,10.2536,10.2536,10.2536,10.257,10.2536,10.2773,10.3314,10.3719,10.4055,10.483,10.5773,10.5938,10.6848,10.7515,10.8146,10.8744,10.8872,10.8258,10.8385,10.8721,10.8888,10.8716,10.8612,10.8509,10.7888,10.7506,10.7506,10.7474,10.7681,10.806,10.8747,10.923,10.9609,11.0058,10.9989,10.9747,10.9644,10.9575,10.9575,10.9058,10.9095,10.9336,10.906,10.9058,10.9118,10.9112,10.9348,10.9722,11.0008,11.0647,11.1419,11.2247,11.302,11.4004,11.4373,11.4535,11.5032,11.4972,11.417,11.4167,11.4689,11.5246,11.5429,11.6891,11.7465,11.6854,11.6357,11.5421,11.4582,11.3893,11.3017,11.2577,11.227,11.1939,11.1609,11.1441,11.1441,11.1478,11.1441,11.1331,11.0817,11.0671,11.0744,11.0487,11.012,11.023,11.0157,11.023,11.0304,11.0083,10.9973,11.0083,11.0157,11.034,11.045,11.0671,11.0854,11.1001,10.2536,10.2536,10.2536,10.2773,10.3111,10.2705,10.2536,10.2536,10.2536,10.2536,10.2536,10.2536,10.2536,10.2536,10.2536,10.2536,10.2536,10.2536,10.2536,10.257,10.2806,10.2908,10.3212,10.3854,10.4563,10.4898,10.5806,10.6785,10.7112,10.7785,10.8453,10.9052,10.9482,10.9411,10.9236,10.9339,10.9405,10.9371,10.9196,10.8954,10.8785,10.8543,10.8299,10.8299,10.8333,10.8506,10.8957,10.9509,10.9989,11.0472,11.0541,11.0368,10.9989,10.9747,10.954,10.9161,10.9023,10.9209,10.9583,10.9734,10.994,11.0418,10.9879,11.0103,11.0874,11.1162,11.1762,11.2626,11.3768,11.4828,11.5723,11.6161,11.6267,11.6717,11.6424,11.5511,11.5107,11.5547,11.6084,11.6374,11.6924,11.7218,11.7254,11.7098,11.6627,11.5841,11.5112,11.4158,11.3203,11.2836,11.2469,11.2102,11.1698,11.1515,11.1478,11.1515,11.1368,11.1221,11.1221,11.1184,11.1148,11.0744,11.1038,11.1221,11.0928,11.0707,11.056,11.0524,11.0671,11.0854,11.1074,11.1184,11.1221,11.1331,11.1441,10.2536,10.2536,10.2536,10.2536,10.2536,10.2536,10.2536,10.2536,10.2536,10.2536,10.2536,10.2536,10.2536,10.2536,10.2536,10.2536,10.2536,10.2536,10.2603,10.2773,10.3179,10.3415,10.4057,10.4936,10.5439,10.6214,10.6988,10.7655,10.838,10.8479,10.9049,10.962,10.9511,10.9782,10.9991,11.0026,10.992,10.9575,10.9233,10.9058,10.8954,10.8954,10.8816,10.8816,10.8851,10.8922,10.9233,10.954,10.954,10.9609,10.9474,10.9302,10.9196,10.9124,10.9089,10.9244,10.9366,11.0171,11.0627,11.0799,11.1431,11.1907,11.1546,11.1376,11.1652,11.2339,11.2963,11.3515,11.4399,11.5615,11.664,11.6574,11.6484,11.658,11.6544,11.5933,11.542,11.5676,11.63,11.6874,11.7645,11.7865,11.7401,11.7241,11.6947,11.6287,11.5553,11.5296,11.4378,11.3519,11.3093,11.2579,11.2102,11.1478,11.1478,11.1698,11.1441,11.1331,11.1221,11.1221,11.1221,11.1221,11.1221,11.1221,11.1221,11.1111,11.0891,11.1001,11.1258,11.1478,11.1808,11.1772,11.1808,11.1845,11.1955,10.2536,10.2536,10.2536,10.2536,10.2536,10.2536,10.2536,10.2536,10.2536,10.2536,10.2536,10.2536,10.2536,10.2536,10.2536,10.2536,10.2536,10.2603,10.2908,10.3212,10.3517,10.3923,10.463,10.5507,10.6112,10.6714,10.7451,10.8221,10.8479,10.8705,10.9243,10.9888,10.9747,11.0196,11.0437,11.0437,10.992,10.9471,10.9095,10.9058,10.9023,10.9023,10.9023,10.9023,10.9023,10.9164,10.9543,11.0092,11.0265,11.0501,11.109,11.1058,10.9851,11.0591,11.1148,11.1573,11.1957,11.2404,11.2105,11.2018,11.2516,11.3461,11.3356,11.3399,11.3515,11.3685,11.4173,11.4668,11.5152,11.6264,11.6917,11.6988,11.6984,11.6984,11.6764,11.6103,11.5626,11.5626,11.6213,11.6837,11.7645,11.7718,11.7291,11.7131,11.6801,11.6287,11.5883,11.5663,11.5296,11.4327,11.385,11.3277,11.2653,11.2065,11.1992,11.2139,11.1735,11.1405,11.1405,11.1368,11.1368,11.1368,11.1258,11.1221,11.1221,11.1221,11.1184,11.1405,11.1772,11.2249,11.2543,11.2469,11.2396,11.2469,11.2689,10.2536,10.2536,10.2536,10.2536,10.2536,10.2536,10.2536,10.2536,10.2536,10.2536,10.2536,10.2536,10.2536,10.2536,10.2536,10.2536,10.2536,10.2536,10.2705,10.3009,10.3752,10.4358,10.5099,10.6077,10.6851,10.7383,10.7878,10.8545,10.8705,10.8933,10.9371,11.0058,10.9954,11.023,11.0403,11.0023,10.9506,10.9196,10.9023,10.9023,10.9023,10.9023,10.9023,10.9023,10.9023,10.9397,10.9742,11.0398,11.0655,11.0998,11.1679,11.1677,11.0972,11.1807,11.214,11.2395,11.2601,11.2973,11.31,11.3224,11.3876,11.4579,11.4935,11.4923,11.4899,11.496,11.5321,11.5688,11.6184,11.6741,11.7108,11.7438,11.7535,11.7645,11.6911,11.6177,11.5883,11.5626,11.6066,11.6654,11.7021,11.7168,11.7094,11.6911,11.647,11.5773,11.5259,11.5002,11.4892,11.4488,11.4268,11.4084,11.3387,11.2763,11.2689,11.2506,11.2212,11.1919,11.1882,11.1808,11.1662,11.1625,11.1662,11.1441,11.1221,11.1258,11.1295,11.1882,11.2322,11.28,11.335,11.3607,11.346,11.3277,11.3534,10.2536,10.2536,10.2536,10.2536,10.2536,10.2536,10.2536,10.2536,10.2536,10.2536,10.2536,10.2536,10.2536,10.2536,10.2536,10.2536,10.2536,10.2536,10.2671,10.2671,10.385,10.4658,10.5433,10.6581,10.7142,10.7975,10.8541,10.8737,10.8928,10.9092,10.9402,11.0092,10.9471,10.9609,11.0161,10.9575,10.9161,10.9092,10.9023,10.9023,10.9023,10.9023,10.9023,10.9055,10.9146,10.9341,10.9372,10.9559,10.9861,11.0608,11.1238,11.1778,11.2336,11.2892,11.2956,11.3235,11.3608,11.3938,11.4326,11.443,11.4874,11.55,11.5993,11.5831,11.5678,11.591,11.6184,11.6364,11.6741,11.7278,11.7682,11.7475,11.7401,11.7241,11.669,11.5993,11.5553,11.5406,11.5589,11.6177,11.658,11.6727,11.6544,11.636,11.6103,11.5259,11.4855,11.4635,11.4268,11.4231,11.4268,11.4378,11.357,11.2873,11.2946,11.28,11.2689,11.2506,11.2432,11.2469,11.2469,11.2322,11.2102,11.1808,11.1478,11.1405,11.1552,11.2212,11.2873,11.3313,11.3901,11.4635,11.4635,11.4268,11.4415,10.2536,10.2536,10.2536,10.2536,10.2536,10.2536,10.2536,10.2536,10.2536,10.2536,10.2536,10.2536,10.2536,10.2536,10.2536,10.2536,10.2536,10.2536,10.284,10.3241,10.4083,10.4718,10.542,10.6628,10.7155,10.7312,10.7912,10.8827,10.8991,10.9127,10.9336,10.9989,10.9437,10.9402,10.9989,10.9368,10.9161,10.9161,10.9161,10.9161,10.9127,10.9058,10.9023,10.93,10.9576,11.0208,11.0678,11.1736,11.1957,11.2288,11.275,11.3278,11.3794,11.4402,11.4825,11.5178,11.5336,11.5445,11.5384,11.5454,11.5764,11.5808,11.603,11.5993,11.6153,11.6617,11.6851,11.6947,11.7241,11.7755,11.7938,11.7511,11.7181,11.6874,11.6397,11.5773,11.5185,11.5185,11.5185,11.5626,11.6103,11.614,11.5993,11.5773,11.5516,11.5222,11.4965,11.4598,11.3937,11.3681,11.3754,11.3717,11.3203,11.2763,11.2946,11.3152,11.302,11.302,11.2983,11.3116,11.3226,11.2873,11.2506,11.2102,11.1808,11.1882,11.2212,11.2836,11.3424,11.3864,11.4525,11.5259,11.5516,11.5259,11.5442,10.2536,10.2536,10.2536,10.2536,10.2536,10.2536,10.2536,10.2536,10.2536,10.2536,10.2536,10.2536,10.2536,10.2536,10.2536,10.2536,10.2536,10.2536,10.28,10.3334,10.414,10.4737,10.5637,10.657,10.6828,10.7017,10.7797,10.8543,10.8954,10.9058,10.9299,10.9644,10.9198,10.9233,10.9747,10.9471,10.944,10.954,10.9471,10.9471,10.9368,10.9262,10.9428,10.9822,11.0388,11.1033,11.1731,11.2731,11.3028,11.3526,11.417,11.4666,11.5069,11.5385,11.5723,11.5921,11.6134,11.647,11.6213,11.6177,11.625,11.614,11.6397,11.6544,11.614,11.6507,11.669,11.6801,11.7608,11.8195,11.7718,11.7291,11.7218,11.7021,11.5993,11.5075,11.4782,11.4672,11.4818,11.5149,11.5516,11.5699,11.5553,11.5406,11.5075,11.4561,11.4378,11.3901,11.335,11.3409,11.3409,11.3424,11.313,11.302,11.3299,11.3446,11.3446,11.3483,11.3483,11.3336,11.3263,11.3093,11.2873,11.2653,11.2543,11.2689,11.3093,11.357,11.4011,11.4415,11.5112,11.5883,11.5993,11.5993,11.5956,10.2231,10.2367,10.2333,10.2434,10.2502,10.2536,10.2536,10.2536,10.2536,10.2536,10.2536,10.2536,10.2536,10.2536,10.2536,10.2536,10.2568,10.2631,10.2859,10.3325,10.4333,10.4583,10.5241,10.6276,10.6636,10.7139,10.775,10.8437,10.9023,10.9058,10.9058,10.9092,10.9161,10.9196,10.9368,10.9647,10.9989,10.9851,10.9816,10.9954,10.9779,10.9558,10.9988,11.0478,11.1178,11.1773,11.2434,11.3082,11.3654,11.4279,11.5263,11.5549,11.5751,11.5834,11.5881,11.6066,11.6066,11.6103,11.6103,11.6434,11.6323,11.636,11.6837,11.6801,11.6323,11.6397,11.6544,11.6984,11.7792,11.8122,11.7621,11.7058,11.7058,11.6924,11.5736,11.4708,11.4561,11.4341,11.4488,11.4745,11.5002,11.5259,11.5185,11.5075,11.4782,11.4194,11.3644,11.2946,11.2653,11.3167,11.3446,11.3681,11.3791,11.3754,11.3813,11.385,11.3901,11.3754,11.3717,11.346,11.3299,11.3263,11.3336,11.3409,11.3409,11.3387,11.3717,11.4194,11.4598,11.4965,11.5442,11.5993,11.5993,11.5993,11.5993,10.1014,10.1589,10.1589,10.1927,10.2468,10.2502,10.2536,10.2536,10.2536,10.2536,10.2536,10.2536,10.2536,10.2536,10.2536,10.2568,10.2599,10.2759,10.2887,10.3185,10.4137,10.4279,10.4699,10.5741,10.6623,10.7267,10.7781,10.8302,10.8989,10.9092,10.9333,10.9747,10.9853,10.9885,10.9885,11.0092,11.0127,11.0021,11.0214,11.0381,11.0072,11.0096,11.0518,11.1403,11.266,11.3383,11.4116,11.4911,11.5357,11.5701,11.5854,11.6043,11.5993,11.5993,11.5993,11.5993,11.5993,11.5993,11.614,11.6397,11.6287,11.614,11.6434,11.6434,11.6323,11.658,11.6764,11.6961,11.7658,11.8232,11.7828,11.6727,11.6397,11.647,11.581,11.5149,11.4708,11.4305,11.4084,11.4415,11.4782,11.4929,11.5002,11.5039,11.5259,11.4818,11.4598,11.3901,11.3167,11.3373,11.3593,11.3901,11.4268,11.4488,11.4598,11.4451,11.4415,11.4231,11.4048,11.3864,11.3681,11.3556,11.363,11.407,11.4033,11.3937,11.4341,11.4855,11.5112,11.5442,11.5699,11.5993,11.5993,11.5993,11.5993]}]]